[[{"header":{"parameterUnit":"m.s-1","parameterCategory":1,"la1":30.6,"la2":28.766,"lo1":-90.7593,"lo2":-88.6598,"dy":0.0162,"dx":0.0183,"nx":116,"ny":114,"refTime":"2023-05-01T00:00:00:Z","depth":0,"parameterNumber":2,"parameterNumberName":"U-component_of_WINDS"},"data":[0.0,0.0,0.0,0.0,0.0,0.0,0.0,0.0,0.0,0.0,0.0,0.0,0.0,0.0,0.0,0.0,0.0,0.0,0.0,0.0,0.0,0.0,0.0,0.0,0.0,0.0,0.0,0.0,0.0,0.0,0.0,0.0,0.0,0.0,0.0,0.0,0.0,0.0,0.0,0.0,0.0,0.0,0.0,0.0,0.0,0.0,0.0,0.0,0.0,0.0,0.0,0.0,0.0,0.0,0.0,0.0,0.0,0.0,0.0,0.0,0.0,0.0,0.0,0.0,0.0,0.0,0.0,0.0,0.0,0.0,0.0,0.0,0.0,0.0,0.0,0.0,0.0,0.0,0.0,0.0,0.0,0.0,0.0,0.0,0.0,0.0,0.0,0.0,0.0,0.0,0.0,0.0,0.0,0.0,0.0,0.0,0.0,0.0,0.0,0.0,0.0,0.0,0.0,0.0,0.0,0.0,0.0,0.0,0.0,0.0,0.0,0.0,0.0,0.0,0.0,0.0,0.0,0.0,0.0,0.0,0.0,0.0,0.0,0.0,0.0,0.0,0.0,0.0,0.0,0.0,0.0,0.0,0.0,0.0,0.0,0.0,0.0,0.0,0.0,0.0,0.0,0.0,0.0,0.0,0.0,0.0,0.0,0.0,0.0,0.0,0.0,0.0,0.0,0.0,0.0,0.0,0.0,0.0,0.0,0.0,0.0,0.0,0.0,0.0,0.0,0.0,0.0,0.0,0.0,0.0,0.0,0.0,0.0,0.0,0.0,0.0,0.0,0.0,0.0,0.0,0.0,0.0,0.0,0.0,0.0,0.0,0.0,0.0,0.0,0.0,0.0,0.0,0.0,0.0,0.0,0.0,0.0,0.0,0.0,0.0,0.0,0.0,0.0,0.0,0.0,0.0,0.0,0.0,0.0,0.0,0.0,0.0,0.0,0.0,0.0,0.0,0.0,0.0,0.0,0.0,0.0,0.0,0.0,0.0,0.0,0.0,0.0,0.0,0.0,0.0,0.0,0.0,0.0,0.0,0.0,0.0,0.0,0.0,0.0,0.0,0.0,0.0,0.0,0.0,0.0,0.0,0.0,0.0,0.0,0.0,0.0,0.0,0.0,0.0,0.0,0.0,0.0,0.0,0.0,0.0,0.0,0.0,0.0,0.0,0.0,0.0,0.0,0.0,0.0,0.0,0.0,0.0,0.0,0.0,0.0,0.0,0.0,0.0,0.0,0.0,0.0,0.0,0.0,0.0,0.0,0.0,0.0,0.0,0.0,0.0,0.0,0.0,0.0,0.0,0.0,0.0,0.0,0.0,0.0,0.0,0.0,0.0,0.0,0.0,0.0,0.0,0.0,0.0,0.0,0.0,0.0,0.0,0.0,0.0,0.0,0.0,0.0,0.0,0.0,0.0,0.0,0.0,0.0,0.0,0.0,0.0,0.0,0.0,0.0,0.0,0.0,0.0,0.0,0.0,0.0,0.0,0.0,0.0,0.0,0.0,0.0,0.0,0.0,0.0,0.0,0.0,0.0,0.0,0.0,0.0,0.0,0.0,0.0,0.0,0.0,0.0,0.0,0.0,0.0,0.0,0.0,0.0,0.0,0.0,0.0,0.0,0.0,0.0,0.0,0.0,0.0,0.0,0.0,0.0,0.0,0.0,0.0,0.0,0.0,0.0,0.0,0.0,0.0,0.0,0.0,0.0,0.0,0.0,0.0,0.0,0.0,0.0,0.0,0.0,0.0,0.0,0.0,0.0,0.0,0.0,0.0,0.0,0.0,0.0,0.0,0.0,0.0,0.0,0.0,0.0,0.0,0.0,0.0,0.0,0.0,0.0,0.0,0.0,0.0,0.0,0.0,0.0,0.0,0.0,0.0,0.0,0.0,0.0,0.0,0.0,0.0,0.0,0.0,0.0,0.0,0.0,0.0,0.0,0.0,0.0,0.0,0.0,0.0,0.0,0.0,0.0,0.0,0.0,0.0,0.0,0.0,0.0,0.0,0.0,0.0,0.0,0.0,0.0,0.0,0.0,0.0,0.0,0.0,0.0,0.0,0.0,0.0,0.0,0.0,0.0,0.0,0.0,0.0,0.0,0.0,0.0,0.0,0.0,0.0,0.0,0.0,0.0,0.0,0.0,0.0,0.0,0.0,0.0,0.0,0.0,0.0,0.0,0.0,0.0,0.0,0.0,0.0,0.0,0.0,0.0,0.0,0.0,0.0,0.0,0.0,0.0,0.0,0.0,0.0,0.0,0.0,0.0,0.0,0.0,0.0,0.0,0.0,0.0,0.0,0.0,0.0,0.0,0.0,0.0,0.0,0.0,0.0,0.0,0.0,0.0,0.0,0.0,0.0,0.0,0.0,0.0,0.0,0.0,0.0,0.0,0.0,0.0,0.0,0.0,0.0,0.0,0.0,0.0,0.0,0.0,0.0,0.0,0.0,0.0,0.0,0.0,0.0,0.0,0.0,0.0,0.0,0.0,0.0,0.0,0.0,0.0,0.0,0.0,0.0,0.0,0.0,0.0,0.0,0.0,0.0,0.0,0.0,0.0,0.0,0.0,0.0,0.0,0.0,0.0,0.0,0.0,0.0,0.0,0.0,0.0,0.0,0.0,0.0,0.0,0.0,0.0,0.0,0.0,0.0,0.0,0.0,0.0,0.0,0.0,0.0,0.0,0.0,0.0,0.0,0.0,0.0,0.0,0.0,0.0,0.0,0.0,0.0,0.0,0.0,0.0,0.0,0.0,0.0,0.0,0.0,0.0,0.0,0.0,0.0,0.0,0.0,0.0,0.0,0.0,0.0,0.0,0.0,0.0,0.0,0.0,0.0,0.0,0.0,0.0,0.0,0.0,0.0,0.0,0.0,0.0,0.0,0.0,0.0,0.0,0.0,0.0,0.0,0.0,0.0,0.0,0.0,0.0,0.0,0.0,0.0,0.0,0.0,0.0,0.0,0.0,0.0,0.0,0.0,0.0,0.0,0.0,0.0,0.0,0.0,0.0,0.0,0.0,0.0,0.0,0.0,0.0,0.0,0.0,0.0,0.0,0.0,0.0,0.0,0.0,0.0,0.0,0.0,0.0,0.0,0.0,0.0,0.0,0.0,0.0,0.0,0.0,0.0,0.0,0.0,0.0,0.0,0.0,0.0,0.0,0.0,0.0,0.0,0.0,0.0,0.0,0.0,0.0,0.0,0.0,0.0,0.0,0.0,0.0,0.0,0.0,0.0,0.0,0.0,0.0,0.0,0.0,0.0,0.0,0.0,0.0,0.0,0.0,0.0,0.0,0.0,0.0,0.0,0.0,0.0,0.0,0.0,0.0,0.0,0.0,0.0,0.0,0.0,0.0,0.0,0.0,0.0,0.0,0.0,0.0,0.0,0.0,0.0,0.0,0.0,0.0,0.0,0.0,0.0,0.0,0.0,0.0,0.0,0.0,0.0,0.0,0.0,0.0,0.0,0.0,0.0,0.0,0.0,0.0,0.0,0.0,0.0,0.0,0.0,0.0,0.0,0.0,0.0,0.0,0.0,0.0,0.0,0.0,0.0,0.0,0.0,0.0,0.0,0.0,0.0,0.0,0.0,0.0,0.0,0.0,0.0,0.0,0.0,0.0,0.0,0.0,0.0,0.0,0.0,0.0,0.0,0.0,0.0,0.0,0.0,0.0,0.0,0.0,0.0,0.0,0.0,0.0,0.0,0.0,0.0,0.0,0.0,0.0,0.0,0.0,0.0,0.0,0.0,0.0,0.0,0.0,0.0,0.0,0.0,0.0,0.0,0.0,0.0,0.0,0.0,0.0,0.0,0.0,0.0,0.0,0.0,0.0,0.0,0.0,0.0,0.0,0.0,0.0,0.0,0.0,0.0,0.0,0.0,0.0,0.0,0.0,0.0,0.0,0.0,0.0,0.0,0.0,0.0,0.0,0.0,0.0,0.0,0.0,0.0,0.0,0.0,0.0,0.0,0.0,0.0,0.0,0.0,0.0,0.0,0.0,0.0,0.0,0.0,0.0,0.0,0.0,0.0,0.0,0.0,0.0,0.0,0.0,0.0,0.0,0.0,0.0,0.0,0.0,0.0,0.0,0.0,0.0,0.0,0.0,0.0,0.0,0.0,0.0,0.0,0.0,0.0,0.0,0.0,0.0,0.0,0.0,0.0,0.0,0.0,0.0,0.0,0.0,0.0,0.0,0.0,0.0,0.0,0.0,0.0,0.0,0.0,0.0,0.0,0.0,0.0,0.0,0.0,0.0,0.0,0.0,0.0,0.0,0.0,0.0,0.0,0.0,0.0,0.0,0.0,0.0,0.0,0.0,0.0,0.0,0.0,0.0,0.0,0.0,0.0,0.0,0.0,0.0,0.0,0.0,0.0,0.0,0.0,0.0,0.0,0.0,0.0,0.0,0.0,0.0,0.0,0.0,0.0,0.0,0.0,0.0,0.0,0.0,0.0,0.0,0.0,0.0,0.0,0.0,0.0,0.0,0.0,0.0,0.0,0.0,0.0,0.0,0.0,0.0,0.0,0.0,0.0,0.0,0.0,0.0,0.0,0.0,0.0,0.0,0.0,0.0,0.0,0.0,0.0,0.0,0.0,0.0,0.0,0.0,0.0,0.0,0.0,0.0,0.0,0.0,0.0,0.0,0.0,0.0,0.0,0.0,0.0,0.0,0.0,0.0,0.0,0.0,0.0,0.0,0.0,0.0,0.0,0.0,0.0,0.0,0.0,0.0,0.0,0.0,0.0,0.0,0.0,0.0,0.0,0.0,0.0,0.0,0.0,0.0,0.0,0.0,0.0,0.0,0.0,0.0,0.0,0.0,0.0,0.0,0.0,0.0,0.0,0.0,0.0,0.0,0.0,0.0,0.0,0.0,0.0,0.0,0.0,0.0,0.0,0.0,0.0,0.0,0.0,0.0,0.0,0.0,0.0,0.0,0.0,0.0,0.0,0.0,0.0,0.0,0.0,0.0,0.0,0.0,0.0,0.0,0.0,0.0,0.0,0.0,0.0,0.0,0.0,0.0,0.0,0.0,0.0,0.0,0.0,0.0,0.0,0.0,0.0,0.0,0.0,0.0,0.0,0.0,0.0,0.0,0.0,0.0,0.0,0.0,0.0,0.0,0.0,0.0,0.0,0.0,0.0,0.0,0.0,0.0,0.0,0.0,0.0,0.0,0.0,0.0,0.0,0.0,0.0,0.0,0.0,0.0,0.0,0.0,0.0,0.0,0.0,0.0,0.0,0.0,0.0,0.0,0.0,0.0,0.0,0.0,0.0,0.0,0.0,0.0,0.0,0.0,0.0,0.0,0.0,0.0,0.0,0.0,0.0,0.0,0.0,0.0,0.0,0.0,0.0,0.0,0.0,0.0,0.0,0.0,0.0,0.0,0.0,0.0,0.0,0.0,0.0,0.0,0.0,0.0,0.0,0.0,0.0,0.0,0.0,0.0,0.0,0.0,0.0,0.0,0.0,0.0,0.0,0.0,0.0,0.0,0.0,0.0,0.0,0.0,0.0,0.0,0.0,0.0,0.0,0.0,0.0,0.0,0.0,0.0,0.0,0.0,0.0,0.0,0.0,0.0,0.0,0.0,0.0,0.0,0.0,0.0,0.0,0.0,0.0,0.0,0.0,0.0,0.0,0.0,0.0,0.0,0.0,0.0,0.0,0.0,0.0,0.0,0.0,0.0,0.0,0.0,0.0,0.0,0.0,0.0,0.0,0.0,0.0,0.0,0.0,0.0,0.0,0.0,0.0,0.0,0.0,0.0,0.0,0.0,0.0,0.0,0.0,0.0,0.0,0.0,0.0,0.0,0.0,0.0,0.0,0.0,0.0,0.0,0.0,0.0,0.0,0.0,0.0,0.0,0.0,0.0,0.0,0.0,0.0,0.0,0.0,0.0,0.0,0.0,0.0,0.0,0.0,0.0,0.0,0.0,0.0,0.0,0.0,0.0,0.0,0.0,0.0,0.0,0.0,0.0,0.0,0.0,0.0,0.0,0.0,0.0,0.0,0.0,0.0,0.0,0.0,0.0,0.0,0.0,0.0,0.0,0.0,0.0,0.0,0.0,0.0,0.0,0.0,0.0,0.0,0.0,0.0,0.0,-2.2893,0.0,0.0,0.0,0.0,0.0,0.0,0.0,0.0,0.0,0.0,0.0,0.0,0.0,0.0,0.0,0.0,0.0,0.0,0.0,0.0,0.0,0.0,0.0,0.0,0.0,0.0,0.0,0.0,0.0,0.0,0.0,0.0,0.0,0.0,0.0,0.0,0.0,0.0,0.0,0.0,0.0,0.0,0.0,0.0,0.0,0.0,0.0,0.0,0.0,0.0,0.0,0.0,0.0,0.0,0.0,0.0,0.0,0.0,0.0,0.0,0.0,0.0,0.0,0.0,0.0,0.0,0.0,0.0,0.0,0.0,0.0,0.0,0.0,0.0,0.0,0.0,0.0,0.0,0.0,0.0,0.0,0.0,0.0,0.0,0.0,0.0,0.0,0.0,0.0,0.0,0.0,0.0,0.0,0.0,0.0,0.0,0.0,0.0,0.0,0.0,0.0,0.0,0.0,0.0,0.0,0.0,0.0,0.0,0.0,0.0,0.0,0.0,0.0,0.0,0.0,0.0,-2.419,0.0,0.0,0.0,0.0,0.0,0.0,0.0,0.0,0.0,0.0,0.0,0.0,0.0,0.0,0.0,0.0,0.0,0.0,0.0,0.0,0.0,0.0,0.0,0.0,0.0,0.0,0.0,0.0,0.0,0.0,0.0,0.0,0.0,0.0,0.0,0.0,0.0,0.0,0.0,0.0,0.0,0.0,0.0,0.0,0.0,0.0,0.0,0.0,0.0,0.0,0.0,0.0,0.0,0.0,0.0,0.0,0.0,0.0,0.0,0.0,0.0,0.0,0.0,0.0,0.0,0.0,0.0,0.0,0.0,0.0,0.0,0.0,0.0,0.0,0.0,0.0,0.0,0.0,0.0,0.0,0.0,0.0,0.0,0.0,0.0,0.0,0.0,0.0,0.0,0.0,0.0,0.0,0.0,0.0,0.0,0.0,0.0,0.0,0.0,0.0,0.0,0.0,0.0,0.0,0.0,0.0,0.0,0.0,-2.8554,-2.9201,-2.9131,-2.8177,-2.713,-2.608,-2.4138,-2.4258,-2.5795,0.0,0.0,0.0,0.0,0.0,0.0,0.0,0.0,0.0,0.0,0.0,0.0,0.0,0.0,0.0,0.0,0.0,0.0,0.0,0.0,0.0,0.0,0.0,0.0,0.0,0.0,0.0,0.0,0.0,0.0,0.0,0.0,0.0,0.0,0.0,0.0,0.0,0.0,0.0,0.0,0.0,0.0,0.0,0.0,0.0,0.0,0.0,0.0,0.0,0.0,0.0,0.0,0.0,0.0,0.0,0.0,0.0,0.0,0.0,0.0,0.0,0.0,0.0,0.0,0.0,0.0,0.0,0.0,0.0,0.0,0.0,0.0,0.0,0.0,0.0,0.0,0.0,0.0,0.0,0.0,0.0,0.0,0.0,0.0,0.0,0.0,0.0,-2.322,-2.4633,0.0,0.0,0.0,0.0,0.0,0.0,0.0,0.0,0.0,0.0,0.0,0.0,0.0,-2.7754,-2.8581,-3.0814,-3.177,-3.1423,-3.3026,-3.3783,-3.377,-3.2686,-3.211,-3.214,-3.5618,0.0,-2.3828,-2.7407,0.0,0.0,0.0,0.0,0.0,0.0,0.0,0.0,0.0,0.0,0.0,0.0,0.0,0.0,0.0,0.0,0.0,0.0,0.0,0.0,0.0,0.0,0.0,0.0,0.0,0.0,0.0,0.0,0.0,0.0,0.0,0.0,0.0,0.0,0.0,0.0,0.0,0.0,0.0,0.0,0.0,0.0,0.0,0.0,0.0,0.0,0.0,0.0,0.0,0.0,0.0,0.0,0.0,0.0,0.0,0.0,0.0,0.0,0.0,0.0,0.0,0.0,0.0,0.0,0.0,0.0,0.0,0.0,0.0,0.0,0.0,0.0,0.0,0.0,0.0,0.0,0.0,0.0,0.0,0.0,0.0,0.0,0.0,0.0,0.0,-2.2192,-2.4712,-2.4949,-2.538,-2.478,0.0,0.0,0.0,0.0,0.0,0.0,0.0,0.0,0.0,-3.0513,-3.2019,-3.3224,-3.4211,-3.5415,-3.6394,-3.7155,-3.7505,-3.7622,-3.7609,-3.6628,-3.6175,-3.6319,-3.7989,-3.5621,-3.0652,-3.1402,-2.9614,-2.6146,0.0,0.0,0.0,0.0,-1.8951,-2.0211,0.0,0.0,0.0,0.0,0.0,0.0,0.0,0.0,0.0,0.0,0.0,0.0,0.0,0.0,0.0,0.0,0.0,0.0,0.0,0.0,0.0,0.0,0.0,0.0,0.0,0.0,0.0,0.0,0.0,0.0,0.0,0.0,0.0,0.0,0.0,0.0,0.0,0.0,0.0,0.0,0.0,0.0,0.0,0.0,0.0,0.0,0.0,0.0,0.0,0.0,0.0,0.0,0.0,0.0,0.0,0.0,0.0,0.0,0.0,0.0,0.0,0.0,0.0,0.0,0.0,0.0,0.0,0.0,0.0,0.0,0.0,0.0,0.0,0.0,0.0,0.0,0.0,-2.4323,-2.6759,-2.6015,-2.8275,-2.8417,0.0,0.0,0.0,0.0,0.0,0.0,-2.9554,-3.1607,-3.3502,-3.522,-3.7119,-3.8536,-3.9513,-3.9903,-4.0658,-4.164,-4.1084,-4.0843,-4.083,-3.9944,-3.9485,-3.953,-3.9097,-3.7923,-3.6306,-3.4621,-3.1682,-2.8138,-2.7583,-2.5269,-2.2332,-2.2341,-2.2745,-2.3941,0.0,0.0,0.0,0.0,0.0,0.0,0.0,0.0,0.0,0.0,0.0,0.0,0.0,0.0,0.0,0.0,0.0,0.0,0.0,0.0,0.0,0.0,0.0,0.0,0.0,0.0,0.0,0.0,0.0,0.0,0.0,0.0,0.0,0.0,0.0,0.0,0.0,0.0,0.0,0.0,0.0,0.0,0.0,0.0,0.0,0.0,0.0,0.0,0.0,0.0,0.0,0.0,0.0,0.0,0.0,0.0,0.0,0.0,0.0,0.0,0.0,0.0,0.0,0.0,0.0,0.0,0.0,0.0,0.0,0.0,0.0,0.0,0.0,0.0,0.0,0.0,0.0,0.0,0.0,-2.9922,-3.5044,0.0,0.0,0.0,0.0,-2.9751,-3.0914,-3.3197,-3.6656,-3.6985,-3.8826,-4.2671,-4.3474,-4.398,-4.4107,-4.4752,-4.4472,-4.3365,-4.3298,-4.3312,-4.3298,-4.2399,-4.2032,-4.2032,-4.1483,-3.9429,-3.6439,-3.6302,-3.4826,-3.2587,-3.042,-2.952,-2.932,-2.9283,-3.0632,-3.2482,0.0,0.0,0.0,0.0,0.0,0.0,0.0,0.0,0.0,0.0,0.0,0.0,0.0,0.0,0.0,0.0,0.0,0.0,0.0,0.0,0.0,0.0,0.0,0.0,0.0,0.0,0.0,0.0,0.0,0.0,0.0,0.0,0.0,0.0,0.0,0.0,0.0,0.0,0.0,0.0,0.0,0.0,0.0,0.0,0.0,0.0,0.0,0.0,0.0,0.0,0.0,0.0,0.0,0.0,0.0,0.0,0.0,0.0,0.0,0.0,0.0,0.0,0.0,0.0,0.0,0.0,0.0,0.0,0.0,0.0,0.0,0.0,0.0,0.0,0.0,0.0,0.0,0.0,0.0,-3.4979,-3.8184,0.0,-3.5852,-3.4991,-3.486,-3.5217,-3.701,-3.8968,-4.11,-4.2028,-4.3329,-4.52,-4.5903,-4.6271,-4.6284,-4.5663,-4.5584,-4.5973,-4.5115,-4.4734,-4.4734,-4.4379,-4.3622,-4.2367,-4.1865,-4.089,-3.9535,-3.7326,-3.5954,-3.4968,-3.2751,-3.1959,-3.188,-3.1935,-3.2404,-3.3086,0.0,0.0,0.0,0.0,0.0,0.0,0.0,0.0,0.0,0.0,0.0,0.0,0.0,0.0,0.0,0.0,0.0,0.0,0.0,0.0,0.0,0.0,0.0,0.0,0.0,0.0,0.0,0.0,0.0,0.0,0.0,0.0,0.0,0.0,0.0,0.0,0.0,0.0,0.0,0.0,0.0,0.0,-1.3201,0.0,0.0,0.0,0.0,0.0,0.0,0.0,0.0,0.0,0.0,0.0,0.0,0.0,0.0,0.0,0.0,0.0,0.0,0.0,0.0,0.0,0.0,0.0,0.0,0.0,0.0,0.0,0.0,0.0,0.0,0.0,0.0,0.0,0.0,0.0,-3.7229,-3.8497,-4.176,-4.2989,-4.0467,-3.9929,-4.0034,-4.0685,-4.2153,-4.3524,-4.4616,-4.5499,-4.6187,-4.6636,-4.707,-4.7309,-4.7309,-4.6447,-4.6447,-4.7309,-4.6447,-4.6062,-4.6048,-4.5843,-4.4714,-4.3055,-4.2732,-4.2587,-4.2378,-3.9271,-3.7365,-3.6224,-3.4754,-3.4224,-3.4144,-3.3368,-3.3116,-3.3094,0.0,0.0,0.0,0.0,0.0,0.0,0.0,0.0,0.0,0.0,0.0,0.0,0.0,0.0,0.0,0.0,0.0,0.0,0.0,0.0,0.0,0.0,0.0,0.0,0.0,0.0,0.0,0.0,0.0,0.0,0.0,0.0,0.0,0.0,0.0,0.0,0.0,0.0,0.0,0.0,0.0,0.0,-1.3545,0.0,0.0,0.0,0.0,0.0,0.0,0.0,0.0,0.0,0.0,0.0,0.0,0.0,0.0,0.0,0.0,0.0,0.0,0.0,0.0,0.0,0.0,0.0,0.0,0.0,0.0,0.0,0.0,0.0,0.0,0.0,0.0,0.0,-2.9431,-3.6282,-4.1153,-4.0544,-4.621,-4.8438,-4.4081,-4.5837,-4.6919,-4.6034,-4.6234,-4.6636,-4.7279,-4.7249,-4.7219,-4.7219,-4.7219,-4.7219,-4.7219,-4.7279,-4.7309,-4.7309,-4.7309,-4.7309,-4.7279,-4.6651,-4.5618,-4.4347,-4.4347,-4.4436,-4.4496,-4.2063,-3.9311,-3.6569,-3.6443,-3.6431,-3.6165,-3.3922,-3.3109,-3.3066,0.0,0.0,0.0,0.0,0.0,0.0,0.0,0.0,0.0,0.0,0.0,0.0,0.0,0.0,0.0,0.0,0.0,0.0,0.0,0.0,0.0,0.0,0.0,0.0,0.0,0.0,0.0,0.0,0.0,0.0,0.0,0.0,0.0,0.0,0.0,0.0,0.0,0.0,0.0,0.0,0.0,0.0,-1.2332,0.0,0.0,0.0,0.0,0.0,0.0,0.0,0.0,0.0,0.0,0.0,0.0,0.0,0.0,0.0,0.0,0.0,0.0,0.0,0.0,0.0,0.0,0.0,0.0,0.0,0.0,0.0,0.0,0.0,0.0,0.0,0.0,-3.6671,-3.7009,-4.1796,-4.5974,-4.7936,-5.0092,-5.0932,-4.97,-4.8791,-4.8228,-4.7988,-4.7364,-4.7115,-4.7294,-4.5933,-4.514,-4.514,-4.514,-4.514,-4.514,-4.6576,-4.7309,-4.7309,-4.7309,-4.7309,-4.7294,-4.7115,-4.6292,-4.5035,-4.5035,-4.4504,-4.3617,-4.2977,-4.2165,-4.1075,-3.7701,-3.6417,-3.6118,-3.3933,-3.3132,-3.3066,0.0,0.0,0.0,0.0,0.0,0.0,0.0,0.0,0.0,0.0,0.0,0.0,0.0,0.0,0.0,0.0,0.0,0.0,0.0,0.0,0.0,0.0,0.0,0.0,0.0,0.0,0.0,0.0,0.0,0.0,0.0,0.0,0.0,0.0,0.0,0.0,0.0,0.0,0.0,0.0,0.0,0.0,-1.192,-1.1468,-1.2335,-1.3648,-1.2947,-1.3332,-1.4198,-1.3975,0.0,0.0,0.0,0.0,0.0,0.0,0.0,0.0,0.0,0.0,0.0,0.0,0.0,0.0,0.0,0.0,0.0,0.0,0.0,0.0,0.0,0.0,0.0,0.0,-3.7043,-4.2117,-4.4434,-4.7005,-4.939,-5.1437,-5.2201,-5.2557,-5.2557,-5.108,-5.0071,-5.0071,-4.8759,-4.7919,-4.7919,-4.6425,-4.5185,-4.4347,-4.5125,-4.5155,-4.4332,-4.6292,-4.7309,-4.7309,-4.7309,-4.7309,-4.7294,-4.7025,-4.6022,0.0,-4.4766,-4.4005,-4.2569,-4.3116,-4.3307,0.0,0.0,0.0,0.0,0.0,-3.1969,-3.0639,0.0,0.0,0.0,0.0,0.0,0.0,0.0,0.0,0.0,0.0,0.0,0.0,0.0,0.0,0.0,0.0,0.0,0.0,0.0,0.0,0.0,0.0,0.0,0.0,0.0,0.0,0.0,0.0,0.0,0.0,0.0,0.0,0.0,0.0,0.0,0.0,0.0,0.0,0.0,0.0,0.0,0.0,-1.1828,-1.1667,-1.2659,-1.4065,-1.3222,-1.3777,-1.4724,-1.3869,0.0,0.0,0.0,0.0,0.0,0.0,0.0,0.0,0.0,0.0,0.0,0.0,0.0,0.0,0.0,0.0,0.0,0.0,0.0,0.0,0.0,0.0,0.0,0.0,-4.1901,-4.6683,-5.0744,-5.142,-5.1708,-5.2367,-5.3145,-5.3602,-5.3518,-5.269,-5.2086,-5.1921,-5.0135,-4.9066,-4.8988,0.0,0.0,0.0,0.0,-4.6112,-4.4332,-4.6292,-4.7309,-4.7309,-4.7309,-4.7264,-4.7174,-4.6591,-4.5289,-4.3524,-4.4077,-4.3284,-4.1683,-4.2851,-4.3247,-4.3055,-4.2899,-4.0363,-3.6428,-3.4035,-3.0601,-2.7793,0.0,0.0,0.0,0.0,0.0,0.0,0.0,0.0,0.0,0.0,0.0,0.0,0.0,0.0,0.0,0.0,0.0,0.0,0.0,0.0,0.0,0.0,0.0,0.0,0.0,0.0,0.0,0.0,0.0,0.0,0.0,0.0,0.0,0.0,0.0,0.0,0.0,0.0,0.0,0.0,0.0,0.0,-1.1057,-1.1396,-1.2091,-1.2712,-1.1684,-1.2436,-1.3752,-1.3041,-1.3646,-1.4821,-1.5418,0.0,0.0,0.0,0.0,0.0,0.0,0.0,0.0,0.0,0.0,0.0,0.0,0.0,0.0,0.0,0.0,0.0,0.0,0.0,0.0,-4.1426,-4.658,-5.0454,-5.1922,-5.2655,-5.3112,-5.3264,-5.3923,-5.4143,-5.3568,-5.3623,-5.3173,-5.2004,-5.1371,-5.0754,-5.0119,-4.759,0.0,-4.5588,-4.5132,-4.4706,-4.4317,-4.6292,-4.7309,-4.7309,0.0,0.0,-4.6516,-4.6381,-4.5514,-4.4137,-4.4257,-4.3793,-4.297,-4.3225,-4.2671,-4.1654,-4.0549,-3.9628,-3.8387,-3.4513,-3.2516,-3.1938,0.0,0.0,0.0,0.0,0.0,0.0,0.0,0.0,0.0,0.0,0.0,0.0,0.0,0.0,0.0,0.0,0.0,0.0,0.0,0.0,0.0,0.0,0.0,0.0,0.0,0.0,0.0,0.0,0.0,0.0,0.0,0.0,0.0,0.0,0.0,0.0,0.0,0.0,0.0,0.0,0.0,0.0,-1.0854,-1.1226,-1.175,-1.2098,-1.1511,-1.2244,-1.3465,-1.2709,-1.3221,-1.4216,-1.4521,-1.4898,-1.5229,0.0,0.0,0.0,0.0,0.0,0.0,0.0,0.0,0.0,0.0,0.0,0.0,0.0,0.0,-3.0351,0.0,0.0,-4.1429,-4.5544,-4.9069,-5.1827,-5.3232,-5.3871,-5.4066,-5.3568,-5.3822,-5.3907,-5.3551,-5.3696,-5.3787,-5.3813,-5.2966,-5.2307,-5.1965,-4.9521,-4.7446,-4.5972,-4.6321,-4.5834,-4.4317,-4.6292,-4.7309,-4.7309,-4.698,-4.6636,-4.6307,-4.5963,-4.5259,-4.4317,-4.4317,-4.3943,-4.3329,-4.3322,-4.2967,-4.2123,-4.014,-3.9416,-3.9168,-3.7035,-3.4884,-3.3086,0.0,0.0,0.0,0.0,0.0,0.0,0.0,0.0,0.0,0.0,0.0,0.0,0.0,0.0,0.0,0.0,0.0,0.0,0.0,0.0,0.0,0.0,0.0,0.0,0.0,0.0,0.0,0.0,0.0,0.0,0.0,0.0,0.0,0.0,0.0,0.0,0.0,0.0,0.0,0.0,0.0,0.0,-1.0846,-1.1091,-1.1643,-1.2189,-1.1981,-1.2556,-1.3307,-1.2622,-1.2837,-1.3408,-1.3728,-1.4155,-1.4639,-1.4928,-1.5945,0.0,0.0,0.0,0.0,0.0,0.0,0.0,0.0,0.0,-2.7385,-2.9194,-3.2231,-3.5448,-3.836,-4.169,-4.5346,-4.9447,-5.1246,-5.2787,-5.4539,-5.4948,-5.4678,-5.3883,-5.3652,-5.3484,-5.3518,-5.3771,-5.4313,-5.5195,-5.4373,-5.3695,-5.3528,-5.172,-4.9537,-4.7174,-4.8197,-4.7645,-4.5197,-4.6451,-4.7115,-4.7115,-4.6441,-4.6052,-4.5918,-4.5364,-4.4751,-4.4122,-4.3988,-4.3629,-4.3135,-4.3268,-4.3335,-4.3031,-4.0382,-3.9416,-3.9429,-3.9372,-3.7282,-3.4348,0.0,0.0,0.0,0.0,0.0,0.0,0.0,0.0,0.0,0.0,0.0,0.0,0.0,0.0,0.0,0.0,0.0,0.0,0.0,0.0,0.0,0.0,0.0,0.0,0.0,0.0,0.0,0.0,0.0,0.0,0.0,0.0,0.0,0.0,0.0,0.0,0.0,0.0,0.0,0.0,0.0,0.0,-1.0821,-1.0863,-1.1884,-1.3252,-1.2905,-1.2825,-1.2958,-1.2841,-1.2883,-1.3185,-1.4502,-1.5039,-1.5146,-1.538,0.0,-1.7212,-1.5881,-1.6256,-1.8014,-2.2074,-2.362,-2.5038,0.0,0.0,-3.547,-3.5723,-3.9709,-4.3872,-4.6204,-4.8524,-5.094,-5.3531,-5.4651,-5.5275,-5.5525,-5.5217,-5.4973,-5.4878,-5.4034,-5.3466,-5.3518,-5.4685,-5.4972,-5.3839,-5.4363,-5.4362,-5.3517,-5.2362,-5.1589,-5.1254,-4.9631,-4.8635,-4.8337,-4.7068,-4.6426,-4.6426,-4.5738,-4.511,-4.4541,-4.4466,-4.4062,-4.3404,-4.2836,-4.2536,-4.2569,-4.3087,-4.329,-4.3041,-4.0421,-3.9369,-3.9429,-3.9415,-3.9142,-3.8707,0.0,0.0,0.0,0.0,0.0,0.0,0.0,0.0,0.0,0.0,0.0,0.0,0.0,0.0,0.0,0.0,0.0,0.0,0.0,0.0,0.0,0.0,0.0,0.0,0.0,0.0,0.0,0.0,0.0,0.0,0.0,0.0,0.0,0.0,0.0,0.0,0.0,0.0,0.0,0.0,0.0,0.0,-1.134,-1.1123,-1.1597,-1.24,-1.2433,-1.2544,0.0,0.0,-1.2958,-1.3683,-1.4497,-1.4587,-1.4547,-1.5661,-1.6608,0.0,-1.8852,-2.0401,0.0,0.0,-2.7994,-3.0389,-3.2765,-3.6034,-3.8837,-3.9748,-4.3693,-4.7369,-4.8745,-5.0509,-5.2506,0.0,-5.5098,-5.5382,-5.6259,-5.6079,-5.5387,-5.4266,-5.2226,-5.156,-5.3301,-5.4075,-5.4144,-5.3579,-5.3855,-5.389,-5.3518,-5.3093,-5.2557,-5.1921,-5.1064,-4.9864,-4.8236,-4.7502,-4.672,-4.5723,-4.505,-4.4586,-4.4302,-4.3928,-4.3599,-4.3299,-4.2641,-4.1978,-4.1403,-4.1697,-4.2365,-4.3039,-4.0427,-3.9417,-3.9397,-3.9402,-3.9372,-3.9387,0.0,0.0,0.0,0.0,0.0,0.0,0.0,0.0,0.0,0.0,0.0,0.0,0.0,0.0,0.0,0.0,0.0,0.0,0.0,0.0,0.0,0.0,0.0,0.0,0.0,0.0,0.0,0.0,0.0,0.0,0.0,0.0,0.0,0.0,0.0,0.0,0.0,0.0,0.0,0.0,0.0,0.0,-1.1607,-1.1304,-1.1261,-1.1439,-1.1773,-1.1993,0.0,0.0,-1.3113,-1.3837,-1.4611,-1.459,-1.4601,-1.6236,-1.7245,-1.8377,-2.1214,0.0,0.0,-2.8583,-3.1598,-3.4442,-3.6616,-3.9049,-4.125,-4.273,-4.5855,-4.8663,-4.9613,-5.0886,-5.2662,-5.52,-5.5186,-5.5432,-5.6998,-5.6722,-5.6019,-5.4861,-5.0614,-4.8311,-4.9666,-5.0524,-5.1763,-5.3358,-5.3482,-5.3501,-5.3501,-5.3501,-5.311,-5.24,-5.2065,-5.0969,-4.8937,-4.8247,-4.7355,-4.6112,-4.497,-4.4418,-4.4403,-4.3618,-4.3329,-4.3284,-4.2462,-4.1665,-4.0882,-4.0664,-4.125,-4.2099,-4.0529,-3.9738,-3.9376,-3.9424,-3.9394,-3.9406,0.0,0.0,0.0,0.0,0.0,0.0,0.0,0.0,0.0,0.0,0.0,0.0,0.0,0.0,0.0,0.0,0.0,0.0,0.0,0.0,0.0,0.0,0.0,0.0,0.0,0.0,0.0,0.0,0.0,0.0,0.0,0.0,0.0,0.0,0.0,0.0,0.0,0.0,0.0,0.0,0.0,0.0,-1.1201,-1.1146,-1.1042,-1.0976,-1.1279,0.0,0.0,0.0,-1.3322,-1.3247,-1.5168,-1.5698,0.0,-1.7425,-1.8582,0.0,0.0,0.0,-2.5185,-3.0794,-3.3339,-3.5596,-3.9887,-4.2042,-4.3589,-4.494,-4.6382,-4.789,-4.9504,-5.0375,-5.1903,-5.5078,-5.5592,-5.6143,-5.7712,-5.7037,-5.6762,-5.7747,-5.0083,-4.3597,0.0,-4.3174,-4.7255,-5.3045,-5.3501,-5.3501,-5.3501,-5.3501,-5.3501,-5.3433,-5.247,-5.1832,-5.1816,-4.945,-4.8243,-4.8195,-4.59,-4.4768,-4.4768,-4.3786,-4.3329,-4.3269,-4.1968,-4.1399,-4.1324,-4.0681,-4.0053,-3.9646,-4.0876,-4.0512,-3.9385,-3.9421,-3.9412,-3.9385,0.0,0.0,0.0,0.0,0.0,0.0,0.0,0.0,0.0,0.0,0.0,0.0,0.0,0.0,0.0,0.0,0.0,0.0,0.0,0.0,0.0,0.0,0.0,0.0,0.0,0.0,0.0,0.0,0.0,0.0,0.0,0.0,0.0,0.0,0.0,0.0,0.0,0.0,0.0,0.0,0.0,0.0,-1.1636,-1.1443,-1.155,-1.1853,0.0,0.0,0.0,0.0,-1.4541,-1.4971,-1.5871,0.0,0.0,-1.6987,-1.9588,-2.2219,-2.4117,0.0,-3.0963,-3.4255,-3.6973,-3.942,-4.178,-4.3864,-4.5257,-4.5186,-4.5381,-4.5605,-4.5623,-4.5791,-4.7003,-5.0233,-5.1224,-5.2858,-5.6428,-5.5385,-5.5194,-5.7711,-5.3435,0.0,0.0,0.0,0.0,-5.3352,-5.3505,-5.3499,-5.3501,-5.3501,-5.3501,-5.3501,-5.3179,-5.2394,-5.1251,-5.0457,-4.9238,-4.7581,-4.5739,-4.4812,-4.4737,-4.3771,-4.309,-4.2641,-4.1758,-4.113,-4.0681,-4.0023,-3.9233,-3.8575,-3.9043,-3.8202,-3.6823,-3.6828,-3.6783,-3.6805,0.0,0.0,0.0,0.0,0.0,0.0,0.0,0.0,0.0,0.0,0.0,0.0,0.0,0.0,0.0,0.0,0.0,0.0,0.0,0.0,0.0,0.0,0.0,0.0,0.0,0.0,0.0,0.0,0.0,0.0,0.0,0.0,0.0,0.0,0.0,0.0,0.0,0.0,0.0,0.0,0.0,0.0,-1.1074,-1.1551,-1.2031,0.0,0.0,0.0,0.0,0.0,0.0,0.0,-1.6553,-1.6167,-1.6054,-1.8278,-2.1322,-2.4597,-2.7566,-3.1445,-3.5328,-3.7897,-4.0341,-4.2509,-4.3878,-4.5048,-4.5793,-4.5446,-4.4784,-4.3938,-4.2837,-4.2396,-4.3259,-4.6489,-4.7719,-4.9921,-5.4587,-5.4087,-5.3549,-5.4456,-5.3754,0.0,0.0,0.0,0.0,-5.0486,-5.1617,-5.2365,-5.2283,-5.2536,-5.2942,-5.3484,-5.3501,-5.2943,-5.1824,-5.1275,-4.9783,-4.7427,-4.6358,-4.5634,-4.5285,-4.4615,-4.3563,-4.2196,-4.2014,-4.1066,-3.9664,-3.9484,-3.9038,-3.8531,-3.8038,-3.6912,-3.5527,-3.5496,-3.5495,-3.5525,0.0,0.0,0.0,0.0,0.0,0.0,0.0,0.0,0.0,0.0,0.0,0.0,0.0,0.0,0.0,0.0,0.0,0.0,0.0,0.0,0.0,0.0,0.0,0.0,0.0,0.0,0.0,0.0,0.0,0.0,0.0,0.0,0.0,0.0,0.0,0.0,0.0,0.0,0.0,0.0,0.0,0.0,-0.9863,-1.153,0.0,0.0,0.0,0.0,0.0,0.0,0.0,0.0,0.0,-1.8053,-1.9103,-2.1255,-2.3901,-2.7093,-3.156,-3.4979,-3.8139,-4.1481,-4.3318,-4.4626,-4.5995,-4.568,-4.5225,-4.5498,-4.425,-4.2543,0.0,0.0,-4.0506,-4.3901,-4.504,-4.7314,-5.2383,-5.298,-5.1925,0.0,0.0,0.0,0.0,0.0,0.0,-4.5382,0.0,-5.0281,-5.027,-5.0947,-5.1978,-5.3399,-5.345,-5.345,-5.345,-5.1961,-5.0054,-4.7721,-4.7605,-4.7155,-4.6244,-4.6212,-4.4605,-4.1945,-4.2552,-4.1152,-3.8552,-3.9212,-3.9394,-3.923,-3.7943,-3.6615,-3.5483,-3.5502,-3.5504,-3.5504,0.0,0.0,0.0,0.0,0.0,0.0,0.0,0.0,0.0,0.0,0.0,0.0,0.0,0.0,0.0,0.0,0.0,0.0,0.0,0.0,0.0,0.0,0.0,0.0,0.0,0.0,0.0,0.0,0.0,0.0,0.0,0.0,0.0,0.0,0.0,0.0,0.0,0.0,0.0,0.0,0.0,0.0,-1.2251,0.0,0.0,0.0,0.0,0.0,0.0,0.0,0.0,0.0,0.0,-2.2123,-2.3822,-2.4306,-2.8059,-3.2419,-3.4209,-3.8011,-4.1948,-4.3888,-4.506,-4.5815,-4.595,-4.5826,-4.4821,-4.1701,-3.9022,-3.63,0.0,0.0,0.0,-4.0194,-4.0787,0.0,-5.0368,-5.0356,0.0,-5.5061,0.0,-5.6466,-5.5783,-5.6342,0.0,0.0,-4.8438,-4.9174,-5.2486,-5.2807,-5.2824,-5.2604,-5.2604,-5.2604,-5.2604,-5.1674,-5.0598,-4.9446,-4.8199,-4.744,-4.7206,-4.5922,-4.4708,-4.3484,-4.3135,-4.1852,-4.0117,-4.0301,-3.9686,-3.8586,-3.8097,-3.6948,-3.5503,-3.5493,-3.5504,-3.5504,0.0,0.0,0.0,0.0,0.0,0.0,0.0,0.0,0.0,0.0,0.0,0.0,0.0,0.0,0.0,0.0,0.0,0.0,0.0,0.0,0.0,0.0,0.0,0.0,0.0,0.0,0.0,0.0,0.0,0.0,0.0,0.0,0.0,0.0,0.0,0.0,0.0,0.0,0.0,0.0,0.0,0.0,0.0,0.0,0.0,0.0,0.0,0.0,0.0,0.0,0.0,-2.3385,-2.4825,-2.6221,-2.7754,-2.9806,0.0,-3.6211,-3.8186,-4.1546,-4.4707,-4.5828,-4.6364,-4.6148,-4.4216,-4.3259,-4.1445,-3.6839,-3.4604,0.0,0.0,0.0,0.0,0.0,0.0,0.0,-4.9695,-4.9359,-5.0714,0.0,-5.7986,0.0,-5.7986,-5.7987,-5.6758,0.0,-5.0876,-5.0084,-5.1911,-5.2012,-5.2097,-5.23,-5.1995,-5.1674,-5.1336,-5.093,-5.0355,-4.961,-4.8634,-4.8058,-4.7678,-4.6781,-4.5276,-4.336,0.0,-4.2414,-4.0399,-4.0629,-4.0031,-3.8956,-3.8766,-3.7707,-3.6261,-3.5729,-3.5504,-3.5504,0.0,0.0,0.0,0.0,0.0,0.0,0.0,0.0,0.0,0.0,0.0,0.0,0.0,0.0,0.0,0.0,0.0,0.0,0.0,0.0,0.0,0.0,0.0,0.0,0.0,0.0,0.0,0.0,0.0,0.0,0.0,0.0,0.0,0.0,0.0,0.0,0.0,0.0,0.0,0.0,0.0,0.0,0.0,0.0,0.0,0.0,0.0,0.0,0.0,0.0,-2.4466,-2.5521,-2.9152,-3.0655,-3.1897,-3.5993,-3.789,-3.9404,-4.2552,-4.5003,-4.6844,-4.7583,-4.7521,-4.625,-4.2323,-3.9937,-3.7147,-3.2203,0.0,-3.0081,-2.7834,0.0,-3.1568,-3.5771,0.0,-4.2301,-4.9658,-4.8937,-5.0057,-5.6578,-5.6996,-5.7066,-5.7905,-5.7722,-5.7216,-5.6356,-5.4164,-5.2198,-5.064,-5.0435,-5.0879,-5.1978,-5.1403,-5.071,-4.9949,-5.0033,-4.9729,-4.9001,-4.9001,-4.8612,-4.7919,-4.7817,-4.595,-4.29,0.0,0.0,-4.0482,-4.0795,-4.0524,-3.9831,-3.9539,-3.8718,-3.7476,-3.6024,-3.5504,-3.5504,0.0,0.0,0.0,0.0,0.0,0.0,0.0,0.0,0.0,0.0,0.1372,0.1687,0.0,0.0,0.0,0.0,0.0,0.0,0.0,0.0,0.0,0.0,0.0,0.0,0.0,0.0,0.0,0.0,0.0,0.0,0.0,0.0,0.0,0.0,0.0,0.0,0.0,0.0,0.0,0.0,0.0,0.0,0.0,0.0,0.0,0.0,0.0,0.0,0.0,0.0,-2.693,-2.9627,-3.2878,-3.6211,-3.8984,-3.9152,-4.1205,-4.3707,-4.504,-4.688,-4.8653,-4.9507,-4.8901,-4.7223,-4.3846,-4.0286,0.0,0.0,0.0,-2.7024,-2.5651,-2.8031,0.0,-3.6505,0.0,0.0,0.0,0.0,-4.6767,0.0,0.0,0.0,0.0,0.0,0.0,0.0,0.0,-5.449,-5.2978,-5.2264,-5.1471,-5.0507,-5.0355,-4.9932,-4.9204,-4.9796,-4.9729,-4.9001,-4.9001,-4.8612,-4.7902,-4.7276,-4.6304,-4.5091,-4.4737,0.0,-4.2731,-4.2537,-4.1784,-4.0785,-3.9765,-3.9277,-3.8777,-3.641,-3.5504,-3.5504,0.0,0.0,0.0,0.0,0.0,0.0,0.0,0.0,0.0368,0.028,0.0622,0.0882,0.0925,0.0813,0.0,0.0,0.0,0.0,0.0,0.0,0.0,0.0,0.0,0.0,0.0,0.0,0.0,0.0,0.0,0.0,0.0,0.0,0.0,0.0,0.0,0.0,0.0,0.0,0.0,0.0,0.0,0.0,0.0,0.0,0.0,0.0,0.0,0.0,0.0,0.0,-2.5118,-2.8184,-3.4485,-3.8899,-4.1573,-4.0775,-4.3393,-4.6445,-4.5965,-4.8125,-5.0459,-5.0247,-4.8813,-4.583,-3.9816,0.0,0.0,0.0,0.0,-2.34,-2.3302,0.0,0.0,0.0,0.0,0.0,0.0,0.0,0.0,0.0,0.0,0.0,0.0,0.0,0.0,0.0,0.0,-5.3494,-5.2899,-5.1765,-5.0659,-4.956,-4.9526,-4.9357,-4.9001,-4.9357,-4.9357,-4.9001,-4.9001,-4.8409,-4.7327,-4.6955,-4.6177,-4.5094,-4.4739,0.0,-4.3912,-4.3123,-4.2857,-4.2692,-4.0331,-3.8575,-3.7233,-3.5946,-3.5507,-3.5473,0.0,0.0,0.0,0.0,0.0,0.0,0.0,0.0396,0.0144,-0.0361,-0.0273,-0.0177,-0.023,-0.0123,-0.011,0.0,0.0,0.0,0.0,0.0,0.0,0.0,0.0,0.0,0.0,0.0,0.0,0.0,0.0,0.0,0.0,0.0,0.0,0.0,0.0,0.0,0.0,0.0,0.0,0.0,0.0,0.0,0.0,0.0,0.0,0.0,0.0,0.0,0.0,0.0,-2.245,-2.5138,-3.3076,-3.7955,-4.0731,-4.0635,-4.4002,-4.7593,-4.6999,-4.9568,-5.2122,-5.1005,-4.8802,-4.4789,-3.6582,-3.2435,0.0,0.0,-2.0317,-2.0886,-2.2079,0.0,0.0,0.0,0.0,0.0,0.0,0.0,0.0,0.0,0.0,0.0,0.0,0.0,0.0,0.0,0.0,0.0,-5.2067,-5.0806,-4.9746,-4.9018,-4.8849,-4.8765,-4.8765,-4.8612,-4.8528,-4.8528,-4.8528,-4.7834,-4.6549,-4.6549,-4.5838,-4.457,-4.4401,0.0,0.0,-4.2328,-4.2668,-4.3819,-4.0738,-3.867,-3.7462,-3.7479,-3.66,-3.5522,0.0,0.0,0.0,0.0,0.0,0.0,0.0,0.0388,-0.0184,-0.0768,-0.0726,-0.1073,-0.2207,-0.1415,-0.0904,0.0,0.0,0.0,0.0,0.0,0.0,0.0,0.0,0.0,0.0,0.0,0.0,0.0,0.0,0.0,0.0,0.0,0.0,0.0,0.0,0.0,0.0,0.0,0.0,0.0,0.0,0.0,0.0,0.0,0.0,0.0,0.0,0.0,0.0,0.0,0.0,-2.2624,-2.6512,-3.11,-3.5496,-3.7731,0.0,0.0,-4.9451,-5.1901,-5.3434,-5.2596,-5.0201,-4.6243,-3.9294,0.0,0.0,-2.3769,-2.1511,-2.12,-2.3547,-2.5346,0.0,0.0,0.0,0.0,0.0,0.0,0.0,0.0,0.0,0.0,0.0,0.0,0.0,0.0,0.0,0.0,-5.1321,-5.0455,-4.9691,-4.9001,-4.8359,-4.802,-4.802,-4.7344,-4.6989,-4.6989,-4.6989,-4.6583,-4.5805,-4.5805,-4.5348,-4.4536,-4.3826,0.0,0.0,-3.9226,-4.0016,-4.2343,-4.0704,-4.1572,-4.3762,-4.3762,-4.0294,-3.549,0.0,0.0,0.0,0.0,0.0,0.0,0.0,0.0131,-0.0373,-0.1057,-0.1402,-0.1852,-0.2525,-0.2671,-0.2683,0.0,0.0,0.0,0.0,0.0,0.0,0.0,0.0,0.0,0.0,0.0,0.0,0.0,0.0,0.0,0.0,0.0,0.0,0.0,0.0,0.0,0.0,0.0,0.0,0.0,0.0,0.0,0.0,0.0,0.0,0.0,0.0,0.0,0.0,0.0,0.0,0.0,-1.9475,-2.2345,0.0,0.0,-3.8915,-4.4611,-4.6989,-5.0853,-5.3962,-5.2875,-4.9828,-4.5171,-3.7743,0.0,-2.7643,-2.2094,-2.0323,-2.0402,-2.2504,-2.341,0.0,0.0,0.0,0.0,0.0,0.0,0.0,0.0,0.0,0.0,0.0,0.0,0.0,0.0,0.0,0.0,-5.0972,-5.0347,-4.9625,-4.8846,-4.8127,-4.778,-4.778,-4.7138,-4.6786,-4.6786,-4.6786,-4.6413,-4.5686,-4.5229,-4.4604,-4.3842,-4.3064,0.0,0.0,-3.8385,-3.9143,-4.0931,-4.0323,-4.0855,-4.1895,-4.1894,-4.0351,-3.8286,0.0,0.0,0.0,0.0,0.0,0.0718,0.0167,-0.023,-0.0721,-0.1414,-0.1873,-0.2398,-0.3081,-0.3508,-0.391,-0.4277,0.0,0.0,0.0,0.0,0.0,0.0,0.0,0.0,0.0,0.0,0.0,0.0,0.0,0.0,0.0,0.0,0.0,0.0,0.0,0.0,0.0,0.0,0.0,0.0,0.0,0.0,0.0,0.0,0.0,0.0,0.0,0.0,0.0,0.0,0.0,0.0,0.0,0.0,0.0,0.0,-3.509,-4.1726,-4.3901,-4.8836,-5.3103,-5.1947,-4.8133,-4.2871,0.0,0.0,-2.5828,-2.0699,-1.9564,-1.9987,-2.177,-2.2098,-2.3603,0.0,0.0,0.0,0.0,0.0,0.0,0.0,0.0,0.0,0.0,0.0,0.0,0.0,0.0,0.0,0.0,-5.0052,-4.9465,-4.8735,-4.8049,-4.7683,-4.7683,-4.6601,-4.6096,-4.6096,-4.5903,-4.5179,-4.4062,-4.4181,-4.3572,-4.2422,0.0,0.0,0.0,-3.7603,-3.7335,-3.7631,-3.9429,-4.0086,-4.0068,-4.0087,-4.0113,-4.0072,0.0,0.0,0.0,0.0,0.0,0.0,0.0,-0.0712,-0.1303,-0.1917,-0.2006,-0.2631,-0.4309,-0.3836,-0.416,-0.6006,0.0,0.0,0.0,0.0,0.0,0.0,0.0,0.0,0.0,0.0,0.0,0.0,0.0,0.0,0.0,0.0,0.0,0.0,0.0,0.0,0.0,0.0,0.0,0.0,0.0,0.0,0.0,0.0,0.0,0.0,0.0,0.0,0.0,0.0,0.0,0.0,0.0,0.0,0.0,0.0,-3.0303,-3.7611,-4.1007,-4.6249,-5.0529,-4.9644,-4.4951,-3.94,0.0,0.0,-2.4121,-2.0535,-1.9809,-2.0318,-2.1984,-2.2286,-2.3649,-2.7727,0.0,0.0,0.0,0.0,0.0,0.0,0.0,0.0,0.0,0.0,0.0,0.0,0.0,0.0,0.0,-4.9609,-4.9331,-4.87,-4.7992,-4.7603,-4.7603,-4.5484,-4.4435,-4.4453,-4.3727,-4.2303,-4.0257,-4.2439,-4.2219,0.0,0.0,0.0,0.0,-3.6472,-3.3892,-3.1855,-3.7769,-4.0087,-4.0087,-4.0087,-4.0087,-4.007,0.0,0.0,0.0,0.0,0.0,0.0,0.0,-0.0944,-0.1399,-0.187,-0.2452,-0.2976,-0.3362,-0.3811,-0.4499,-0.5496,0.0,0.0,0.0,0.0,0.0,0.0,0.0,0.0,0.0,0.0,0.0,0.0,0.0,0.0,0.0,0.0,0.0,0.0,0.0,0.0,0.0,0.0,0.0,0.0,0.0,0.0,0.0,0.0,0.0,0.0,0.0,0.0,0.0,0.0,0.0,0.0,0.0,0.0,0.0,0.0,0.0,0.0,-3.4962,-3.8491,-4.1133,-4.0863,-3.8026,-3.4353,-3.0681,0.0,-2.34,-2.0534,-1.9869,-2.0165,-2.1384,-2.1616,-2.3101,-2.7614,-2.8502,0.0,0.0,0.0,0.0,0.0,0.0,0.0,0.0,0.0,0.0,0.0,0.0,0.0,0.0,-4.904,-4.8626,-4.8442,-4.7803,-4.7187,-4.6649,-4.5528,-4.4671,-4.4115,-4.3539,-4.2343,-4.0676,-4.1529,0.0,0.0,0.0,0.0,0.0,-3.8371,-3.5712,-3.1806,-3.7769,-4.007,-4.007,-4.007,-4.007,-4.0121,0.0,0.0,0.0,0.0,0.0,0.0,0.0,-0.1232,-0.1593,-0.1996,-0.2612,-0.3103,-0.3322,-0.403,-0.4854,-0.5792,0.0,0.0,0.0,0.0,0.0,0.0,0.0,0.0,0.0,0.0,0.0,0.0,0.0,0.0,0.0,0.0,0.0,0.0,0.0,0.0,0.0,0.0,0.0,0.0,0.0,0.0,-1.7349,0.0,0.0,0.0,0.0,0.0,0.0,0.0,0.0,0.0,0.0,0.0,0.0,0.0,-2.1387,0.0,0.0,-3.3005,-3.5394,-3.5394,-3.2984,0.0,0.0,0.0,-2.2018,-2.0444,-2.0547,-2.1022,-2.1321,-2.1914,-2.3316,-2.6242,-2.7951,0.0,0.0,0.0,0.0,0.0,0.0,0.0,0.0,0.0,0.0,0.0,0.0,0.0,0.0,-4.86,-4.8159,-4.7865,-4.7499,-4.688,-4.6081,-4.5186,-4.4474,-4.395,-4.3173,-4.1856,-4.0106,-4.0847,0.0,0.0,0.0,0.0,0.0,-3.9597,-3.792,-3.4955,-3.8656,-4.007,-4.007,-4.007,-4.007,-4.0104,0.0,0.0,0.0,0.0,0.0,0.0,0.0,0.0,0.0,-0.2285,-0.2571,-0.311,-0.4047,-0.4443,-0.5229,-0.6717,0.0,0.0,0.0,0.0,0.0,0.0,0.0,0.0,0.0,0.0,0.0,0.0,-1.2245,-1.317,-1.4481,0.0,0.0,0.0,0.0,0.0,0.0,0.0,0.0,0.0,0.0,0.0,0.0,0.0,0.0,0.0,0.0,0.0,0.0,0.0,0.0,0.0,0.0,0.0,0.0,0.0,0.0,0.0,0.0,0.0,0.0,0.0,0.0,0.0,0.0,0.0,0.0,-2.0468,-2.171,-2.2571,-2.1812,-2.3101,-2.4293,-2.4341,-2.7478,0.0,0.0,0.0,0.0,0.0,0.0,0.0,0.0,0.0,0.0,0.0,0.0,0.0,0.0,-4.8196,-4.7829,-4.6985,-4.7003,-4.6636,-4.581,-4.4576,-4.3873,-4.371,-4.2652,-4.0937,-3.872,-4.0417,0.0,0.0,0.0,0.0,0.0,-4.007,-4.007,-4.007,-4.007,-4.007,-4.007,-4.007,-4.007,-4.0088,0.0,0.0,0.0,0.0,0.0,0.0,0.0,0.0,0.0,0.0,-0.2931,-0.3541,-0.4531,-0.4803,-0.5581,0.0,0.0,0.0,0.0,0.0,0.0,0.0,0.0,0.0,0.0,0.0,0.0,-1.1869,-1.2092,-1.3045,-1.4621,-1.3668,0.0,0.0,0.0,0.0,0.0,0.0,0.0,0.0,0.0,0.0,0.0,0.0,0.0,0.0,-1.4732,-1.4804,0.0,0.0,0.0,0.0,0.0,0.0,0.0,0.0,-1.8718,-1.9038,-2.1405,0.0,-2.3458,-2.3458,-2.268,0.0,0.0,0.0,0.0,0.0,0.0,-2.2999,-2.3407,-2.487,-2.6145,-2.6562,-2.8474,0.0,0.0,0.0,0.0,0.0,0.0,0.0,0.0,0.0,0.0,0.0,0.0,0.0,0.0,-4.7058,-4.6746,-4.5314,-4.5865,-4.581,-4.5002,-4.4674,-4.3578,-4.1768,-4.2309,-4.1032,-3.8222,-4.0132,0.0,0.0,0.0,0.0,-4.007,-4.007,-4.007,-4.007,-4.007,-4.007,-4.007,-4.007,-4.007,-4.0087,0.0,0.0,0.0,0.0,0.0,0.0,0.0,0.0,0.0,0.0,0.0,0.0,0.0,0.0,0.0,0.0,0.0,0.0,0.0,0.0,0.0,0.0,0.0,0.0,0.0,0.0,0.0,0.0,0.0,-1.3103,0.0,0.0,0.0,0.0,0.0,0.0,0.0,0.0,0.0,0.0,-1.4976,0.0,0.0,0.0,0.0,0.0,-1.4571,-1.4727,0.0,-1.5367,-1.5635,-1.5888,0.0,0.0,0.0,0.0,-1.7902,-1.8153,-1.9569,-2.0546,-2.1323,-2.2104,-2.1688,-2.1286,0.0,0.0,0.0,0.0,0.0,0.0,-2.3366,-2.4281,0.0,-2.6802,-2.7453,0.0,0.0,0.0,0.0,0.0,0.0,0.0,0.0,0.0,0.0,0.0,0.0,0.0,0.0,-4.6305,-4.5993,-4.4745,-4.5131,-4.4966,-4.4158,-4.4158,-4.313,-4.1097,-4.2195,-4.1394,-3.9066,-4.0612,-4.0858,0.0,0.0,0.0,-4.0397,-3.9474,-3.9478,-4.007,-4.007,-4.007,-4.007,-4.007,-4.007,-4.007,0.0,0.0,0.0,0.0,0.0,0.0,0.0,0.0,0.0,0.0,0.0,0.0,0.0,0.0,0.0,0.0,0.0,0.0,0.0,0.0,0.0,0.0,0.0,0.0,0.0,0.0,0.0,0.0,0.0,0.0,0.0,0.0,0.0,0.0,0.0,0.0,0.0,0.0,0.0,0.0,-1.4499,0.0,0.0,0.0,0.0,0.0,0.0,0.0,0.0,-1.5668,-1.6078,-1.6298,-1.6445,0.0,0.0,0.0,0.0,0.0,-1.8908,-2.0412,-2.209,-2.3788,-2.2949,-2.2148,0.0,0.0,0.0,0.0,0.0,0.0,0.0,0.0,0.0,0.0,0.0,0.0,0.0,0.0,0.0,0.0,0.0,0.0,0.0,0.0,0.0,0.0,0.0,0.0,0.0,-4.5751,-4.5421,-4.463,-4.4671,-4.4305,-4.3497,-4.3497,-4.269,-4.1097,-4.2268,-4.1958,-4.0366,-4.1471,-4.1866,0.0,0.0,0.0,-4.0561,-3.8845,-3.8846,-3.9898,-4.0036,-4.0104,-4.0087,-4.0121,-4.007,-4.007,0.0,0.0,0.0,0.0,0.0,0.0,0.0,0.0,0.0,0.0,0.0,0.0,0.0,0.0,0.0,0.0,0.0,0.0,0.0,0.0,0.0,0.0,0.0,0.0,0.0,0.0,0.0,0.0,0.0,0.0,-1.4687,-1.4757,-1.4724,0.0,0.0,0.0,-1.4858,-1.4748,-1.4697,-1.4666,-1.4545,0.0,0.0,0.0,0.0,0.0,0.0,0.0,0.0,-1.5009,-1.5147,-1.5374,-1.6234,0.0,0.0,0.0,0.0,0.0,-1.8733,-1.9951,-2.1124,-2.2878,-2.2047,-2.125,0.0,0.0,0.0,0.0,0.0,0.0,0.0,0.0,0.0,0.0,0.0,0.0,0.0,0.0,0.0,0.0,0.0,0.0,0.0,0.0,0.0,0.0,0.0,0.0,0.0,-4.5133,-4.4934,-4.4147,-4.4512,-4.4305,-4.3497,-4.3497,-4.269,-4.113,-4.2658,-4.2532,-4.0998,-4.2084,-4.2163,0.0,0.0,-4.007,-3.9617,-3.9492,-3.9215,-3.8911,-3.9761,-4.0086,-4.0067,-4.012,-4.007,-4.007,0.0,0.0,0.0,0.0,0.0,0.0,0.0,0.0,0.0,0.0,0.0,0.0,0.0,0.0,0.0,0.0,0.0,0.0,0.0,0.0,0.0,0.0,0.0,0.0,0.0,0.0,0.0,0.0,0.0,-1.4527,-1.4957,-1.5062,-1.5112,-1.5112,0.0,0.0,-1.4953,-1.4885,-1.4794,-1.4678,0.0,0.0,0.0,0.0,0.0,0.0,0.0,0.0,0.0,0.0,-1.5508,-1.5695,-1.6215,0.0,0.0,0.0,0.0,0.0,-1.7384,-1.8375,-1.9896,-2.345,-2.2808,-2.2246,0.0,0.0,0.0,0.0,0.0,0.0,0.0,0.0,0.0,0.0,0.0,0.0,0.0,0.0,0.0,0.0,0.0,0.0,0.0,0.0,0.0,0.0,0.0,0.0,0.0,0.0,-4.4712,-4.4337,-4.4539,-4.4364,-4.3791,-4.3328,-4.2424,-4.113,-4.2727,-4.2653,-4.1134,-4.2484,-4.2905,-4.2432,0.0,-4.0101,-4.0342,-3.8646,-3.8191,-3.8649,-3.8846,-3.941,-4.0082,-4.012,-4.007,-4.007,0.0,0.0,0.0,0.0,0.0,0.0,0.0,0.0,0.0,0.0,0.0,0.0,0.0,0.0,0.0,0.0,0.0,0.0,0.0,0.0,0.0,0.0,0.0,0.0,0.0,0.0,0.0,-1.4283,-1.4947,-1.5189,-1.5055,-1.5151,-1.5189,0.0,0.0,0.0,-1.5049,-1.5012,-1.4916,-1.4775,0.0,0.0,0.0,0.0,0.0,0.0,0.0,0.0,0.0,0.0,0.0,0.0,0.0,0.0,0.0,-1.5319,-1.5177,-1.5388,-1.6253,-1.6999,-1.8571,-2.3094,0.0,0.0,0.0,0.0,0.0,0.0,0.0,0.0,0.0,0.0,0.0,0.0,0.0,0.0,0.0,0.0,0.0,0.0,0.0,0.0,0.0,0.0,0.0,0.0,0.0,0.0,0.0,0.0,-4.4613,-4.4423,-4.4348,-4.4052,-4.3538,-4.2864,-4.2161,-4.1405,-4.2635,-4.247,-4.1167,-4.2763,-4.3185,-4.2543,-4.0518,-4.0073,-4.0565,-3.8054,-3.7626,-3.8495,-3.804,-3.8798,-4.0082,-4.012,-4.007,-4.007,0.0,0.0,0.0,0.0,0.0,0.0,0.0,0.0,0.0,0.0,0.0,0.0,0.0,0.0,0.0,0.0,0.0,0.0,0.0,0.0,0.0,0.0,0.0,0.0,0.0,-1.4607,-1.5472,-1.6292,-1.6349,-1.5963,-1.5189,-1.5189,-1.5189,-1.5189,0.0,0.0,-1.517,-1.5049,-1.4998,-1.4974,-1.4914,0.0,0.0,0.0,0.0,0.0,0.0,0.0,0.0,0.0,0.0,0.0,0.0,0.0,-1.509,-1.504,-1.5095,-1.5388,-1.6253,-1.6554,-1.7262,-2.0051,-2.0068,0.0,0.0,0.0,0.0,0.0,0.0,0.0,0.0,0.0,0.0,0.0,0.0,0.0,0.0,0.0,0.0,0.0,0.0,0.0,0.0,0.0,0.0,0.0,0.0,0.0,0.0,0.0,0.0,-4.389,-4.3577,-4.2982,-4.214,-4.1847,-4.1871,-4.2213,-4.2323,-4.1937,-4.1167,-4.2763,-4.2268,-4.0175,-4.073,-4.0166,-3.8889,-3.8847,-3.8611,-3.8307,-3.801,-3.8785,-4.0082,-4.012,-4.007,-4.007,0.0,0.0,0.0,0.0,0.0,0.0,0.0,0.0,0.0,0.0,0.0,0.0,0.0,0.0,0.0,0.0,0.0,0.0,0.0,0.0,0.0,0.0,0.0,-1.5055,-1.4728,-1.5036,-1.5632,-1.651,-1.5965,-1.5528,-1.5189,-1.5189,0.0,0.0,0.0,0.0,-1.5189,-1.5151,-1.5074,-1.5004,-1.4969,-1.4938,0.0,0.0,0.0,0.0,0.0,0.0,0.0,0.0,-1.4589,-1.4592,0.0,-1.4794,-1.483,-1.4909,-1.5004,-1.5158,-1.5484,-1.6381,-1.8126,-2.1801,0.0,0.0,0.0,0.0,0.0,0.0,0.0,0.0,0.0,0.0,0.0,0.0,0.0,0.0,0.0,0.0,0.0,0.0,0.0,0.0,0.0,0.0,0.0,0.0,0.0,0.0,0.0,0.0,0.0,-4.3387,-4.3235,-4.2904,-4.231,-4.1707,-4.1393,-4.1362,-4.1483,-4.1405,-4.113,-4.1735,-4.1515,-4.0653,-4.0432,-4.001,-3.9392,-3.8624,-3.8204,-3.7952,-3.6863,-3.7974,-4.0075,-4.0099,-4.0118,-4.0085,0.0,0.0,0.0,0.0,0.0,0.0,0.0,0.0,0.0,0.0,0.0,0.0,0.0,0.0,0.0,0.0,0.0,0.0,0.0,0.0,0.0,0.0,0.0,-1.533,-1.5599,-1.5349,-1.5632,-1.649,-1.5895,-1.5472,-1.5189,0.0,0.0,0.0,0.0,0.0,0.0,0.0,-1.517,-1.5068,-1.5057,-1.5042,0.0,0.0,0.0,0.0,0.0,0.0,0.0,0.0,-1.4632,-1.4624,0.0,0.0,-1.4776,-1.4813,-1.4906,-1.4995,-1.4995,-1.5945,-1.7811,0.0,0.0,0.0,0.0,0.0,0.0,0.0,0.0,0.0,0.0,0.0,0.0,0.0,0.0,0.0,0.0,0.0,0.0,0.0,0.0,0.0,0.0,0.0,0.0,0.0,0.0,0.0,0.0,0.0,0.0,0.0,-4.2027,-4.1771,-4.1495,-4.0845,-4.0401,-4.0163,-4.0476,-4.0577,-4.0492,-4.1027,-4.0927,-4.0341,-4.0029,-3.9753,-3.9447,-3.8518,-3.8138,-3.8041,-3.6789,-3.7278,-3.8692,-3.8681,-3.9291,-4.0118,0.0,0.0,0.0,0.0,0.0,0.0,0.0,0.0,0.0,0.0,0.0,0.0,0.0,0.0,0.0,0.0,0.0,0.0,0.0,0.0,0.0,0.0,0.0,-1.5599,-1.6465,-1.5638,-1.5618,-1.6484,-1.6484,-1.6055,-1.5189,-1.5209,0.0,0.0,0.0,0.0,0.0,0.0,-1.5272,-1.5189,-1.5189,-1.5189,-1.5183,0.0,0.0,0.0,0.0,0.0,0.0,0.0,-1.4904,-1.4886,-1.4747,0.0,0.0,-1.4765,-1.4866,-1.5007,-1.5014,-1.5114,-1.583,0.0,0.0,0.0,0.0,0.0,0.0,0.0,0.0,0.0,0.0,0.0,0.0,0.0,0.0,0.0,0.0,0.0,0.0,0.0,0.0,0.0,0.0,0.0,0.0,0.0,0.0,0.0,0.0,0.0,0.0,0.0,-3.97,-3.9277,-3.9277,-3.8951,-3.8785,-3.8804,-3.9318,-3.9414,-3.9181,-4.0831,-4.0526,-3.8744,-3.9533,-3.9441,-3.8707,-3.8707,-3.8688,-3.8633,-3.8105,-3.6962,-3.561,-3.5607,-3.7502,-4.0121,0.0,0.0,0.0,0.0,0.0,0.0,0.0,0.0,0.0,0.0,0.0,0.0,0.0,0.0,0.0,0.0,0.0,0.0,0.0,0.0,0.0,0.0,0.0,0.0,0.0,0.0,-1.5392,-1.5657,-1.5661,-1.5516,0.0,0.0,0.0,-1.5272,0.0,0.0,0.0,0.0,0.0,-1.5272,-1.5272,-1.5272,-1.5266,0.0,0.0,0.0,0.0,0.0,0.0,0.0,0.0,0.0,-1.4747,0.0,0.0,-1.629,-1.6068,-1.5799,-1.6497,-1.6345,0.0,0.0,0.0,0.0,0.0,0.0,0.0,0.0,0.0,0.0,0.0,0.0,0.0,0.0,0.0,0.0,0.0,0.0,0.0,0.0,0.0,0.0,0.0,0.0,0.0,0.0,0.0,0.0,0.0,0.0,0.0,0.0,-3.8507,-3.8392,-3.8392,-3.8293,-3.8243,-3.8243,-3.8408,-3.8822,-3.9457,-3.9709,-3.9528,-3.899,-3.9031,-3.8927,-3.8707,-3.8707,-3.8474,-3.8146,-3.8384,-3.7598,-3.6579,-3.8183,-3.9174,-3.9755,0.0,0.0,0.0,0.0,0.0,0.0,0.0,0.0,0.0,0.0,0.0,0.0,0.0,0.0,0.0,0.0,0.0,0.0,0.0,0.0,0.0,0.0,0.0,0.0,0.0,-1.5669,-1.5671,0.0,0.0,0.0,0.0,0.0,0.0,-1.5327,0.0,-1.7221,0.0,0.0,-1.6658,-1.5827,-1.5815,-1.5829,-1.5815,0.0,0.0,0.0,0.0,0.0,0.0,0.0,0.0,0.0,-1.4865,0.0,0.0,-1.6344,-1.6411,-1.6705,-1.7302,-1.7376,0.0,0.0,0.0,0.0,0.0,0.0,0.0,0.0,0.0,0.0,0.0,0.0,0.0,0.0,0.0,0.0,0.0,0.0,0.0,0.0,0.0,0.0,0.0,0.0,0.0,0.0,0.0,0.0,0.0,0.0,0.0,0.0,-3.6169,-3.6315,-3.7007,-3.7007,-3.718,-3.7488,-3.7834,-3.8328,-3.8955,-3.8622,-3.834,-3.8141,-3.7874,-3.7753,-3.7753,-3.7753,-3.7546,-3.7312,-3.7845,-3.7808,-3.7683,-3.9027,-3.9308,-3.9032,0.0,0.0,0.0,0.0,0.0,0.0,0.0,0.0,0.0,0.0,0.0,0.0,0.0,0.0,0.0,0.0,0.0,0.0,0.0,0.0,0.0,0.0,0.0,0.0,0.0,0.0,0.0,0.0,0.0,0.0,0.0,0.0,-1.6135,-1.5381,0.0,-1.7065,0.0,0.0,-1.668,-1.6484,-1.6483,-1.6496,-1.6498,-1.6478,0.0,0.0,0.0,0.0,0.0,0.0,0.0,0.0,-1.5076,-1.6147,-1.7153,-1.559,-1.6343,-1.7704,-1.778,0.0,0.0,0.0,0.0,0.0,0.0,0.0,0.0,0.0,0.0,0.0,0.0,0.0,0.0,0.0,0.0,0.0,0.0,0.0,0.0,0.0,0.0,0.0,0.0,0.0,0.0,0.0,0.0,0.0,0.0,0.0,0.0,-3.4187,-3.3354,-3.3673,-3.5251,-3.5276,-3.568,0.0,-3.7276,-3.77,-3.7762,-3.7577,-3.7213,-3.6701,-3.6445,-3.6313,-3.6303,-3.6303,-3.6321,-3.6431,-3.6875,-3.7609,-3.8522,-3.8652,-3.8425,-3.8088,0.0,0.0,0.0,0.0,0.0,0.0,0.0,0.0,0.0,0.0,0.0,0.0,0.0,0.0,0.0,0.0,0.0,0.0,0.0,0.0,0.0,0.0,0.0,0.0,0.0,0.0,0.0,0.0,0.0,0.0,0.0,0.0,0.0,-1.5427,0.0,-1.7996,0.0,-1.6827,-1.6738,-1.5664,-1.5659,-1.5653,-1.5654,-1.5602,-1.5505,0.0,0.0,0.0,0.0,0.0,0.0,0.0,-1.5118,-1.5737,-1.6548,-1.6781,-1.7586,-1.8524,-1.9228,-1.9107,0.0,0.0,0.0,0.0,0.0,0.0,0.0,0.0,0.0,0.0,0.0,0.0,0.0,0.0,0.0,0.0,0.0,0.0,0.0,0.0,0.0,0.0,0.0,0.0,0.0,0.0,0.0,0.0,0.0,0.0,0.0,-3.3437,-3.3141,-3.3169,-3.3536,-3.3492,-3.3891,0.0,-3.493,-3.5372,-3.607,-3.7041,-3.7213,-3.6682,-3.6649,-3.6481,-3.6303,-3.6303,-3.6552,-3.6893,-3.6604,-3.6618,-3.6979,-3.8241,-3.8312,-3.7822,0.0,0.0,0.0,0.0,0.0,0.0,0.0,0.0,0.0,0.0,0.0,0.0,0.0,0.0,0.0,0.0,0.0,0.0,0.0,0.0,0.0,0.0,0.0,0.0,0.0,0.0,0.0,0.0,0.0,0.0,0.0,0.0,0.0,-1.6083,0.0,-1.8278,0.0,0.0,-1.6738,-1.6016,-1.6016,-1.6016,-1.6016,-1.5977,-1.5723,-1.539,-1.5363,0.0,0.0,0.0,0.0,0.0,0.0,0.0,-1.6879,-1.6468,-1.72,-1.8267,0.0,0.0,0.0,0.0,0.0,0.0,0.0,0.0,0.0,0.0,0.0,0.0,0.0,0.0,0.0,0.0,0.0,0.0,0.0,0.0,0.0,0.0,0.0,0.0,0.0,0.0,0.0,0.0,0.0,0.0,0.0,-3.1811,-3.1836,-3.1442,-3.1702,-3.2034,-3.2425,-3.2394,-3.2771,-3.3583,-3.3583,-3.3814,-3.4301,-3.5703,-3.6198,-3.5913,-3.5642,-3.5416,-3.528,-3.5174,-3.5285,-3.5496,-3.523,-3.5422,-3.5954,-3.6243,-3.7127,-3.8097,0.0,0.0,0.0,0.0,0.0,0.0,0.0,0.0,0.0,0.0,0.0,0.0,0.0,0.0,0.0,0.0,0.0,0.0,0.0,0.0,0.0,0.0,0.0,0.0,0.0,0.0,0.0,0.0,0.0,0.0,0.0,0.0,0.0,-1.7192,0.0,0.0,0.0,0.0,0.0,-1.6484,-1.6484,-1.6484,-1.6484,-1.6484,-1.6035,-1.5391,-1.5391,-1.5391,-1.5391,-1.5391,0.0,0.0,0.0,0.0,-1.7083,-1.5603,-1.6394,-1.7709,0.0,0.0,0.0,0.0,0.0,0.0,0.0,0.0,0.0,0.0,0.0,0.0,0.0,0.0,0.0,0.0,0.0,0.0,0.0,0.0,0.0,0.0,0.0,0.0,0.0,0.0,0.0,0.0,0.0,0.0,-2.9453,-2.9954,-2.9982,-2.9316,-2.9877,-3.051,-3.1169,-3.1308,-3.1739,-3.2485,-3.2769,-3.2891,-3.2949,-3.4163,-3.4699,-3.4632,-3.4273,-3.4091,-3.4041,-3.3783,-3.3721,-3.3795,-3.3778,-3.4385,-3.5101,-3.4156,-3.5515,-3.7757,0.0,0.0,0.0,0.0,0.0,0.0,0.0,0.0,0.0,0.0,0.0,0.0,0.0,0.0,0.0,0.0,0.0,0.0,0.0,0.0,0.0,0.0,0.0,0.0,0.0,0.0,0.0,0.0,0.0,0.0,0.0,0.0,0.0,-1.8913,0.0,0.0,0.0,0.0,0.0,0.0,0.0,-1.5566,-1.5566,-1.5566,-1.5508,-1.5391,-1.5391,-1.5391,-1.5391,-1.5391,-1.5391,0.0,0.0,0.0,-1.5578,-1.5215,-1.6391,-1.776,0.0,0.0,0.0,0.0,0.0,0.0,0.0,0.0,0.0,0.0,0.0,0.0,0.0,0.0,0.0,0.0,0.0,0.0,0.0,0.0,0.0,0.0,0.0,0.0,0.0,0.0,0.0,0.0,0.0,0.0,-2.8476,-2.8574,-2.8574,-2.8456,-2.8496,-2.8571,-2.8681,-2.9308,-3.0021,-3.084,-3.2239,-3.2891,-3.291,-3.3096,-3.3063,-3.2877,-3.357,-3.3714,-3.35,-3.322,-3.3385,-3.3802,-3.3788,-3.3905,-3.4009,-3.3863,-3.408,-3.4709,0.0,0.0,0.0,0.0,0.0,0.0,0.0,0.0,0.0,0.0,0.0,0.0,0.0,0.0,0.0,0.0,0.0,0.0,0.0,0.0,0.0,0.0,-1.5605,0.0,0.0,0.0,0.0,0.0,0.0,0.0,0.0,-2.3222,-2.3086,0.0,0.0,0.0,0.0,0.0,0.0,0.0,0.0,0.0,0.0,0.0,-1.5391,-1.5391,-1.5391,-1.5391,-1.5391,-1.5391,-1.5391,-1.5391,-1.5408,0.0,0.0,0.0,-1.5782,0.0,-1.7663,0.0,0.0,0.0,0.0,0.0,0.0,0.0,0.0,0.0,0.0,0.0,0.0,0.0,0.0,0.0,0.0,0.0,0.0,0.0,0.0,0.0,0.0,0.0,0.0,0.0,0.0,0.0,0.0,-2.7991,-2.7531,-2.8007,-2.8086,-2.7598,-2.8025,-2.8231,-2.8193,-2.8525,-2.906,-2.9846,-3.1004,-3.1553,-3.1553,-3.1523,-3.1937,-3.2737,-3.2978,-3.3285,-3.3599,-3.3332,-3.359,-3.4102,-3.3889,-3.3788,-3.3807,-3.3808,-3.3788,-3.3966,0.0,0.0,0.0,0.0,0.0,0.0,0.0,0.0,0.0,0.0,0.0,0.0,0.0,0.0,0.0,0.0,0.0,0.0,0.0,0.0,0.0,-1.5391,-1.5391,-1.5391,-1.5391,0.0,0.0,0.0,0.0,0.0,-2.4428,-2.5371,-2.6361,0.0,-2.6517,0.0,0.0,0.0,0.0,0.0,0.0,0.0,0.0,0.0,0.0,0.0,0.0,-1.5391,-1.5391,-1.5391,-1.5391,-1.5391,-1.5391,-1.5391,0.0,0.0,0.0,0.0,0.0,0.0,0.0,0.0,0.0,0.0,0.0,0.0,0.0,0.0,0.0,0.0,0.0,0.0,0.0,0.0,0.0,0.0,0.0,0.0,0.0,0.0,0.0,0.0,0.0,0.0,0.0,0.0,0.0,-2.7225,-2.6598,-2.722,-2.7324,-2.6699,-2.7305,-2.7615,-2.7561,-2.7766,-2.8252,-2.9026,-2.9608,-2.9993,-3.0161,-3.0123,-3.0895,-3.2263,-3.2302,-3.2669,-3.3261,-3.2974,-3.3351,-3.4057,-3.3417,-3.3445,-3.3797,-3.3788,-3.3789,-3.3826,0.0,0.0,0.0,0.0,0.0,0.0,0.0,0.0,0.0,0.0,0.0,0.0,0.0,0.0,0.0,-1.5391,0.0,0.0,0.0,0.0,0.0,-1.5391,-1.5391,0.0,-1.5391,0.0,0.0,0.0,0.0,0.0,-2.4433,-2.5995,-2.8491,-3.1565,-2.9146,-2.6069,-2.2619,0.0,0.0,0.0,0.0,-1.6824,0.0,0.0,0.0,0.0,0.0,0.0,-1.5391,-1.5391,-1.5391,-1.5391,-1.5391,-1.5391,-1.5391,0.0,0.0,0.0,0.0,0.0,0.0,0.0,0.0,0.0,0.0,0.0,0.0,0.0,0.0,0.0,0.0,0.0,0.0,0.0,0.0,0.0,0.0,0.0,0.0,0.0,0.0,0.0,0.0,0.0,0.0,0.0,0.0,-2.5574,-2.5657,-2.5701,-2.5751,-2.5762,-2.5801,-2.582,-2.584,-2.6587,-2.741,-2.8268,-2.8242,-2.8592,-2.9281,-2.9253,-2.9728,-3.0571,-3.1398,-3.1782,-3.1789,-3.1518,-3.2188,-3.3242,-3.1995,-3.2469,-3.3802,-3.3797,-3.3807,-3.3807,0.0,0.0,0.0,0.0,0.0,0.0,0.0,0.0,0.0,0.0,0.0,0.0,0.0,-1.5391,-1.5391,-1.5391,-1.5391,0.0,0.0,0.0,0.0,-1.5391,-1.5391,-1.5391,-1.5391,0.0,0.0,0.0,0.0,-1.765,-2.1992,-2.3654,-2.5375,-2.7156,-2.9483,-2.8001,-2.3722,-2.2546,0.0,0.0,-1.9104,-1.7857,0.0,0.0,0.0,0.0,0.0,0.0,0.0,-1.5762,-1.5391,-1.5391,-1.5391,-1.5391,-1.5391,-1.5391,0.0,0.0,0.0,0.0,0.0,0.0,0.0,0.0,0.0,0.0,0.0,0.0,0.0,0.0,0.0,0.0,0.0,0.0,0.0,0.0,0.0,0.0,0.0,0.0,0.0,0.0,0.0,0.0,0.0,0.0,0.0,0.0,-2.5399,-2.4499,-2.4446,-2.5548,-2.5607,-2.5659,-2.5703,-2.6541,-2.7125,-2.7437,-2.7933,-2.829,-2.8559,-2.8473,-2.8867,-2.9612,-2.9366,-3.0198,-3.1686,-3.1597,-3.1938,-3.2439,-3.16,-3.231,-3.3722,-3.304,-3.3211,-3.3807,0.0,0.0,0.0,0.0,0.0,0.0,0.0,0.0,0.0,0.0,0.0,0.0,0.0,0.0,-1.6152,-1.5859,-1.5566,-1.5391,-1.5391,-1.5391,-1.5391,-1.5391,-1.5391,-1.5391,0.0,0.0,0.0,0.0,0.0,0.0,0.0,-2.1462,-2.2839,-2.4007,-2.7385,-2.7478,0.0,0.0,0.0,-2.0088,0.0,-1.9399,-1.7948,0.0,0.0,0.0,0.0,0.0,0.0,0.0,-1.6697,-1.623,0.0,0.0,0.0,0.0,0.0,0.0,0.0,0.0,0.0,0.0,0.0,0.0,0.0,0.0,0.0,0.0,0.0,0.0,0.0,0.0,0.0,0.0,0.0,0.0,0.0,0.0,0.0,0.0,0.0,0.0,0.0,0.0,0.0,0.0,0.0,0.0,-2.5348,-2.438,-2.4326,-2.545,-2.5561,-2.5611,-2.5661,-2.6269,-2.6562,-2.6562,-2.7103,-2.7501,-2.7761,-2.7662,-2.8061,-2.8799,-2.8193,-2.9203,-3.1237,-3.0948,-3.1046,-3.1359,-3.1063,-3.1525,-3.2328,-3.2027,-3.2354,-3.2889,0.0,0.0,0.0,0.0,0.0,0.0,0.0,0.0,0.0,0.0,0.0,0.0,0.0,0.0,0.0,-1.6855,-1.5957,-1.5449,-1.5449,-1.541,-1.5391,-1.5391,0.0,0.0,0.0,0.0,0.0,0.0,0.0,0.0,0.0,0.0,-2.1321,0.0,-2.2954,-2.4306,-2.6478,0.0,-2.6536,-2.6094,0.0,-2.1449,-2.2477,0.0,0.0,0.0,-2.1294,-2.0558,0.0,0.0,0.0,0.0,0.0,0.0,0.0,0.0,0.0,0.0,0.0,0.0,0.0,0.0,0.0,0.0,0.0,0.0,0.0,0.0,0.0,0.0,0.0,0.0,0.0,0.0,0.0,0.0,0.0,0.0,0.0,0.0,0.0,0.0,0.0,0.0,0.0,0.0,0.0,-2.5283,-2.5391,-2.5391,-2.5421,-2.5484,-2.5558,-2.5598,-2.5601,-2.5661,-2.5703,-2.5703,-2.5703,-2.6109,-2.6863,-2.6863,-2.7305,-2.8054,-2.7973,-2.883,-3.0275,-2.9429,-2.9449,-3.0013,-3.0278,-3.0042,-2.9701,-3.0924,-3.1266,-3.1069,0.0,0.0,0.0,0.0,0.0,0.0,0.0,0.0,0.0,0.0,0.0,0.0,0.0,0.0,0.0,-1.8555,-1.7207,-1.6348,-1.6348,-1.5742,-1.5391,-1.5391,-1.5391,-1.5391,0.0,0.0,0.0,0.0,0.0,0.0,0.0,0.0,0.0,0.0,-2.0384,-2.1237,-2.1398,-2.3192,0.0,0.0,-2.3688,-2.2299,0.0,0.0,0.0,0.0,0.0,-2.0458,-2.0106,0.0,-1.9289,-1.7688,0.0,0.0,0.0,0.0,0.0,0.0,-1.5409,0.0,0.0,0.0,0.0,0.0,0.0,0.0,0.0,0.0,0.0,0.0,0.0,0.0,0.0,0.0,0.0,0.0,0.0,0.0,0.0,0.0,0.0,0.0,0.0,0.0,0.0,0.0,-2.4178,-2.4042,-2.5263,-2.534,-2.5354,-2.5441,-2.5447,-2.5488,-2.5535,-2.5598,-2.5633,-2.5633,-2.5682,-2.582,-2.6032,-2.598,-2.6431,-2.7192,-2.6495,-2.7128,-2.8685,-2.8991,-2.9194,-2.9404,-2.9909,-3.0396,-3.0795,-3.0823,-3.116,-3.1559,0.0,0.0,0.0,0.0,0.0,0.0,0.0,0.0,0.0,0.0,0.0,0.0,0.0,0.0,0.0,-1.9297,-1.8047,-1.709,-1.6719,-1.6211,-1.5781,-1.543,-1.5391,-1.5391,0.0,0.0,0.0,0.0,0.0,0.0,0.0,0.0,0.0,0.0,0.0,0.0,0.0,0.0,0.0,0.0,-2.3211,0.0,0.0,-2.3533,-2.2811,0.0,0.0,0.0,-2.2481,-2.2449,-2.0875,0.0,0.0,0.0,0.0,0.0,0.0,0.0,0.0,0.0,0.0,0.0,0.0,0.0,-1.7237,-1.4678,0.0,0.0,0.0,0.0,0.0,0.0,0.0,0.0,0.0,0.0,0.0,0.0,0.0,0.0,0.0,0.0,0.0,0.0,0.0,-2.5091,-2.423,-2.4177,-2.5245,-2.5303,-2.5322,-2.5354,-2.5383,-2.5415,-2.5465,-2.5511,-2.5567,-2.5601,-2.5636,-2.5662,-2.5703,-2.566,-2.5929,-2.6374,-2.5798,-2.6072,-2.7018,-2.7786,-2.8308,-2.8679,-2.936,-2.992,-3.0376,-3.0351,-3.0584,-3.0876,0.0,0.0,0.0,0.0,0.0,0.0,0.0,0.0,0.0,0.0,0.0,0.0,0.0,0.0,0.0,0.0,-1.875,-1.7773,-1.6894,-1.6758,-1.6348,-1.5586,-1.5547,-1.5547,-1.5547,0.0,0.0,0.0,0.0,0.0,0.0,0.0,0.0,0.0,0.0,0.0,0.0,0.0,0.0,-2.4486,-2.1867,-2.3867,0.0,0.0,-2.4559,0.0,-2.6083,-2.587,-2.5108,-2.5042,-2.3093,0.0,0.0,0.0,0.0,0.0,-1.5488,0.0,0.0,0.0,0.0,0.0,0.0,0.0,-1.9088,-1.7118,-1.4863,0.0,0.0,0.0,0.0,0.0,0.0,0.0,0.0,0.0,0.0,0.0,0.0,0.0,0.0,0.0,0.0,-2.4654,-2.4775,-2.4804,-2.4911,-2.5088,-2.5303,-2.5303,-2.5303,-2.5303,-2.5354,-2.5383,-2.5391,-2.5465,-2.5526,-2.557,-2.5598,-2.5633,-2.5683,-2.5703,-2.5703,-2.5703,-2.5636,-2.5567,-2.5576,-2.6275,-2.7041,-2.7832,-2.864,-2.8967,-2.9052,-2.9631,-2.9703,-2.9451,0.0,0.0,0.0,0.0,0.0,0.0,0.0,0.0,0.0,0.0,0.0,0.0,0.0,0.0,0.0,0.0,0.0,-1.8672,-1.7793,-1.709,-1.6621,-1.6445,-1.6445,-1.6445,-1.6445,-1.6445,0.0,0.0,0.0,0.0,0.0,0.0,0.0,0.0,0.0,0.0,0.0,0.0,0.0,-2.0577,-2.2585,0.0,-2.4251,-2.559,-2.4138,-2.1731,-2.455,-2.4627,-2.34,0.0,-2.2948,-2.2057,0.0,0.0,0.0,0.0,0.0,0.0,0.0,0.0,0.0,0.0,0.0,0.0,-1.6213,-1.3708,-1.2798,0.0,0.0,0.0,0.0,0.0,0.0,0.0,0.0,0.0,0.0,0.0,0.0,0.0,0.0,0.0,0.0,-2.4545,-2.4623,-2.479,-2.4911,-2.5088,-2.5303,-2.5303,-2.5303,-2.5303,-2.5313,-2.5322,-2.5322,-2.5391,-2.5428,-2.5447,-2.5551,-2.5605,-2.5611,-2.5682,-2.5703,-2.5703,-2.5683,-2.5637,-2.559,-2.5756,-2.6236,-2.6948,-2.7794,-2.8121,-2.8206,-2.8823,-2.856,-2.8074,0.0,0.0,0.0,0.0,0.0,0.0,0.0,0.0,0.0,0.0,0.0,0.0,0.0,0.0,0.0,0.0,0.0,0.0,0.0,0.0,-1.7148,-1.6719,-1.6289,-1.6055,-1.6055,-1.6055,-1.584,0.0,0.0,0.0,0.0,0.0,0.0,0.0,0.0,0.0,0.0,0.0,-1.6867,-1.9383,-2.1418,0.0,-2.3675,-2.534,-2.4666,-2.3052,-2.4756,-2.4842,-2.4135,-2.3696,-2.3302,0.0,0.0,-1.9977,-1.8022,0.0,-1.7383,-1.6055,0.0,0.0,0.0,-1.5508,0.0,0.0,0.0,-1.4067,-1.4284,0.0,0.0,0.0,0.0,0.0,0.0,0.0,0.0,0.0,0.0,0.0,0.0,0.0,0.0,0.0,0.0,-2.4133,-2.4426,-2.4639,-2.4814,-2.4968,-2.5141,-2.5253,-2.5303,-2.5303,-2.5303,-2.5303,-2.5303,-2.533,-2.5379,-2.5394,-2.5477,-2.5543,-2.5603,-2.5634,-2.5662,-2.5703,-2.5703,-2.5661,-2.5601,-2.5601,-2.5761,-2.609,-2.6958,-2.7268,-2.7341,-2.8068,-2.7982,-2.7594,0.0,0.0,0.0,0.0,0.0,0.0,0.0,0.0,0.0,0.0,0.0,0.0,0.0,0.0,0.0,0.0,0.0,0.0,0.0,0.0,0.0,-1.6992,-1.6289,-1.582,-1.5644,-1.5644,-1.5566,0.0,0.0,0.0,0.0,0.0,0.0,0.0,0.0,0.0,0.0,0.0,0.0,-1.9545,0.0,-2.2235,-2.3987,-2.5138,-2.5379,-2.5117,-2.5348,-2.544,-2.5333,-2.4316,0.0,-2.3157,-2.3592,-2.1097,0.0,0.0,0.0,0.0,0.0,0.0,0.0,0.0,0.0,-1.5391,0.0,0.0,0.0,-1.9028,0.0,0.0,0.0,0.0,0.0,0.0,0.0,0.0,0.0,0.0,0.0,0.0,0.0,0.0,0.0,-2.3142,-2.3953,-2.4459,-2.4654,-2.4828,-2.4998,-2.5152,-2.5264,-2.5303,-2.5303,-2.5303,-2.5303,-2.5303,-2.5321,-2.5383,-2.5379,-2.5465,-2.5561,-2.5595,-2.5633,-2.5683,-2.5683,-2.5662,-2.5629,-2.5629,-2.5543,-2.5485,-2.618,-2.6417,-2.6467,-2.7332,-2.7409,-2.7122,-2.0312,-2.0312,0.0,0.0,0.0,0.0,0.0,0.0,0.0,0.0,0.0,0.0,0.0,0.0,0.0,0.0,0.0,0.0,-2.166,0.0,0.0,-1.793,-1.7754,-1.7344,-1.6562,-1.6543,-1.6172,-1.5391,0.0,0.0,0.0,0.0,0.0,0.0,-1.5391,0.0,0.0,0.0,-1.938,0.0,-2.2853,-2.3478,0.0,-2.565,-2.5621,-2.4427,-2.5201,-2.5484,-2.5255,0.0,-2.3082,-2.2901,0.0,-2.0163,-1.8106,0.0,0.0,0.0,0.0,0.0,0.0,0.0,-1.5391,0.0,0.0,0.0,-1.5507,-1.5918,0.0,0.0,0.0,0.0,0.0,0.0,0.0,0.0,0.0,0.0,0.0,0.0,0.0,0.0,0.0,0.0,-2.2736,-2.4383,-2.4528,-2.4682,-2.4967,-2.5022,-2.513,-2.5284,-2.5303,-2.5303,-2.5303,-2.5303,-2.5293,-2.5313,-2.5379,-2.5413,-2.5428,-2.5551,-2.5603,-2.5607,-2.5662,-2.5703,-2.5683,-2.5683,-2.5605,-2.5493,-2.5538,-2.5517,-2.5553,-2.6428,-2.6245,-2.5742,-2.0312,-2.0312,0.0,0.0,0.0,0.0,0.0,0.0,0.0,0.0,0.0,0.0,0.0,0.0,0.0,0.0,0.0,-2.7598,0.0,0.0,0.0,0.0,-1.9336,0.0,-1.8203,-1.7227,-1.6523,-1.6152,-1.5644,0.0,0.0,0.0,0.0,0.0,-1.5391,0.0,-1.8066,0.0,0.0,0.0,0.0,0.0,0.0,-2.5265,-2.5581,-2.4927,-2.4287,-2.4709,-2.5195,0.0,-2.2893,0.0,0.0,0.0,0.0,0.0,0.0,0.0,0.0,0.0,0.0,0.0,0.0,0.0,-1.5391,0.0,-1.5391,0.0,0.0,0.0,0.0,0.0,0.0,0.0,0.0,0.0,0.0,0.0,0.0,0.0,0.0,0.0,0.0,0.0,0.0,0.0,0.0,-2.3272,-2.343,-2.453,-2.5214,-2.5303,-2.5303,-2.5303,-2.5303,-2.5303,-2.5303,-2.5303,-2.5321,-2.5363,-2.5406,-2.5465,-2.5517,-2.5551,-2.5607,-2.5637,-2.5637,-2.5683,-2.5637,-2.5554,-2.5473,-2.5398,-2.5341,-2.5707,-2.561,-2.5389,-2.0119,0.0,0.0,0.0,0.0,0.0,0.0,0.0,0.0,0.0,0.0,0.0,-3.207,-3.1465,0.0,0.0,0.0,-3.1387,0.0,0.0,-2.4394,0.0,0.0,0.0,0.0,-1.8066,-1.7187,-1.6699,0.0,0.0,0.0,0.0,0.0,0.0,0.0,-1.6367,-1.8086,0.0,0.0,-2.2341,-2.3571,-2.3991,-2.3984,-2.4854,-2.5378,-2.5453,-2.4196,-2.4569,-2.5213,-2.2236,-2.2902,0.0,-2.2812,0.0,0.0,0.0,0.0,0.0,-1.9316,0.0,0.0,0.0,0.0,0.0,0.0,0.0,0.0,0.0,0.0,0.0,0.0,0.0,0.0,0.0,0.0,0.0,0.0,0.0,0.0,0.0,0.0,0.0,0.0,0.0,0.0,-2.1124,-2.1667,-2.2061,-2.2331,-2.4178,-2.5234,-2.5303,-2.5303,-2.5303,-2.5303,-2.5303,-2.5303,-2.5303,-2.5303,-2.5331,-2.5379,-2.5398,-2.5428,-2.5488,-2.5547,-2.5573,-2.5603,-2.5659,-2.5643,-2.5598,-2.5551,-2.5459,-2.5346,-2.5313,-2.5303,-2.5303,-1.9658,-2.0312,0.0,0.0,0.0,0.0,0.0,0.0,0.0,0.0,0.0,0.0,0.0,0.0,0.0,0.0,0.0,-3.2168,-3.207,0.0,-2.668,0.0,0.0,-2.0996,0.0,0.0,-1.8398,-1.6699,0.0,0.0,0.0,0.0,0.0,0.0,0.0,-1.6367,-1.8164,-2.0586,-2.2177,-2.3276,-2.5771,-2.6316,-2.5527,0.0,-2.4961,-2.5683,-2.5625,0.0,0.0,-2.367,-2.3139,0.0,0.0,0.0,0.0,0.0,0.0,0.0,0.0,0.0,0.0,-1.9141,0.0,0.0,0.0,0.0,-1.5391,0.0,0.0,0.0,0.0,0.0,0.0,0.0,0.0,0.0,0.0,0.0,0.0,0.0,0.0,0.0,0.0,0.0,0.0,-1.9707,-2.0558,-2.1469,-2.2448,-2.4083,-2.5099,-2.5284,-2.5303,-2.5303,-2.5303,-2.5303,-2.5303,-2.5303,-2.5303,-2.5313,-2.5313,-2.536,-2.5394,-2.5401,-2.5463,-2.5543,-2.5601,-2.5603,-2.5604,-2.5601,-2.5601,-2.5554,-2.5488,-2.5357,-2.5303,-2.5303,0.0,0.0,0.0,0.0,0.0,0.0,0.0,-2.5332,0.0,0.0,0.0,0.0,0.0,0.0,-3.8066,0.0,0.0,-3.75,-3.4082,-3.3027,0.0,0.0,0.0,-2.623,0.0,0.0,0.0,0.0,0.0,0.0,0.0,0.0,0.0,0.0,0.0,-1.6367,0.0,0.0,0.0,0.0,0.0,-2.5077,-2.4863,0.0,0.0,-2.5683,-2.5658,-2.5658,0.0,-2.3701,-2.3899,-2.4627,-2.3515,-2.2754,-2.2598,-2.4336,-2.2832,0.0,0.0,0.0,-2.2129,-2.1348,0.0,0.0,0.0,0.0,0.0,0.0,0.0,0.0,0.0,0.0,0.0,0.0,0.0,0.0,0.0,0.0,0.0,0.0,0.0,0.0,0.0,0.0,0.0,-1.6303,-1.732,-1.8042,0.0,-2.1675,-2.3573,-2.3639,-2.4716,-2.5303,-2.5303,-2.5303,-2.5303,-2.5303,-2.5303,-2.5303,-2.5303,-2.5312,-2.5339,-2.5339,-2.5394,-2.5463,-2.5543,-2.5573,-2.564,-2.566,-2.5629,-2.5595,-2.5551,-2.5408,-2.5379,-2.5363,-1.9061,0.0,0.0,0.0,0.0,0.0,0.0,0.0,0.0,0.0,-3.5371,0.0,-4.0859,0.0,-4.0742,0.0,-4.0957,-3.9902,-3.7187,-3.4707,0.0,-3.2656,-3.0625,0.0,0.0,0.0,0.0,0.0,0.0,-1.7461,0.0,0.0,0.0,0.0,0.0,0.0,0.0,0.0,-2.2051,0.0,0.0,-2.4316,0.0,0.0,-2.5352,-2.6113,0.0,-2.5658,-2.5504,-2.4406,-2.4758,-2.5486,-2.4414,-2.4062,-2.4258,-2.5371,-2.4141,-2.2656,-2.3789,-2.4082,0.0,-2.3613,-2.2402,0.0,-1.9785,0.0,0.0,0.0,0.0,0.0,0.0,0.0,0.0,0.0,0.0,0.0,0.0,-1.2049,0.0,0.0,0.0,0.0,0.0,0.0,-1.3392,-1.4341,-1.5342,-1.6165,0.0,0.0,-2.2681,-2.2681,-2.4268,-2.5149,-2.5184,-2.5184,-2.5224,-2.5303,-2.5303,-2.5303,-2.5303,-2.5303,-2.5303,-2.5293,-2.5357,-2.5394,-2.5482,-2.5543,-2.5603,-2.5662,-2.5641,-2.5634,-2.5629,-2.5465,-2.5391,-2.5363,0.0,0.0,0.0,0.0,-2.2114,0.0,0.0,0.0,-3.4531,0.0,-4.1933,-4.3594,-4.1543,-4.0625,-4.0703,-4.209,-4.0039,0.0,-4.0781,-3.4805,0.0,0.0,-2.9707,-2.7422,-2.7148,0.0,0.0,0.0,0.0,0.0,0.0,0.0,0.0,0.0,-1.5391,0.0,-1.5625,-1.9121,-2.0644,-2.0859,-2.2363,-2.4043,-2.5449,-2.375,-2.4727,-2.6894,-2.6016,-2.566,-2.5607,-2.5683,-2.566,-2.5627,-2.5683,-2.5703,-2.5703,-2.5703,-2.5703,-2.5703,-2.5703,-2.5703,-2.5703,-2.5703,0.0,0.0,0.0,0.0,-2.168,0.0,0.0,0.0,0.0,0.0,0.0,0.0,0.0,0.0,0.0,0.0,0.0,0.0,0.0,0.0,0.0,-1.2786,-1.3723,-1.3761,-1.4574,0.0,0.0,0.0,-2.2337,-2.2509,-2.3859,-2.4726,-2.5022,-2.4927,-2.5034,-2.5303,-2.5303,-2.5303,-2.5303,-2.5303,-2.5303,-2.5303,-2.5303,-2.5339,-2.5401,-2.5477,-2.5543,-2.5605,-2.5662,-2.5703,-2.5662,-2.5488,-2.5371,-2.5293,-2.1448,-2.1816,-2.2547,0.0,-2.4261,-2.5737,0.0,0.0,0.0,0.0,-3.9625,-4.1581,-4.2856,-4.3415,-4.2578,-3.9824,-3.957,0.0,0.0,0.0,0.0,-3.5332,-3.5527,-3.3516,-2.9023,-2.998,0.0,-2.4727,0.0,0.0,-1.9863,0.0,0.0,0.0,0.0,0.0,-1.5625,-1.9073,-2.1273,-2.2389,-2.1561,-2.2637,0.0,0.0,-2.4727,-2.6894,-2.6016,-2.5683,-2.5682,-2.5683,-2.5683,-2.5683,-2.5683,-2.5703,-2.5703,-2.5703,-2.5703,-2.5684,-2.5644,-2.5664,-2.5703,-2.5703,-2.4766,-2.3496,0.0,0.0,0.0,0.0,0.0,0.0,0.0,0.0,0.0,0.0,0.0,0.0,0.0,0.0,0.0,-1.2785,0.0,0.0,-1.056,-1.0825,-1.1344,-1.1983,-1.2849,-1.4354,0.0,0.0,0.0,-2.2652,-2.1895,-2.2661,-2.5205,-2.3995,-2.4034,-2.5303,-2.5303,-2.5303,-2.5303,-2.5303,-2.5303,-2.5303,-2.5303,-2.5339,-2.5406,-2.5415,-2.5484,-2.5603,-2.5629,-2.5624,-2.5607,-2.5503,-2.5434,-2.5282,-2.1945,0.0,0.0,-2.3858,0.0,0.0,-2.9394,0.0,0.0,-3.8448,-4.0701,0.0,-4.3527,-4.4451,-4.3867,-4.1074,-3.9219,0.0,0.0,0.0,0.0,-3.6484,-3.5703,-3.3281,-2.9121,-2.998,0.0,-2.5137,0.0,0.0,-2.1074,0.0,0.0,0.0,0.0,-1.5391,0.0,-1.9046,-2.1516,-2.302,-2.2047,0.0,0.0,-2.3547,-2.4468,-2.6324,-2.5879,-2.5703,-2.5703,-2.5703,-2.5703,-2.5703,-2.5703,-2.5703,-2.5684,-2.5664,-2.5664,-2.5644,-2.5566,-2.5588,-2.5613,-2.5642,-2.4917,-2.4124,-2.3778,-2.3696,-2.3538,0.0,0.0,0.0,0.0,0.0,0.0,0.0,0.0,0.0,0.0,0.0,0.0,0.0,-1.3627,0.0,-1.1387,-1.0887,-1.1175,-1.2401,-1.2945,-1.4022,0.0,0.0,0.0,-2.0392,-2.089,-2.1731,-2.2968,-2.2048,-2.246,-2.4216,-2.4216,-2.4601,-2.5303,-2.5303,-2.5303,-2.5303,-2.5303,-2.5331,-2.5354,-2.5415,-2.5265,-2.4953,-2.4633,-2.4512,-2.4505,-2.4425,-2.461,-2.474,0.0,0.0,0.0,0.0,0.0,0.0,0.0,-3.4452,0.0,-4.0781,0.0,-4.4062,-4.3417,-4.4121,-4.4219,-4.3125,0.0,-3.7402,-4.0332,-3.4082,-3.2324,-3.6934,-3.3457,-3.0527,-2.8672,-2.8633,0.0,0.0,0.0,0.0,0.0,0.0,0.0,0.0,0.0,0.0,0.0,-1.8984,-2.1294,0.0,-2.3022,-2.3864,-2.5046,-2.3858,-2.4325,-2.5598,-2.5661,-2.5683,-2.5703,-2.5703,-2.5703,-2.5703,-2.5703,-2.5703,-2.5684,-2.5625,-2.5605,-2.5586,-2.5522,-2.5502,-2.5509,-2.5556,-2.5538,-2.5498,-2.5508,-2.5496,-2.5526,-2.5567,-2.5595,-2.5113,0.0,0.0,0.0,0.0,0.0,0.0,0.0,0.0,0.0,0.0,0.0,0.0,0.0,-1.2142,-1.2214,-1.3786,-1.3896,-1.4382,0.0,0.0,0.0,-1.7832,-2.0377,0.0,-2.0383,0.0,-2.1072,-2.312,-2.2889,-2.3678,-2.5303,-2.5303,-2.5303,-2.5303,-2.5303,-2.5293,-2.5312,-2.5324,-2.4822,-2.3988,-2.3355,-2.3101,-2.3083,-2.2898,-2.3187,-2.3605,0.0,0.0,0.0,0.0,0.0,-3.2268,-3.5802,-3.7882,-3.9569,-4.1015,-4.2129,-4.2459,-4.1565,-4.2301,-4.1953,-3.9687,-3.8008,0.0,0.0,0.0,0.0,-3.6152,-3.4824,-3.291,-3.0508,-3.0449,-2.949,0.0,0.0,0.0,0.0,0.0,0.0,0.0,0.0,0.0,-1.9469,-1.8685,0.0,-2.2934,-2.2979,-2.3179,-2.3553,-2.4661,-2.5254,-2.5535,-2.5598,-2.5659,-2.5703,-2.5703,-2.5703,-2.5703,-2.5703,-2.5703,-2.5703,-2.5684,-2.5644,-2.5599,-2.5525,-2.5493,-2.5486,-2.5451,-2.5462,-2.5506,-2.5493,-2.5498,-2.5493,-2.5526,-2.5526,-2.541,-2.5122,0.0,0.0,0.0,0.0,0.0,0.0,0.0,0.0,0.0,0.0,0.0,0.0,0.0,0.0,0.0,0.0,0.0,0.0,0.0,0.0,0.0,-1.9641,0.0,0.0,0.0,-2.1805,-2.4851,-2.3466,-2.3678,-2.5303,-2.5303,-2.5303,-2.5303,-2.5303,-2.5321,-2.5337,-2.4631,-2.3922,-2.3271,-2.3144,-2.3091,-2.3003,-2.2158,-2.1504,-2.1132,0.0,0.0,0.0,0.0,0.0,0.0,0.0,-4.1577,0.0,-4.1191,-4.1894,-4.207,-4.1205,-4.1503,-4.1094,-3.9414,-3.7246,-3.5976,-3.5996,-3.4375,-3.3789,-3.4609,-3.3848,0.0,-2.8945,-2.9316,-2.8669,-2.6847,0.0,0.0,0.0,0.0,0.0,0.0,0.0,-1.7546,0.0,0.0,0.0,-2.2982,-2.384,-2.4196,-2.4281,-2.5124,-2.544,-2.5463,-2.5554,-2.5615,-2.5644,-2.5684,-2.5703,-2.5703,-2.5703,-2.5703,-2.5684,-2.5625,-2.5566,-2.5538,-2.5418,-2.5409,-2.539,-2.537,-2.537,-2.5399,-2.5395,-2.5398,-2.5413,-2.5447,-2.5453,-2.5174,-2.4311,-2.3501,0.0,0.0,0.0,0.0,0.0,0.0,0.0,0.0,0.0,0.0,0.0,0.0,0.0,0.0,0.0,0.0,0.0,0.0,0.0,0.0,0.0,0.0,0.0,0.0,0.0,-2.3985,-2.3197,-2.3678,-2.5303,-2.5303,-2.5322,-2.5327,-2.4866,-2.4718,-2.4671,-2.3422,-2.2714,-2.2383,-2.1923,-2.1701,-2.1539,-2.0642,-2.0044,-1.9786,0.0,-2.8974,0.0,0.0,-3.0837,0.0,-4.393,-4.3053,-4.1507,-4.1562,-4.1738,-4.1621,-4.0996,-4.0762,-4.0078,-3.8633,-3.6348,-3.4805,-3.4394,-3.3164,-3.25,-3.2598,-3.2168,-3.0469,-2.7344,-2.7753,-2.7219,0.0,0.0,0.0,0.0,0.0,0.0,0.0,0.0,0.0,0.0,0.0,-2.311,-2.3512,-2.4793,-2.5303,-2.5322,-2.5363,-2.5372,-2.5381,-2.5512,-2.5554,-2.557,-2.5658,-2.5682,-2.5703,-2.5703,-2.5684,-2.5664,-2.5547,-2.5504,-2.5464,-2.5354,-2.5303,-2.5303,-2.5303,-2.5303,-2.5303,-2.5303,-2.5303,-2.5322,-2.5379,-2.5368,-2.4972,-2.365,-2.4445,0.0,0.0,0.0,0.0,0.0,0.0,0.0,0.0,0.0,0.0,0.0,0.0,0.0,0.0,0.0,0.0,0.0,0.0,0.0,0.0,0.0,-2.0119,-2.0312,0.0,-2.1331,0.0,-2.2966,-2.3678,-2.5303,-2.5313,-2.5346,-2.5355,-2.4483,-2.3958,-2.3572,-2.2309,-2.1679,-2.1435,-2.0726,-2.0286,-1.9959,-1.9328,-1.8808,-1.8544,0.0,0.0,0.0,0.0,0.0,0.0,0.0,-3.9326,-3.9058,-4.2304,-4.1211,-4.0117,-4.0039,-3.9316,-3.7539,-3.4297,-3.5156,-3.3926,-2.9316,-3.1699,-3.2285,-3.0059,-3.0644,-3.0137,-2.8223,-2.7414,-2.6526,0.0,0.0,0.0,0.0,0.0,0.0,0.0,0.0,0.0,0.0,-2.277,-2.3747,-2.5091,-2.5236,-2.5303,-2.5303,-2.5303,-2.5313,-2.5313,-2.5389,-2.5427,-2.5432,-2.5565,-2.5659,-2.5703,-2.5703,-2.5664,-2.5605,-2.5586,-2.5492,-2.5407,-2.5399,-2.5341,-2.5303,-2.5303,-2.5303,-2.5303,-2.5303,-2.5303,-2.5313,-2.5303,-2.5303,-2.5255,-2.5091,-2.5208,-2.4509,0.0,0.0,0.0,0.0,0.0,0.0,0.0,0.0,0.0,0.0,0.0,0.0,0.0,0.0,0.0,0.0,0.0,0.0,-1.7683,0.0,-1.9511,-2.0292,-2.0312,-2.19,-2.5053,-2.3524,-2.3678,-2.5293,-2.5363,-2.5391,-2.5355,-2.4533,-2.3325,-2.1912,-2.1774,-2.1246,-2.0531,-2.0376,-1.9879,-1.9204,-1.9053,-1.7968,-1.6689,0.0,0.0,0.0,0.0,0.0,0.0,0.0,-4.0645,-3.9922,-4.1434,-4.0407,-3.939,-3.8982,-3.8159,-3.6887,-3.4995,-3.4995,-3.3785,-3.0661,-3.1737,-3.1601,-2.9572,-2.9806,-2.9182,-2.7449,-2.7023,-2.6651,0.0,0.0,0.0,0.0,0.0,0.0,0.0,0.0,-2.2211,-2.2901,-2.3914,-2.4716,-2.5303,-2.5303,-2.5303,-2.5303,-2.5303,-2.5303,-2.5303,-2.5428,-2.5466,-2.5457,-2.5517,-2.5565,-2.5586,-2.5664,-2.5654,-2.5582,-2.5543,-2.5499,-2.5447,-2.537,-2.5322,-2.5303,-2.5303,-2.5303,-2.5303,-2.5303,-2.5303,-2.5303,-2.5303,-2.5303,-2.5303,-2.5303,-2.5312,-2.4673,0.0,0.0,0.0,0.0,0.0,0.0,0.0,0.0,0.0,0.0,0.0,0.0,0.0,0.0,0.0,0.0,0.0,0.0,-1.9927,0.0,-2.0908,-2.3284,-2.2293,-2.2985,-2.5284,-2.4662,-2.4714,-2.5371,-2.5428,-2.4924,-2.3965,-2.313,-2.207,-2.0989,-2.0948,-2.0686,-2.0332,-2.0305,-2.0109,-1.974,-1.9104,-1.8128,-1.702,-3.8245,0.0,-3.6958,0.0,-3.5359,-3.6358,-4.1732,-4.1466,-4.0479,-4.0037,-3.8926,-3.815,-3.8079,-3.7203,-3.6255,-3.5346,-3.4555,-3.2849,-2.9822,-3.082,-3.0534,-2.8354,-2.8743,0.0,-2.6822,-2.6529,-2.6372,-2.6328,-2.3313,0.0,0.0,0.0,0.0,0.0,-2.2793,-2.3543,-2.3601,-2.4812,-2.5303,-2.5303,-2.5303,-2.5303,-2.5303,-2.5303,-2.5303,-2.5303,-2.5409,-2.5447,-2.5447,-2.5447,-2.5441,-2.5453,-2.559,-2.5643,-2.5605,-2.5524,-2.5466,-2.5428,-2.5322,-2.5303,-2.5303,-2.5303,-2.5303,-2.5303,-2.5303,-2.5303,-2.5303,-2.5303,-2.5303,-2.5274,-2.5224,-2.5214,-2.4667,-2.2997,0.0,0.0,0.0,0.0,0.0,0.0,-2.1165,-2.099,-2.2282,0.0,0.0,0.0,0.0,0.0,0.0,0.0,0.0,0.0,0.0,0.0,0.0,-2.2791,-2.3157,-2.533,-2.5376,-2.5401,-2.5415,-2.5236,-2.4394,-2.3042,-2.2158,-2.1252,-2.0435,-2.0381,-2.0344,-2.0296,-2.0296,-1.9971,-1.9419,-1.8703,-1.7726,-1.6658,-4.0466,-4.0446,-3.9927,-3.8257,-3.795,-3.8527,-4.0273,-4.0523,-3.9908,-3.8238,-3.6584,-3.6049,-3.7361,-3.6442,-3.5254,-3.4124,-3.3529,-3.0671,-2.4674,-2.826,-2.9107,0.0,0.0,-2.7707,-2.6822,-2.5894,-2.5413,-2.5413,0.0,0.0,-2.2774,0.0,-2.2754,-2.2831,-2.4524,-2.5264,-2.5264,-2.5284,-2.5303,-2.5303,-2.5303,-2.5303,-2.5303,-2.5303,-2.5303,-2.5303,-2.5303,-2.5303,-2.5303,-2.5303,-2.5293,-2.5332,-2.5457,-2.5592,-2.5676,-2.5541,-2.5409,-2.5303,-2.5303,-2.5303,-2.5303,-2.5303,-2.5303,-2.5303,-2.5303,-2.5303,-2.5303,-2.5303,-2.5303,-2.5253,-2.5034,-2.4991,-2.448,-2.2863,0.0,0.0,0.0,0.0,0.0,0.0,-1.8858,-1.8808,-2.1281,0.0,0.0,0.0,0.0,0.0,0.0,0.0,0.0,-2.0367,-1.7901,0.0,-2.1604,-2.0762,-2.2049,-2.5413,-2.5406,-2.5428,-2.5474,-2.4684,-2.3864,-2.3049,-2.2114,-2.1162,-2.0307,-2.0292,-2.0292,-2.0292,-2.0292,-1.92,-1.7625,-1.7625,-1.6384,-1.4856,-3.7405,-3.7128,-3.6689,-3.5434,-3.644,-3.7757,-3.8661,-3.8796,-3.818,-3.6526,-3.6315,-3.5984,-3.5076,-3.4803,-3.4075,0.0,-3.0704,-2.9261,0.0,-2.7569,-2.7083,-2.7129,-2.5998,-2.4981,-2.4092,-2.3782,-2.3623,-2.3623,0.0,0.0,0.0,-2.2793,-2.3408,-2.4524,-2.5053,-2.5303,-2.5303,-2.5303,-2.5303,-2.5303,-2.5303,-2.5303,-2.5303,-2.5303,-2.5303,-2.5303,-2.5303,-2.5303,-2.5303,-2.5303,-2.5303,-2.5303,-2.5341,-2.5388,-2.5432,-2.5486,-2.5409,-2.5303,-2.5303,-2.5303,-2.5303,-2.5303,-2.5303,-2.5303,-2.5303,-2.5303,-2.5303,-2.5303,-2.5203,-2.5077,-2.501,-2.493,-2.4301,-2.2596,-2.3419,0.0,0.0,0.0,0.0,0.0,-2.0997,-2.0874,0.0,-2.1639,0.0,0.0,0.0,0.0,0.0,0.0,0.0,0.0,-2.1528,0.0,-2.4107,-2.2714,-2.3149,-2.5394,-2.5453,-2.5219,-2.4717,-2.3921,-2.3066,-2.2168,-2.1214,-2.0614,-2.0301,-2.0292,-2.0233,-2.0058,-1.9596,-1.8948,-1.8212,-1.7606,-1.6601,-1.562,-3.6385,-3.5407,-3.4601,-3.4274,-3.5388,-3.6504,-3.6993,-3.7065,-3.6699,-3.5641,-3.5372,-3.4814,-3.3603,-3.3333,0.0,-3.1333,-3.007,-2.9368,-2.9467,-2.7778,-2.6824,-2.6909,-2.5717,-2.462,-2.3755,0.0,0.0,-2.3735,-2.3735,-2.3735,-2.3735,-2.3735,-2.4293,-2.5303,-2.5303,-2.5264,-2.5203,-2.5187,-2.5168,-2.511,-2.5107,-2.5137,-2.5187,-2.5187,-2.5226,-2.5303,-2.5303,-2.5303,-2.5303,-2.5303,-2.5303,-2.5303,-2.5303,-2.5303,-2.5322,-2.5409,-2.537,-2.5303,-2.5303,-2.5303,-2.5303,-2.5303,-2.5303,-2.5303,-2.5303,-2.5234,-2.5192,-2.5192,-2.5041,-2.4898,-2.4831,-2.4737,-2.4332,-2.3251,-2.4223,-2.4727,-2.3614,0.0,0.0,0.0,0.0,0.0,0.0,-2.2793,0.0,0.0,0.0,0.0,0.0,0.0,0.0,-2.3639,-2.2731,0.0,-2.4829,-2.3484,-2.367,-2.5394,-2.5484,-2.5305,-2.4844,-2.3711,-2.2847,-2.2171,-2.0931,-2.0362,-2.0295,-2.0219,-1.9943,-1.9506,-1.9037,-1.8327,-1.7512,-1.6966,-1.6127,-1.536,-3.6547,-3.494,0.0,0.0,-3.4737,0.0,-3.5446,-3.5479,-3.546,-3.5493,-3.4026,-3.2929,-3.2852,-3.2148,-3.1309,-3.0444,0.0,0.0,0.0,-2.8439,-2.7747,-2.5495,-2.6005,-2.5967,-2.513,-2.513,-2.5168,-2.5303,-2.5303,-2.5303,-2.5303,-2.5303,-2.5303,-2.5303,-2.5293,-2.5173,-2.4996,-2.5001,-2.4908,-2.48,-2.4806,-2.4879,-2.4992,-2.4983,-2.51,-2.5274,-2.5293,-2.5303,-2.5303,-2.5303,-2.5303,-2.5303,-2.5303,-2.5303,-2.5303,-2.5303,-2.5303,-2.5303,-2.5303,-2.5303,-2.5303,-2.5303,-2.5284,-2.5274,-2.5274,-2.5111,-2.4986,-2.4986,-2.4877,-2.4716,-2.4526,-2.4495,-2.4478,-2.4478,-2.4639,-2.479,-2.479,0.0,0.0,0.0,0.0,0.0,0.0,-2.2862,-2.3256,0.0,0.0,0.0,0.0,0.0,-2.1968,-2.312,-2.2134,-2.2414,-2.4176,-2.3383,-2.3785,-2.5401,-2.5547,-2.5577,-2.5469,-2.3906,-2.3056,-2.2723,-2.1091,-2.0349,-2.0285,-2.0078,-1.9554,-1.8848,-1.86,-1.7463,-1.5956,-1.5855,-1.5127,-1.4327,0.0,0.0,-3.3504,-3.2901,-3.3885,-3.4907,-3.5432,-3.5235,-3.5152,-3.546,-3.4391,-3.3256,-3.2391,-3.1755,-3.104,-3.0166,-2.8744,-2.7894,-2.7901,-2.6246,-2.5581,-2.6255,-2.462,-2.3601,-2.3389,-2.3389,-2.4024,-2.5303,-2.5303,-2.5303,-2.5303,-2.5303,-2.5303,-2.5284,-2.5141,-2.5034,-2.4992,-2.4905,-2.4827,-2.48,-2.4806,-2.482,-2.4845,-2.4851,-2.4947,-2.5096,-2.5241,-2.5308,-2.5303,-2.5303,-2.5303,-2.5303,-2.5303,-2.5303,-2.5303,-2.5303,-2.5303,-2.5303,-2.5303,-2.5303,-2.5303,-2.5303,-2.5116,-2.4943,-2.4981,-2.4917,-2.4842,-2.4842,-2.4697,-2.4561,-2.4512,-2.4375,-2.4266,-2.4266,-2.4426,-2.4173,-2.3016,-2.2699,0.0,0.0,-2.1434,-2.2078,-2.2312,-2.3556,-2.4138,0.0,0.0,0.0,0.0,-2.3221,-2.3519,-2.4722,-2.4485,-2.4562,-2.5014,-2.4803,-2.4976,-2.5488,-2.5607,-2.5019,-2.3789,-2.3335,-2.2357,-2.0994,-2.0536,-2.0302,-2.0285,-2.0078,-1.9839,-1.9431,-1.8113,-1.7225,-1.6527,-1.541,-1.4655,-1.4327,-3.1597,-3.2794,-3.3633,-3.3022,-3.3786,-3.4363,-3.4036,-3.4453,-3.4509,-3.3644,-3.2421,-3.159,-3.1592,-3.0982,-3.0067,-2.8833,-2.8071,-2.7627,-2.758,-2.6109,-2.5428,-2.5844,-2.463,-2.3947,-2.3947,-2.3947,-2.4389,-2.5303,-2.5303,-2.5303,-2.5303,-2.5303,-2.5303,-2.5284,-2.5088,-2.4972,-2.4903,-2.4723,-2.4615,-2.453,-2.4541,-2.4577,-2.4671,-2.4653,-2.477,-2.4936,-2.5215,-2.5304,-2.5302,-2.5302,-2.5302,-2.5313,-2.5294,-2.5297,-2.5288,-2.5312,-2.5303,-2.5303,-2.5303,-2.5303,-2.5293,-2.5299,-2.5164,-2.4986,-2.4803,-2.4728,-2.4707,-2.467,-2.4512,-2.4357,-2.4357,-2.4266,-2.419,-2.419,-2.3778,-2.3161,-2.2313,-2.1706,0.0,-2.1162,-2.1867,-2.2628,-2.3309,-2.4242,-2.4601,-2.4115,0.0,0.0,-2.4091,-2.3719,-2.4024,-2.5133,-2.5096,-2.5138,-2.5303,-2.5303,-2.5346,-2.5446,-2.5169,-2.4547,-2.3667,-2.2831,-2.1913,-2.0975,-2.0501,-2.0262,-2.0152,-1.9973,-1.9609,-1.9007,-1.7553,-1.6675,-1.6064,-1.48,-1.4152,-1.398,-3.3807,-3.3807,-3.3807,-3.3807,-3.3986,-3.3753,-3.261,-3.3436,-3.34,-3.1158,-2.9798,-2.9462,-3.064,-3.0112,-2.9039,-2.7476,-2.8051,-2.804,-2.6918,-2.6632,-2.6041,-2.5012,-2.513,-2.5222,-2.5222,-2.5222,-2.5233,-2.5264,-2.5264,-2.5264,-2.5303,-2.5303,-2.5274,-2.5253,-2.5053,-2.4904,-2.4741,-2.4546,-2.4346,-2.419,-2.419,-2.4301,-2.4448,-2.4448,-2.4576,-2.4791,-2.5051,-2.5209,-2.5286,-2.5158,-2.512,-2.513,-2.5127,-2.5215,-2.5297,-2.5297,-2.5222,-2.5156,-2.5274,-2.5303,-2.5292,-2.5306,-2.5227,-2.5032,-2.4639,-2.4535,-2.4517,-2.4462,-2.4321,-2.419,-2.419,-2.419,-2.4116,-2.3897,-2.2898,-2.2079,-2.1843,0.0,-2.0842,-2.2246,-2.2488,-2.3107,-2.4584,-2.4716,-2.4716,-2.4716,-2.4057,-2.3963,0.0,-2.4038,-2.3987,-2.4727,-2.478,-2.4942,-2.5222,-2.5244,-2.5234,-2.5178,-2.4509,-2.4107,-2.3857,-2.236,-2.1612,-2.1438,-2.0642,-2.0203,-2.0022,-1.9736,-1.9148,-1.8311,-1.6977,-1.603,-1.5279,-1.431,-1.3795,-1.3586,-3.3807,-3.3807,-3.3807,-3.3807,-3.3842,-3.3787,-3.3568,-3.2624,-3.1273,-2.9572,-2.9131,-2.9193,-2.9682,-2.9549,-2.9043,-2.8054,-2.7475,-2.6609,-2.5261,-2.575,-2.5726,-2.4865,-2.4855,-2.4888,-2.4888,-2.4888,-2.4917,-2.5046,-2.5046,-2.5122,-2.5303,-2.5303,-2.5214,-2.5034,-2.491,-2.4723,-2.4535,-2.4319,-2.4229,-2.419,-2.419,-2.4208,-2.4245,-2.4245,-2.4413,-2.4598,-2.4432,-2.4769,-2.521,-2.4582,-2.4379,-2.436,-2.437,-2.4809,-2.5291,-2.53,-2.4869,-2.4511,-2.5126,-2.5303,-2.5292,-2.5306,-2.4841,-2.4346,-2.4279,-2.4264,-2.4247,-2.4247,-2.4228,-2.419,-2.419,-2.419,-2.3768,-2.2473,-2.2092,-2.15,-2.0251,0.0,-2.1886,-2.1977,-2.3263,-2.4182,-2.4266,-2.4284,-2.4284,-2.4284,-2.4332,-2.4331,-2.4284,-2.4332,-2.4094,-2.3581,-2.4373,-2.4832,-2.4888,-2.5045,-2.4803,-2.4137,-2.4238,-2.3528,-2.2087,-2.181,-2.1266,-2.0516,-2.0366,-2.0276,-2.0175,-1.92,-1.8707,-1.8388,-1.654,-1.565,-1.5311,-1.4463,-1.3927,-1.3601,-3.2944,-3.3403,-3.3623,-3.3036,-3.2944,-3.2687,-3.1971,-3.1843,-3.1146,-2.9255,-2.8994,-2.8901,-2.8616,-2.8558,-2.8038,-2.6743,-2.6318,-2.5634,-2.4535,-2.5023,-2.5137,-2.4657,-2.4746,-2.4804,-2.4804,-2.4804,-2.4828,-2.4891,-2.4891,-2.4949,-2.5043,-2.5043,-2.4975,-2.4877,-2.4712,-2.4591,-2.4491,-2.4303,-2.419,-2.419,-2.419,-2.419,-2.419,-2.419,-2.4282,-2.4374,-2.4226,-2.4432,-2.4662,-2.4312,-2.4202,-2.4199,-2.4185,-2.4436,-2.4726,-2.4704,-2.4747,-2.4861,-2.521,-2.5306,-2.5298,-2.5291,-2.4752,-2.4188,-2.4208,-2.4192,-2.419,-2.419,-2.419,-2.419,-2.419,-2.419,-2.397,-2.3252,-2.2436,0.0,0.0,-2.1544,-2.1999,-2.1909,-2.3339,-2.4303,-2.4209,-2.419,-2.419,-2.419,-2.4284,-2.4303,-2.419,-2.3879,-2.3508,-2.3138,-2.3341,-2.3439,-2.3439,-2.3548,-2.3408,-2.3046,-2.2802,-2.2286,-2.1514,-2.1138,-2.0722,-2.0346,-2.0327,-2.0217,-2.002,-1.9009,-1.8432,-1.7982,-1.6114,-1.5275,-1.5023,-1.4114,-1.3556,-1.3261,-3.2008,-3.2669,-3.2981,-3.2155,-3.2008,-3.1659,-3.0632,-3.1237,-3.1201,-2.9512,-2.8883,-2.8429,-2.786,-2.7622,-2.6943,-2.5531,-2.5403,-2.5072,-2.4245,-2.4495,-2.4591,-2.4445,-2.4575,-2.4654,-2.4654,-2.4654,-2.4685,-2.4731,-2.4731,-2.476,-2.4804,-2.4804,-2.4775,-2.4731,-2.4559,-2.4478,-2.4428,-2.4284,-2.419,-2.419,-2.419,-2.419,-2.419,-2.419,-2.419,-2.419,-2.419,-2.419,-2.419,-2.419,-2.419,-2.4209,-2.419,-2.4188,-2.4204,-2.4201,-2.4598,-2.5047,-2.5031,-2.5175,-2.5253,-2.5081,-2.4626,-2.4186,-2.421,-2.419,-2.419,-2.419,-2.4151,-2.4094,-2.419,-2.4151,-2.3985,-2.3713,0.0,0.0,0.0,-2.1742,-2.1855,-2.2259,-2.3289,-2.3996,-2.4074,-2.4094,-2.4094,-2.4094,-2.4151,-2.419,-2.419,-2.3437,-2.2813,-2.2428,-2.2275,-2.2154,-2.2093,-2.2176,-2.2109,-2.1843,-2.1479,-2.1225,-2.1048,-2.0536,-2.033,-2.0371,-2.0312,-2.0057,-1.961,-1.8687,-1.7937,-1.7184,-1.554,-1.4768,-1.448,-1.3666,-1.3191,-1.2869,-3.1458,-3.1513,-3.1549,-3.1458,-3.1458,-3.1421,-3.1329,-3.0962,-3.0558,-3.0173,-2.8613,-2.7603,-2.7769,-2.7126,-2.6337,-2.5495,-2.5403,-2.5072,-2.4245,-2.4228,-2.4247,-2.4228,-2.4247,-2.4247,-2.4247,-2.4247,-2.4339,-2.4528,-2.4528,-2.4607,-2.4804,-2.4804,-2.47,-2.4528,-2.4512,-2.4393,-2.4228,-2.4209,-2.419,-2.419,-2.419,-2.419,-2.419,-2.419,-2.419,-2.419,-2.419,-2.419,-2.419,-2.419,-2.419,-2.419,-2.419,-2.419,-2.4209,-2.421,-2.4247,-2.4284,-2.4272,-2.4766,-2.5148,-2.4449,-2.4253,-2.4186,-2.421,-2.419,-2.419,-2.419,-2.3937,-2.3837,-2.4151,-2.3955,-2.3369,-2.2253,0.0,0.0,-2.1534,-2.1257,-2.1698,-2.3373,-2.3388,-2.3392,-2.3714,-2.3753,-2.3753,-2.3753,-2.4016,-2.419,-2.419,-2.3437,-2.2282,-2.0723,-2.1434,-2.1731,-2.148,-2.1837,-2.1522,-2.0547,-2.106,-2.0871,-2.0108,-2.023,-2.0297,-2.0318,-2.0307,-1.9795,-1.8903,-1.7898,-1.692,-1.5912,-1.4726,-1.3991,-1.3567,-1.3378,-1.3019,-1.2575,-2.93,-2.9322,-2.9161,-2.9005,-2.8976,-2.9032,-2.9188,-2.9053,-2.8791,-2.8397,-2.7707,-2.7014,-2.6392,-2.6025,-2.5529,-2.4722,-2.4649,-2.4443,-2.3915,-2.3896,-2.3996,-2.419,-2.419,-2.419,-2.419,-2.419,-2.4247,-2.4321,-2.4321,-2.4339,-2.4445,-2.4445,-2.4393,-2.4321,-2.4321,-2.4266,-2.419,-2.419,-2.419,-2.419,-2.419,-2.419,-2.419,-2.419,-2.419,-2.419,-2.419,-2.419,-2.4207,-2.4208,-2.4196,-2.4207,-2.4196,-2.4202,-2.419,-2.419,-2.419,-2.4191,-2.4208,-2.4391,-2.4555,-2.4256,-2.4207,-2.4211,-2.419,-2.419,-2.419,-2.419,-2.4094,-2.4054,-2.417,-2.4094,-2.3777,-2.3121,0.0,-2.2793,-2.2568,-2.2442,-2.2607,-2.3298,-2.3277,-2.3236,-2.3392,-2.3392,-2.3392,-2.3392,-2.3522,-2.3671,-2.3876,-2.2849,-2.1553,-2.0045,-2.0047,-2.0009,-1.9921,-2.0189,-2.0055,-1.9535,-2.0024,-2.007,-1.9762,-2.0054,-2.0204,-2.0238,-2.0329,-1.9834,-1.8896,-1.7927,-1.6853,-1.5731,-1.4575,-1.3949,-1.3634,-1.3261,-1.2748,-1.2254,-2.7245,-2.7486,-2.7515,-2.7297,-2.7461,-2.7678,-2.7869,-2.7897,-2.7769,-2.7458,-2.6964,-2.6345,-2.5506,-2.5005,-2.4478,-2.3933,-2.3896,-2.3795,-2.3566,-2.3544,-2.3649,-2.3876,-2.3896,-2.3896,-2.3896,-2.3996,-2.4036,-2.4036,-2.4151,-2.419,-2.4208,-2.4094,-2.4094,-2.4208,-2.4094,-2.4094,-2.419,-2.419,-2.419,-2.419,-2.419,-2.415,-2.4051,-2.4151,-2.4135,-2.406,-2.4153,-2.4116,-2.3985,-2.3964,-2.3813,-2.3671,-2.406,-2.4197,-2.4174,-2.4034,-2.4072,-2.4202,-2.4202,-2.4202,-2.4206,-2.421,-2.4192,-2.419,-2.419,-2.4039,-2.3906,-2.3961,-2.384,-2.3774,-2.3876,-2.3795,-2.3692,-2.3566,-2.3437,-2.3323,-2.3069,-2.2965,-2.294,-2.3021,-2.2965,-2.294,-2.3021,-2.3045,-2.3045,-2.3045,-2.3141,-2.3193,-2.3163,-2.2128,-2.0949,-1.9752,-1.9163,-1.8825,-1.8752,-1.8982,-1.8982,-1.8752,-1.9159,-1.9387,-1.9476,-1.9673,-1.9922,-2.0167,-2.0188,-1.9726,-1.8932,-1.798,-1.6919,-1.5753,-1.4584,-1.3864,-1.3399,-1.2898,-1.2309,-1.1679,-2.5567,-2.6233,-2.6774,-2.6792,-2.7384,-2.7897,-2.7897,-2.7897,-2.7897,-2.788,-2.6499,-2.549,-2.549,-2.4109,-2.3189,-2.3189,-2.3189,-2.3189,-2.3189,-2.3189,-2.3189,-2.3189,-2.3189,-2.3189,-2.3189,-2.3522,-2.3692,-2.3692,-2.4016,-2.419,-2.419,-2.3837,-2.3858,-2.417,-2.3837,-2.3876,-2.419,-2.419,-2.419,-2.419,-2.419,-2.399,-2.3732,-2.4071,-2.4005,-2.3747,-2.406,-2.3895,-2.3508,-2.3489,-2.2962,-2.2529,-2.3786,-2.4203,-2.4093,-2.3624,-2.3822,-2.4212,-2.4212,-2.4212,-2.4182,-2.4205,-2.419,-2.419,-2.419,-2.3678,-2.325,-2.3433,-2.3071,-2.2822,-2.3141,-2.2923,-2.2822,-2.3141,-2.2923,-2.2695,-2.2695,-2.2463,-2.2415,-2.266,-2.2463,-2.2398,-2.2686,-2.2695,-2.2695,-2.2695,-2.2996,-2.2829,-2.2041,-2.1291,-2.0533,-1.9732,-1.8992,-1.8469,-1.8187,-1.8469,-1.8469,-1.8208,-1.861,-1.8955,-1.9182,-1.9069,-1.9407,-2.0081,-1.9804,-1.9424,-1.8921,-1.7979,-1.6967,-1.5882,-1.4661,-1.3598,-1.2647,-1.2254,-1.1607,-1.0873,-2.3938,-2.466,-2.5347,-2.5867,-2.657,-2.7051,-2.7051,-2.7051,-2.6768,-2.5964,-2.5436,-2.483,-2.3978,-2.3472,-2.3189,-2.3189,-2.3189,-2.3093,-2.2873,-2.2669,-2.2571,-2.2571,-2.2965,-2.3189,-2.3189,-2.33,-2.3346,-2.3346,-2.3437,-2.35,-2.35,-2.3392,-2.3392,-2.3482,-2.3392,-2.3392,-2.35,-2.35,-2.35,-2.35,-2.35,-2.3432,-2.3359,-2.3455,-2.344,-2.3361,-2.3455,-2.342,-2.3262,-2.3129,-2.292,-2.2815,-2.333,-2.3212,-2.2917,-2.3211,-2.3476,-2.3772,-2.4109,-2.3866,-2.3611,-2.4091,-2.354,-2.2874,-2.2874,-2.2914,-2.3016,-2.3069,-2.3059,-2.3069,-2.3165,-2.3117,-2.3021,-2.2873,-2.2772,-2.2634,-2.2453,-2.2349,-2.2321,-2.2398,-2.2349,-2.2192,-2.1948,-2.2226,-2.2169,-2.1532,-2.2079,-2.2214,-2.1754,-2.1214,-2.0609,-1.9938,-1.8636,-1.7842,-1.7562,-1.8255,-1.8469,-1.8208,-1.8266,-1.8479,-1.8771,-1.8592,-1.8783,-1.927,-1.9268,-1.8887,-1.8174,-1.7617,-1.6844,-1.5878,-1.4722,-1.4099,-1.3736,-1.3008,-1.2431,-1.1887,-2.2885,-2.3562,-2.4205,-2.4661,-2.5575,-2.6167,-2.5862,-2.6065,-2.5926,-2.4944,-2.4562,-2.4098,-2.3363,-2.3023,-2.2832,-2.2832,-2.2832,-2.2773,-2.2563,-2.2388,-2.231,-2.231,-2.2634,-2.2832,-2.2832,-2.2965,-2.2996,-2.2996,-2.3141,-2.3189,-2.3189,-2.3069,-2.3069,-2.3189,-2.3069,-2.3069,-2.3189,-2.3189,-2.3189,-2.3189,-2.3189,-2.3117,-2.3021,-2.3141,-2.3136,-2.3024,-2.3159,-2.3111,-2.2984,-2.285,-2.2762,-2.266,-2.2796,-2.2574,-2.2356,-2.2748,-2.2944,-2.3203,-2.4003,-2.389,-2.3587,-2.3473,-2.2867,-2.2341,-2.2506,-2.2593,-2.2702,-2.2814,-2.2685,-2.2574,-2.2574,-2.2434,-2.2272,-2.2068,-2.2169,-2.2203,-2.2061,-2.2032,-2.2032,-2.2032,-2.1886,-2.1675,-2.1399,-2.1615,-2.1554,-2.1039,-2.1411,-2.1668,-2.1612,-2.0901,-2.0416,-2.0197,-1.8601,-1.765,-1.7499,-1.7748,-1.7815,-1.7653,-1.7603,-1.7742,-1.8038,-1.7956,-1.8114,-1.8481,-1.8713,-1.8341,-1.7541,-1.7092,-1.647,-1.5724,-1.462,-1.3915,-1.3495,-1.3109,-1.2329,-1.1395,-2.218,-2.2798,-2.3334,-2.3334,-2.4529,-2.527,-2.4594,-2.5067,-2.5236,-2.4492,-2.3816,-2.3376,-2.3308,-2.2699,-2.231,-2.231,-2.231,-2.231,-2.231,-2.231,-2.231,-2.231,-2.231,-2.231,-2.231,-2.2537,-2.2643,-2.2643,-2.2972,-2.3135,-2.3093,-2.2797,-2.2822,-2.3111,-2.2797,-2.2822,-2.3135,-2.3135,-2.3135,-2.3135,-2.3135,-2.2923,-2.2712,-2.2996,-2.2923,-2.2704,-2.3014,-2.2923,-2.2667,-2.2644,-2.2491,-2.231,-2.231,-2.231,-2.2287,-2.2287,-2.2306,-2.2548,-2.372,-2.4042,-2.3763,-2.2603,-2.2306,-2.2393,-2.2764,-2.2579,-2.2367,-2.2609,-2.2124,-2.1664,-2.1598,-2.1324,-2.1071,-2.1007,-2.1306,-2.1552,-2.1552,-2.1552,-2.1552,-2.1552,-2.1213,-2.0991,-2.0926,-2.0894,-2.0894,-2.0926,-2.0926,-2.1086,-2.146,-2.0428,-2.0012,-2.0439,-1.8651,-1.7713,-1.7785,-1.7081,-1.677,-1.6789,-1.6789,-1.6944,-1.7205,-1.7239,-1.7445,-1.7762,-1.8126,-1.7773,-1.6944,-1.6419,-1.5809,-1.5086,-1.3816,-1.2842,-1.2139,-1.2098,-1.1037,-0.9636,-2.1291,-2.2143,-2.2839,-2.2839,-2.3902,-2.4661,-2.454,-2.4659,-2.4458,-2.3731,-2.3494,-2.3173,-2.2598,-2.2412,-2.231,-2.231,-2.231,-2.231,-2.231,-2.231,-2.231,-2.231,-2.231,-2.231,-2.231,-2.2377,-2.2388,-2.2388,-2.247,-2.248,-2.248,-2.2415,-2.2443,-2.248,-2.2415,-2.2443,-2.248,-2.248,-2.248,-2.248,-2.248,-2.2453,-2.2388,-2.2453,-2.2453,-2.2388,-2.2477,-2.2453,-2.2402,-2.2383,-2.2344,-2.231,-2.231,-2.231,-2.2316,-2.2308,-2.2304,-2.2349,-2.263,-2.2694,-2.2664,-2.2372,-2.2292,-2.2317,-2.2412,-2.2347,-2.2337,-2.2371,-2.2391,-2.2225,-2.1697,-2.1697,-2.1598,-2.1087,-2.1055,-2.1118,-2.1118,-2.1118,-2.1118,-2.1118,-2.1055,-2.0862,-2.0483,-2.0174,-2.0104,-2.0416,-2.0449,-2.0483,-2.0583,-1.9732,-1.95,-2.0012,-1.8,-1.7131,-1.7559,-1.6702,-1.6452,-1.6789,-1.6789,-1.6977,-1.7263,-1.7027,-1.7093,-1.7402,-1.7214,-1.6752,-1.6049,-1.5621,-1.4177,-1.1953,-0.9085,-0.8885,-0.9853,-0.6873,-0.6455,-0.723,-2.0991,-2.1472,-2.1874,-2.1874,-2.2701,-2.324,-2.2878,-2.3141,-2.3171,-2.2608,-2.2555,-2.248,-2.2316,-2.231,-2.231,-2.231,-2.231,-2.231,-2.231,-2.231,-2.231,-2.231,-2.2077,-2.1974,-2.1974,-2.1781,-2.1886,-2.231,-2.231,-2.231,-2.231,-2.231,-2.231,-2.231,-2.231,-2.231,-2.231,-2.231,-2.231,-2.231,-2.231,-2.231,-2.231,-2.231,-2.231,-2.231,-2.231,-2.231,-2.2265,-2.204,-2.1911,-2.1877,-2.1877,-2.2089,-2.2291,-2.2292,-2.1727,-2.107,-2.1064,-2.1661,-2.217,-2.1609,-2.1681,-2.1953,-2.2237,-2.231,-2.2237,-2.2003,-2.2143,-2.2053,-2.1119,-2.1198,-2.1151,-2.0488,-2.0532,-2.0665,-2.0665,-2.0665,-2.0665,-2.0665,-2.0499,-2.0261,-2.0035,-1.9803,-1.9782,-2.0,-1.9758,-1.9743,-1.9939,-1.9105,-1.8862,-1.9356,-1.7768,-1.7043,-1.7305,-1.6236,-1.5632,-1.5552,-1.5874,-1.577,-1.527,-1.5463,-1.5433,-1.5255,-1.5441,-1.5182,-1.4619,-1.4249,-1.2169,-0.9008,-0.6911,-0.5391,-0.4154,-0.257,-0.1598,-0.1226,-2.0764,-2.0829,-2.0894,-2.0894,-2.1455,-2.1729,-2.1087,-2.1503,-2.1795,-2.1542,-2.1552,-2.1764,-2.2135,-2.218,-2.2152,-2.2077,-2.2077,-2.2077,-2.2077,-2.2077,-2.2077,-2.2077,-2.1705,-2.1491,-2.1491,-2.1181,-2.1354,-2.2077,-2.2152,-2.218,-2.218,-2.2254,-2.2254,-2.218,-2.218,-2.2135,-2.2077,-2.2077,-2.2077,-2.2077,-2.2077,-2.2077,-2.2077,-2.2077,-2.2077,-2.2077,-2.2077,-2.2089,-2.2005,-2.1642,-2.1394,-2.1263,-2.1246,-2.1552,-2.1854,-2.1854,-2.0814,-1.9703,-1.9685,-2.0766,-2.1655,-2.0815,-2.0956,-2.1469,-2.1957,-2.2077,-2.1974,-2.1568,-2.1714,-2.1553,-2.0506,-2.0506,-2.0483,-1.9794,-1.9965,-2.0177,-2.0177,-2.0177,-2.0177,-2.0177,-1.9909,-1.969,-1.969,-1.969,-1.9639,-1.9566,-1.9169,-1.8977,-1.9178,-1.8324,-1.7972,-1.8369,-1.7165,-1.6599,-1.682,-1.5569,-1.4502,-1.3666,-1.4423,-1.415,-1.3,-1.3696,-1.3512,-1.2616,-1.324,-1.3019,-1.2226,-1.1525,-0.8973,-0.542,-0.3977,-0.082,0.2873,0.2466,0.3838,0.5452,-1.9889,-2.0174,-2.0382,-2.0382,-2.0794,-2.1103,-2.1023,-2.1071,-2.1135,-2.1071,-2.1368,-2.1612,-2.1688,-2.1688,-2.1568,-2.1197,-2.1166,-2.1166,-2.1166,-2.1166,-2.1166,-2.1166,-2.1134,-2.1086,-2.1086,-2.1039,-2.1071,-2.1166,-2.1538,-2.1688,-2.1688,-2.2106,-2.2077,-2.1688,-2.1688,-2.1507,-2.1166,-2.1166,-2.1166,-2.1166,-2.1166,-2.1166,-2.1166,-2.1166,-2.1166,-2.1166,-2.1166,-2.1178,-2.1182,-2.1097,-2.0918,-2.0719,-2.0712,-2.0426,-2.0059,-2.0059,-1.9889,-1.9717,-1.9703,-1.9871,-2.0131,-2.0496,-2.0831,-2.1086,-2.1166,-2.1166,-2.1166,-2.1086,-2.1234,-2.1155,-2.0438,-2.0506,-2.0483,-1.9794,-1.9747,-1.9782,-1.9782,-1.9782,-1.9782,-1.9782,-1.9711,-1.969,-1.969,-1.969,-1.953,-1.9043,-1.893,-1.8507,-1.7572,-1.6944,-1.6638,-1.6619,-1.5022,-1.4665,-1.5702,-1.4519,-1.3051,-1.1469,-1.2566,-1.2998,-1.2862,-1.3192,-1.2459,-1.0935,-1.0979,-0.976,-0.7603,-0.5299,-0.2676,0.0304,0.4861,0.7645,0.9313,1.1103,1.0652,0.9141,-1.969,-1.9839,-1.9965,-1.9965,-2.0139,-2.0277,-2.0277,-2.0277,-2.033,-2.0583,-2.0765,-2.0975,-2.1244,-2.1275,-2.1181,-2.1039,-2.0991,-2.0991,-2.0991,-2.0991,-2.0991,-2.0991,-2.0764,-2.0616,-2.0616,-2.0398,-2.0277,-2.0277,-2.0959,-2.1275,-2.1275,-2.1493,-2.1446,-2.1275,-2.1275,-2.115,-2.0991,-2.0991,-2.0991,-2.0991,-2.0991,-2.0991,-2.0991,-2.0991,-2.0991,-2.0991,-2.0991,-2.1007,-2.0943,-2.0702,-2.051,-2.04,-2.0172,-1.9904,-1.9702,-1.9702,-1.971,-1.9714,-1.9697,-1.9959,-2.0182,-2.0104,-2.0351,-2.055,-2.0345,-2.0039,-1.9989,-2.0516,-2.0995,-2.1029,-2.0122,-2.0376,-2.0483,-1.9794,-1.969,-1.969,-1.969,-1.969,-1.969,-1.969,-1.969,-1.969,-1.969,-1.969,-1.9479,-1.893,-1.8299,-1.7599,-1.6789,-1.5903,-1.5463,-1.5428,-1.4288,-1.3975,-1.4506,-1.2857,-1.1434,-1.0213,-0.956,-0.9262,-0.9216,-0.9965,-0.9269,-0.7517,-0.7499,-0.6484,-0.4804,-0.4524,-0.0937,0.4499,0.5937,0.9205,1.3193,1.3667,1.2872,1.1531]},{"header":{"parameterUnit":"m.s-1","parameterCategory":1,"la1":30.6,"la2":28.766,"lo1":-90.7593,"lo2":-88.6598,"dy":0.0162,"dx":0.0183,"nx":116,"ny":114,"refTime":"2023-05-01T00:00:00:Z","depth":0,"parameterNumber":3,"parameterNumberName":"V-component_of_WINDS"},"data":[0.0,0.0,0.0,0.0,0.0,0.0,0.0,0.0,0.0,0.0,0.0,0.0,0.0,0.0,0.0,0.0,0.0,0.0,0.0,0.0,0.0,0.0,0.0,0.0,0.0,0.0,0.0,0.0,0.0,0.0,0.0,0.0,0.0,0.0,0.0,0.0,0.0,0.0,0.0,0.0,0.0,0.0,0.0,0.0,0.0,0.0,0.0,0.0,0.0,0.0,0.0,0.0,0.0,0.0,0.0,0.0,0.0,0.0,0.0,0.0,0.0,0.0,0.0,0.0,0.0,0.0,0.0,0.0,0.0,0.0,0.0,0.0,0.0,0.0,0.0,0.0,0.0,0.0,0.0,0.0,0.0,0.0,0.0,0.0,0.0,0.0,0.0,0.0,0.0,0.0,0.0,0.0,0.0,0.0,0.0,0.0,0.0,0.0,0.0,0.0,0.0,0.0,0.0,0.0,0.0,0.0,0.0,0.0,0.0,0.0,0.0,0.0,0.0,0.0,0.0,0.0,0.0,0.0,0.0,0.0,0.0,0.0,0.0,0.0,0.0,0.0,0.0,0.0,0.0,0.0,0.0,0.0,0.0,0.0,0.0,0.0,0.0,0.0,0.0,0.0,0.0,0.0,0.0,0.0,0.0,0.0,0.0,0.0,0.0,0.0,0.0,0.0,0.0,0.0,0.0,0.0,0.0,0.0,0.0,0.0,0.0,0.0,0.0,0.0,0.0,0.0,0.0,0.0,0.0,0.0,0.0,0.0,0.0,0.0,0.0,0.0,0.0,0.0,0.0,0.0,0.0,0.0,0.0,0.0,0.0,0.0,0.0,0.0,0.0,0.0,0.0,0.0,0.0,0.0,0.0,0.0,0.0,0.0,0.0,0.0,0.0,0.0,0.0,0.0,0.0,0.0,0.0,0.0,0.0,0.0,0.0,0.0,0.0,0.0,0.0,0.0,0.0,0.0,0.0,0.0,0.0,0.0,0.0,0.0,0.0,0.0,0.0,0.0,0.0,0.0,0.0,0.0,0.0,0.0,0.0,0.0,0.0,0.0,0.0,0.0,0.0,0.0,0.0,0.0,0.0,0.0,0.0,0.0,0.0,0.0,0.0,0.0,0.0,0.0,0.0,0.0,0.0,0.0,0.0,0.0,0.0,0.0,0.0,0.0,0.0,0.0,0.0,0.0,0.0,0.0,0.0,0.0,0.0,0.0,0.0,0.0,0.0,0.0,0.0,0.0,0.0,0.0,0.0,0.0,0.0,0.0,0.0,0.0,0.0,0.0,0.0,0.0,0.0,0.0,0.0,0.0,0.0,0.0,0.0,0.0,0.0,0.0,0.0,0.0,0.0,0.0,0.0,0.0,0.0,0.0,0.0,0.0,0.0,0.0,0.0,0.0,0.0,0.0,0.0,0.0,0.0,0.0,0.0,0.0,0.0,0.0,0.0,0.0,0.0,0.0,0.0,0.0,0.0,0.0,0.0,0.0,0.0,0.0,0.0,0.0,0.0,0.0,0.0,0.0,0.0,0.0,0.0,0.0,0.0,0.0,0.0,0.0,0.0,0.0,0.0,0.0,0.0,0.0,0.0,0.0,0.0,0.0,0.0,0.0,0.0,0.0,0.0,0.0,0.0,0.0,0.0,0.0,0.0,0.0,0.0,0.0,0.0,0.0,0.0,0.0,0.0,0.0,0.0,0.0,0.0,0.0,0.0,0.0,0.0,0.0,0.0,0.0,0.0,0.0,0.0,0.0,0.0,0.0,0.0,0.0,0.0,0.0,0.0,0.0,0.0,0.0,0.0,0.0,0.0,0.0,0.0,0.0,0.0,0.0,0.0,0.0,0.0,0.0,0.0,0.0,0.0,0.0,0.0,0.0,0.0,0.0,0.0,0.0,0.0,0.0,0.0,0.0,0.0,0.0,0.0,0.0,0.0,0.0,0.0,0.0,0.0,0.0,0.0,0.0,0.0,0.0,0.0,0.0,0.0,0.0,0.0,0.0,0.0,0.0,0.0,0.0,0.0,0.0,0.0,0.0,0.0,0.0,0.0,0.0,0.0,0.0,0.0,0.0,0.0,0.0,0.0,0.0,0.0,0.0,0.0,0.0,0.0,0.0,0.0,0.0,0.0,0.0,0.0,0.0,0.0,0.0,0.0,0.0,0.0,0.0,0.0,0.0,0.0,0.0,0.0,0.0,0.0,0.0,0.0,0.0,0.0,0.0,0.0,0.0,0.0,0.0,0.0,0.0,0.0,0.0,0.0,0.0,0.0,0.0,0.0,0.0,0.0,0.0,0.0,0.0,0.0,0.0,0.0,0.0,0.0,0.0,0.0,0.0,0.0,0.0,0.0,0.0,0.0,0.0,0.0,0.0,0.0,0.0,0.0,0.0,0.0,0.0,0.0,0.0,0.0,0.0,0.0,0.0,0.0,0.0,0.0,0.0,0.0,0.0,0.0,0.0,0.0,0.0,0.0,0.0,0.0,0.0,0.0,0.0,0.0,0.0,0.0,0.0,0.0,0.0,0.0,0.0,0.0,0.0,0.0,0.0,0.0,0.0,0.0,0.0,0.0,0.0,0.0,0.0,0.0,0.0,0.0,0.0,0.0,0.0,0.0,0.0,0.0,0.0,0.0,0.0,0.0,0.0,0.0,0.0,0.0,0.0,0.0,0.0,0.0,0.0,0.0,0.0,0.0,0.0,0.0,0.0,0.0,0.0,0.0,0.0,0.0,0.0,0.0,0.0,0.0,0.0,0.0,0.0,0.0,0.0,0.0,0.0,0.0,0.0,0.0,0.0,0.0,0.0,0.0,0.0,0.0,0.0,0.0,0.0,0.0,0.0,0.0,0.0,0.0,0.0,0.0,0.0,0.0,0.0,0.0,0.0,0.0,0.0,0.0,0.0,0.0,0.0,0.0,0.0,0.0,0.0,0.0,0.0,0.0,0.0,0.0,0.0,0.0,0.0,0.0,0.0,0.0,0.0,0.0,0.0,0.0,0.0,0.0,0.0,0.0,0.0,0.0,0.0,0.0,0.0,0.0,0.0,0.0,0.0,0.0,0.0,0.0,0.0,0.0,0.0,0.0,0.0,0.0,0.0,0.0,0.0,0.0,0.0,0.0,0.0,0.0,0.0,0.0,0.0,0.0,0.0,0.0,0.0,0.0,0.0,0.0,0.0,0.0,0.0,0.0,0.0,0.0,0.0,0.0,0.0,0.0,0.0,0.0,0.0,0.0,0.0,0.0,0.0,0.0,0.0,0.0,0.0,0.0,0.0,0.0,0.0,0.0,0.0,0.0,0.0,0.0,0.0,0.0,0.0,0.0,0.0,0.0,0.0,0.0,0.0,0.0,0.0,0.0,0.0,0.0,0.0,0.0,0.0,0.0,0.0,0.0,0.0,0.0,0.0,0.0,0.0,0.0,0.0,0.0,0.0,0.0,0.0,0.0,0.0,0.0,0.0,0.0,0.0,0.0,0.0,0.0,0.0,0.0,0.0,0.0,0.0,0.0,0.0,0.0,0.0,0.0,0.0,0.0,0.0,0.0,0.0,0.0,0.0,0.0,0.0,0.0,0.0,0.0,0.0,0.0,0.0,0.0,0.0,0.0,0.0,0.0,0.0,0.0,0.0,0.0,0.0,0.0,0.0,0.0,0.0,0.0,0.0,0.0,0.0,0.0,0.0,0.0,0.0,0.0,0.0,0.0,0.0,0.0,0.0,0.0,0.0,0.0,0.0,0.0,0.0,0.0,0.0,0.0,0.0,0.0,0.0,0.0,0.0,0.0,0.0,0.0,0.0,0.0,0.0,0.0,0.0,0.0,0.0,0.0,0.0,0.0,0.0,0.0,0.0,0.0,0.0,0.0,0.0,0.0,0.0,0.0,0.0,0.0,0.0,0.0,0.0,0.0,0.0,0.0,0.0,0.0,0.0,0.0,0.0,0.0,0.0,0.0,0.0,0.0,0.0,0.0,0.0,0.0,0.0,0.0,0.0,0.0,0.0,0.0,0.0,0.0,0.0,0.0,0.0,0.0,0.0,0.0,0.0,0.0,0.0,0.0,0.0,0.0,0.0,0.0,0.0,0.0,0.0,0.0,0.0,0.0,0.0,0.0,0.0,0.0,0.0,0.0,0.0,0.0,0.0,0.0,0.0,0.0,0.0,0.0,0.0,0.0,0.0,0.0,0.0,0.0,0.0,0.0,0.0,0.0,0.0,0.0,0.0,0.0,0.0,0.0,0.0,0.0,0.0,0.0,0.0,0.0,0.0,0.0,0.0,0.0,0.0,0.0,0.0,0.0,0.0,0.0,0.0,0.0,0.0,0.0,0.0,0.0,0.0,0.0,0.0,0.0,0.0,0.0,0.0,0.0,0.0,0.0,0.0,0.0,0.0,0.0,0.0,0.0,0.0,0.0,0.0,0.0,0.0,0.0,0.0,0.0,0.0,0.0,0.0,0.0,0.0,0.0,0.0,0.0,0.0,0.0,0.0,0.0,0.0,0.0,0.0,0.0,0.0,0.0,0.0,0.0,0.0,0.0,0.0,0.0,0.0,0.0,0.0,0.0,0.0,0.0,0.0,0.0,0.0,0.0,0.0,0.0,0.0,0.0,0.0,0.0,0.0,0.0,0.0,0.0,0.0,0.0,0.0,0.0,0.0,0.0,0.0,0.0,0.0,0.0,0.0,0.0,0.0,0.0,0.0,0.0,0.0,0.0,0.0,0.0,0.0,0.0,0.0,0.0,0.0,0.0,0.0,0.0,0.0,0.0,0.0,0.0,0.0,0.0,0.0,0.0,0.0,0.0,0.0,0.0,0.0,0.0,0.0,0.0,0.0,0.0,0.0,0.0,0.0,0.0,0.0,0.0,0.0,0.0,0.0,0.0,0.0,0.0,0.0,0.0,0.0,0.0,0.0,0.0,0.0,0.0,0.0,0.0,0.0,0.0,0.0,0.0,0.0,0.0,0.0,0.0,0.0,0.0,0.0,0.0,0.0,0.0,0.0,0.0,0.0,0.0,0.0,0.0,0.0,0.0,0.0,0.0,0.0,0.0,0.0,0.0,0.0,0.0,0.0,0.0,0.0,0.0,0.0,0.0,0.0,0.0,0.0,0.0,0.0,0.0,0.0,0.0,0.0,0.0,0.0,0.0,0.0,0.0,0.0,0.0,0.0,0.0,0.0,0.0,0.0,0.0,0.0,0.0,0.0,0.0,0.0,0.0,0.0,0.0,0.0,0.0,0.0,0.0,0.0,0.0,0.0,0.0,0.0,0.0,0.0,0.0,0.0,0.0,0.0,0.0,0.0,0.0,0.0,0.0,0.0,0.0,0.0,0.0,0.0,0.0,0.0,0.0,0.0,0.0,0.0,0.0,0.0,0.0,0.0,0.0,0.0,0.0,0.0,0.0,0.0,0.0,0.0,0.0,0.0,0.0,0.0,0.0,0.0,0.0,0.0,0.0,0.0,0.0,0.0,0.0,0.0,0.0,0.0,0.0,0.0,0.0,0.0,0.0,0.0,0.0,0.0,0.0,0.0,0.0,0.0,0.0,0.0,0.0,0.0,0.0,0.0,0.0,0.0,0.0,0.0,0.0,0.0,0.0,0.0,0.0,0.0,0.0,0.0,0.0,0.0,0.0,0.0,0.0,0.0,0.0,0.0,0.0,0.0,0.0,0.0,0.0,0.0,0.0,0.0,0.0,0.0,0.0,0.0,0.0,0.0,0.0,0.0,0.0,0.0,0.0,0.0,0.0,0.0,0.0,0.0,0.0,0.0,0.0,0.0,0.0,0.0,0.0,0.0,0.0,0.0,0.0,0.0,0.0,0.0,0.0,0.0,0.0,0.0,0.0,0.0,0.0,0.0,0.0,0.0,0.0,0.0,0.0,0.0,0.0,0.0,0.0,0.0,0.0,0.0,0.0,0.0,0.0,0.0,0.0,0.0,0.0,0.0,0.0,0.0,0.0,0.0,0.0,0.0,0.0,0.0,0.0,0.0,0.0,0.0,0.0,0.0,0.0,0.0,0.0,0.0,0.0,0.0,0.0,0.0,0.0,0.0,0.0,0.0,0.0,0.0,0.0,0.0,0.0,0.0,0.0,0.0,0.0,0.0,-2.107,0.0,0.0,0.0,0.0,0.0,0.0,0.0,0.0,0.0,0.0,0.0,0.0,0.0,0.0,0.0,0.0,0.0,0.0,0.0,0.0,0.0,0.0,0.0,0.0,0.0,0.0,0.0,0.0,0.0,0.0,0.0,0.0,0.0,0.0,0.0,0.0,0.0,0.0,0.0,0.0,0.0,0.0,0.0,0.0,0.0,0.0,0.0,0.0,0.0,0.0,0.0,0.0,0.0,0.0,0.0,0.0,0.0,0.0,0.0,0.0,0.0,0.0,0.0,0.0,0.0,0.0,0.0,0.0,0.0,0.0,0.0,0.0,0.0,0.0,0.0,0.0,0.0,0.0,0.0,0.0,0.0,0.0,0.0,0.0,0.0,0.0,0.0,0.0,0.0,0.0,0.0,0.0,0.0,0.0,0.0,0.0,0.0,0.0,0.0,0.0,0.0,0.0,0.0,0.0,0.0,0.0,0.0,0.0,0.0,0.0,0.0,0.0,0.0,0.0,0.0,0.0,-2.3056,0.0,0.0,0.0,0.0,0.0,0.0,0.0,0.0,0.0,0.0,0.0,0.0,0.0,0.0,0.0,0.0,0.0,0.0,0.0,0.0,0.0,0.0,0.0,0.0,0.0,0.0,0.0,0.0,0.0,0.0,0.0,0.0,0.0,0.0,0.0,0.0,0.0,0.0,0.0,0.0,0.0,0.0,0.0,0.0,0.0,0.0,0.0,0.0,0.0,0.0,0.0,0.0,0.0,0.0,0.0,0.0,0.0,0.0,0.0,0.0,0.0,0.0,0.0,0.0,0.0,0.0,0.0,0.0,0.0,0.0,0.0,0.0,0.0,0.0,0.0,0.0,0.0,0.0,0.0,0.0,0.0,0.0,0.0,0.0,0.0,0.0,0.0,0.0,0.0,0.0,0.0,0.0,0.0,0.0,0.0,0.0,0.0,0.0,0.0,0.0,0.0,0.0,0.0,0.0,0.0,0.0,0.0,0.0,-3.1161,-3.1867,-3.1931,-3.2414,-3.2765,-3.2787,-3.1034,-2.969,-2.8523,0.0,0.0,0.0,0.0,0.0,0.0,0.0,0.0,0.0,0.0,0.0,0.0,0.0,0.0,0.0,0.0,0.0,0.0,0.0,0.0,0.0,0.0,0.0,0.0,0.0,0.0,0.0,0.0,0.0,0.0,0.0,0.0,0.0,0.0,0.0,0.0,0.0,0.0,0.0,0.0,0.0,0.0,0.0,0.0,0.0,0.0,0.0,0.0,0.0,0.0,0.0,0.0,0.0,0.0,0.0,0.0,0.0,0.0,0.0,0.0,0.0,0.0,0.0,0.0,0.0,0.0,0.0,0.0,0.0,0.0,0.0,0.0,0.0,0.0,0.0,0.0,0.0,0.0,0.0,0.0,0.0,0.0,0.0,0.0,0.0,0.0,0.0,-1.3609,-1.4365,0.0,0.0,0.0,0.0,0.0,0.0,0.0,0.0,0.0,0.0,0.0,0.0,0.0,-2.4663,-2.748,-3.1084,-3.3772,-3.5517,-3.8498,-3.9906,-3.9891,-4.0005,-4.0368,-4.0769,-3.8196,0.0,-3.1909,-3.004,0.0,0.0,0.0,0.0,0.0,0.0,0.0,0.0,0.0,0.0,0.0,0.0,0.0,0.0,0.0,0.0,0.0,0.0,0.0,0.0,0.0,0.0,0.0,0.0,0.0,0.0,0.0,0.0,0.0,0.0,0.0,0.0,0.0,0.0,0.0,0.0,0.0,0.0,0.0,0.0,0.0,0.0,0.0,0.0,0.0,0.0,0.0,0.0,0.0,0.0,0.0,0.0,0.0,0.0,0.0,0.0,0.0,0.0,0.0,0.0,0.0,0.0,0.0,0.0,0.0,0.0,0.0,0.0,0.0,0.0,0.0,0.0,0.0,0.0,0.0,0.0,0.0,0.0,0.0,0.0,0.0,0.0,0.0,0.0,0.0,-1.3007,-1.4268,-1.4404,-1.5325,-1.5111,0.0,0.0,0.0,0.0,0.0,0.0,0.0,0.0,0.0,-2.5041,-2.7589,-2.9915,-3.1902,-3.6039,-3.8351,-3.8813,-4.129,-4.2524,-4.2509,-4.2509,-4.3304,-4.4452,-4.2563,-4.0797,-3.8882,-3.4723,-3.2177,-3.0478,0.0,0.0,0.0,0.0,-2.5264,-2.622,0.0,0.0,0.0,0.0,0.0,0.0,0.0,0.0,0.0,0.0,0.0,0.0,0.0,0.0,0.0,0.0,0.0,0.0,0.0,0.0,0.0,0.0,0.0,0.0,0.0,0.0,0.0,0.0,0.0,0.0,0.0,0.0,0.0,0.0,0.0,0.0,0.0,0.0,0.0,0.0,0.0,0.0,0.0,0.0,0.0,0.0,0.0,0.0,0.0,0.0,0.0,0.0,0.0,0.0,0.0,0.0,0.0,0.0,0.0,0.0,0.0,0.0,0.0,0.0,0.0,0.0,0.0,0.0,0.0,0.0,0.0,0.0,0.0,0.0,0.0,0.0,0.0,-1.4043,-1.5449,-1.5019,-1.6572,-1.6907,0.0,0.0,0.0,0.0,0.0,0.0,-2.4147,-2.5709,-2.7494,-2.9553,-3.241,-3.4698,-3.6207,-3.9729,-4.1374,-4.1278,-4.273,-4.3418,-4.3403,-4.3401,-4.4239,-4.5474,-4.4191,-4.3818,-4.3653,-3.8789,-3.5653,-3.3832,-3.2153,-3.0248,-2.8455,-2.9115,-2.9642,-3.037,0.0,0.0,0.0,0.0,0.0,0.0,0.0,0.0,0.0,0.0,0.0,0.0,0.0,0.0,0.0,0.0,0.0,0.0,0.0,0.0,0.0,0.0,0.0,0.0,0.0,0.0,0.0,0.0,0.0,0.0,0.0,0.0,0.0,0.0,0.0,0.0,0.0,0.0,0.0,0.0,0.0,0.0,0.0,0.0,0.0,0.0,0.0,0.0,0.0,0.0,0.0,0.0,0.0,0.0,0.0,0.0,0.0,0.0,0.0,0.0,0.0,0.0,0.0,0.0,0.0,0.0,0.0,0.0,0.0,0.0,0.0,0.0,0.0,0.0,0.0,0.0,0.0,0.0,0.0,-1.7275,-2.1161,0.0,0.0,0.0,0.0,-2.3559,-2.4701,-2.7003,-3.0758,-3.1035,-3.2579,-3.5805,-3.6641,-3.8063,-4.0417,-4.1187,-4.2202,-4.3365,-4.3488,-4.3501,-4.3488,-4.3524,-4.3526,-4.3526,-4.2398,-4.2467,-4.3235,-4.1032,-3.9364,-3.7819,-3.5304,-3.3809,-3.2995,-3.1818,-3.2563,-3.4229,0.0,0.0,0.0,0.0,0.0,0.0,0.0,0.0,0.0,0.0,0.0,0.0,0.0,0.0,0.0,0.0,0.0,0.0,0.0,0.0,0.0,0.0,0.0,0.0,0.0,0.0,0.0,0.0,0.0,0.0,0.0,0.0,0.0,0.0,0.0,0.0,0.0,0.0,0.0,0.0,0.0,0.0,0.0,0.0,0.0,0.0,0.0,0.0,0.0,0.0,0.0,0.0,0.0,0.0,0.0,0.0,0.0,0.0,0.0,0.0,0.0,0.0,0.0,0.0,0.0,0.0,0.0,0.0,0.0,0.0,0.0,0.0,0.0,0.0,0.0,0.0,0.0,0.0,0.0,-2.0195,-2.3514,0.0,-2.3506,-2.5539,-2.7236,-2.8139,-3.0239,-3.2409,-3.4487,-3.5265,-3.6358,-3.7927,-3.8517,-3.9171,-4.0057,-4.1115,-4.1406,-4.1032,-4.1887,-4.2266,-4.2266,-4.2299,-4.2494,-4.2925,-4.2048,-4.2158,-4.2768,-4.1637,-4.0818,-4.0227,-3.8859,-3.7585,-3.6674,-3.6575,-3.6787,-3.707,0.0,0.0,0.0,0.0,0.0,0.0,0.0,0.0,0.0,0.0,0.0,0.0,0.0,0.0,0.0,0.0,0.0,0.0,0.0,0.0,0.0,0.0,0.0,0.0,0.0,0.0,0.0,0.0,0.0,0.0,0.0,0.0,0.0,0.0,0.0,0.0,0.0,0.0,0.0,0.0,0.0,0.0,-1.5872,0.0,0.0,0.0,0.0,0.0,0.0,0.0,0.0,0.0,0.0,0.0,0.0,0.0,0.0,0.0,0.0,0.0,0.0,0.0,0.0,0.0,0.0,0.0,0.0,0.0,0.0,0.0,0.0,0.0,0.0,0.0,0.0,0.0,0.0,0.0,-2.1494,-2.2227,-2.5341,-2.6993,-2.6154,-2.8745,-3.0858,-3.193,-3.4594,-3.6521,-3.7437,-3.8178,-3.8755,-3.9132,-3.9496,-3.9697,-3.9697,-4.0554,-4.0554,-3.9697,-4.0554,-4.0932,-4.0919,-4.0737,-4.0794,-4.0858,-4.0374,-4.0414,-4.0746,-4.049,-4.0598,-4.0944,-4.1053,-4.0248,-3.9106,-3.9591,-3.9292,-3.8748,0.0,0.0,0.0,0.0,0.0,0.0,0.0,0.0,0.0,0.0,0.0,0.0,0.0,0.0,0.0,0.0,0.0,0.0,0.0,0.0,0.0,0.0,0.0,0.0,0.0,0.0,0.0,0.0,0.0,0.0,0.0,0.0,0.0,0.0,0.0,0.0,0.0,0.0,0.0,0.0,0.0,0.0,-1.6652,0.0,0.0,0.0,0.0,0.0,0.0,0.0,0.0,0.0,0.0,0.0,0.0,0.0,0.0,0.0,0.0,0.0,0.0,0.0,0.0,0.0,0.0,0.0,0.0,0.0,0.0,0.0,0.0,0.0,0.0,0.0,0.0,0.0,-1.6992,-2.0947,-2.376,-2.3408,-2.668,-2.8675,-2.7679,-3.1063,-3.3777,-3.5005,-3.744,-3.9132,-3.9672,-3.9647,-3.9622,-3.9622,-3.9622,-3.9622,-3.9622,-3.9672,-3.9697,-3.9697,-3.9697,-3.9697,-3.9672,-3.9145,-3.8278,-3.7211,-3.7211,-3.7287,-3.7337,-3.7874,-3.88,-4.0083,-4.1739,-4.1542,-4.0342,-4.0427,-3.9986,-3.9233,0.0,0.0,0.0,0.0,0.0,0.0,0.0,0.0,0.0,0.0,0.0,0.0,0.0,0.0,0.0,0.0,0.0,0.0,0.0,0.0,0.0,0.0,0.0,0.0,0.0,0.0,0.0,0.0,0.0,0.0,0.0,0.0,0.0,0.0,0.0,0.0,0.0,0.0,0.0,0.0,0.0,0.0,-1.8632,0.0,0.0,0.0,0.0,0.0,0.0,0.0,0.0,0.0,0.0,0.0,0.0,0.0,0.0,0.0,0.0,0.0,0.0,0.0,0.0,0.0,0.0,0.0,0.0,0.0,0.0,0.0,0.0,0.0,0.0,0.0,0.0,-2.1172,-2.1367,-2.4131,-2.6543,-2.7676,-3.0247,-3.1826,-3.151,-3.4482,-3.6508,-3.6823,-3.8526,-3.9534,-3.9685,-3.8542,-3.7877,-3.7877,-3.7877,-3.7877,-3.7877,-3.9082,-3.9697,-3.9697,-3.9697,-3.9697,-3.9685,-3.9534,-3.8843,-3.7789,-3.7789,-3.7842,-3.7916,-3.8023,-3.8806,-4.0014,-4.1324,-4.0981,-3.9938,-4.08,-4.0372,-3.9233,0.0,0.0,0.0,0.0,0.0,0.0,0.0,0.0,0.0,0.0,0.0,0.0,0.0,0.0,0.0,0.0,0.0,0.0,0.0,0.0,0.0,0.0,0.0,0.0,0.0,0.0,0.0,0.0,0.0,0.0,0.0,0.0,0.0,0.0,0.0,0.0,0.0,0.0,0.0,0.0,0.0,0.0,-2.0542,-2.0373,-1.9837,-1.9222,-1.956,-1.9489,-1.9014,-1.7807,0.0,0.0,0.0,0.0,0.0,0.0,0.0,0.0,0.0,0.0,0.0,0.0,0.0,0.0,0.0,0.0,0.0,0.0,0.0,0.0,0.0,0.0,0.0,0.0,-2.1387,-2.4316,-2.5654,-2.7139,-2.8516,-2.9697,-3.1211,-3.2207,-3.2207,-3.4292,-3.5715,-3.5715,-3.7583,-3.8804,-3.8804,-3.844,-3.7914,-3.7211,-3.7864,-3.7889,-3.7199,-3.8843,-3.9697,-3.9697,-3.9697,-3.9697,-3.9685,-3.9459,-3.8617,0.0,-3.7563,-3.7253,-3.6679,-3.7151,-3.7646,0.0,0.0,0.0,0.0,0.0,-3.9656,-3.9216,0.0,0.0,0.0,0.0,0.0,0.0,0.0,0.0,0.0,0.0,0.0,0.0,0.0,0.0,0.0,0.0,0.0,0.0,0.0,0.0,0.0,0.0,0.0,0.0,0.0,0.0,0.0,0.0,0.0,0.0,0.0,0.0,0.0,0.0,0.0,0.0,0.0,0.0,0.0,0.0,0.0,0.0,-2.2246,-2.1601,-2.1172,-2.0951,-2.147,-2.0815,-1.9718,-1.9807,0.0,0.0,0.0,0.0,0.0,0.0,0.0,0.0,0.0,0.0,0.0,0.0,0.0,0.0,0.0,0.0,0.0,0.0,0.0,0.0,0.0,0.0,0.0,0.0,-2.3948,-2.6681,-2.9297,-2.9687,-2.9853,-3.0234,-3.0684,-3.0947,-3.0898,-3.2289,-3.3182,-3.3077,-3.5761,-3.7311,-3.7252,0.0,0.0,0.0,0.0,-3.8693,-3.7199,-3.8843,-3.9697,-3.9697,-3.9697,-3.9659,-3.9584,-3.9094,-3.8002,-3.6521,-3.6985,-3.632,-3.4977,-3.5956,-3.5968,-3.565,-3.7787,-3.8303,-3.7887,-3.7635,-3.8299,-3.9145,0.0,0.0,0.0,0.0,0.0,0.0,0.0,0.0,0.0,0.0,0.0,0.0,0.0,0.0,0.0,0.0,0.0,0.0,0.0,0.0,0.0,0.0,0.0,0.0,0.0,0.0,0.0,0.0,0.0,0.0,0.0,0.0,0.0,0.0,0.0,0.0,0.0,0.0,0.0,0.0,0.0,0.0,-2.3052,-2.3495,-2.3476,-2.3412,-2.4635,-2.4943,-2.4556,-2.3051,-2.2378,-2.1973,-2.1027,0.0,0.0,0.0,0.0,0.0,0.0,0.0,0.0,0.0,0.0,0.0,0.0,0.0,0.0,0.0,0.0,0.0,0.0,0.0,0.0,-2.3677,-2.5423,-2.7252,-2.9676,-3.04,-3.0664,-3.0752,-3.1133,-3.126,-3.0928,-3.286,-3.3875,-3.313,-3.4977,-3.6036,-3.5749,-3.5862,0.0,-3.5457,-3.6875,-3.7513,-3.7186,-3.8843,-3.9697,-3.9697,0.0,0.0,-3.9032,-3.8919,-3.8191,-3.7036,-3.7136,-3.6747,-3.6056,-3.627,-3.5805,-3.4951,-3.5875,-3.6631,-3.7232,-3.6528,-3.7078,-3.8063,0.0,0.0,0.0,0.0,0.0,0.0,0.0,0.0,0.0,0.0,0.0,0.0,0.0,0.0,0.0,0.0,0.0,0.0,0.0,0.0,0.0,0.0,0.0,0.0,0.0,0.0,0.0,0.0,0.0,0.0,0.0,0.0,0.0,0.0,0.0,0.0,0.0,0.0,0.0,0.0,0.0,0.0,-2.3277,-2.4074,-2.4496,-2.4805,-2.5554,-2.5385,-2.467,-2.3902,-2.3488,-2.3198,-2.2684,-2.1375,-1.958,0.0,0.0,0.0,0.0,0.0,0.0,0.0,0.0,0.0,0.0,0.0,0.0,0.0,0.0,-1.6138,0.0,0.0,-2.0995,-2.3331,-2.5272,-2.7124,-2.9053,-2.9554,-2.9969,-3.0772,-3.1074,-3.1123,-3.0918,-3.1946,-3.2478,-3.2016,-3.3581,-3.4457,-3.4232,-3.4836,-3.5108,-3.4958,-3.6517,-3.7282,-3.7186,-3.8843,-3.9697,-3.9697,-3.9421,-3.9132,-3.8856,-3.8567,-3.7977,-3.7186,-3.7186,-3.6872,-3.6358,-3.6031,-3.5419,-3.4723,-3.474,-3.518,-3.5891,-3.5764,-3.6282,-3.707,0.0,0.0,0.0,0.0,0.0,0.0,0.0,0.0,0.0,0.0,0.0,0.0,0.0,0.0,0.0,0.0,0.0,0.0,0.0,0.0,0.0,0.0,0.0,0.0,0.0,0.0,0.0,0.0,0.0,0.0,0.0,0.0,0.0,0.0,0.0,0.0,0.0,0.0,0.0,0.0,0.0,0.0,-2.3259,-2.3921,-2.4547,-2.513,-2.5402,-2.451,-2.3282,-2.3991,-2.3766,-2.3224,-2.3422,-2.3212,-2.2117,-1.8271,-1.7943,0.0,0.0,0.0,0.0,0.0,0.0,0.0,0.0,0.0,-1.5811,-1.6855,-1.7138,-1.7674,-1.923,-2.0559,-2.1751,-2.2665,-2.458,-2.6319,-2.7789,-2.8148,-2.892,-3.0176,-3.0665,-3.1035,-3.0898,-3.1045,-3.1043,-3.0911,-3.2028,-3.2743,-3.2641,-3.4071,-3.4848,-3.4589,-3.6484,-3.7392,-3.7258,-3.8805,-3.9534,-3.9534,-3.8969,-3.8642,-3.853,-3.8065,-3.755,-3.7023,-3.691,-3.6609,-3.6194,-3.5668,-3.5092,-3.4536,-3.4338,-3.4264,-3.4427,-3.5141,-3.5534,-3.6038,0.0,0.0,0.0,0.0,0.0,0.0,0.0,0.0,0.0,0.0,0.0,0.0,0.0,0.0,0.0,0.0,0.0,0.0,0.0,0.0,0.0,0.0,0.0,0.0,0.0,0.0,0.0,0.0,0.0,0.0,0.0,0.0,0.0,0.0,0.0,0.0,0.0,0.0,0.0,0.0,0.0,0.0,-2.3206,-2.3295,-2.345,-2.3784,-2.4791,-2.3994,-2.2671,-2.4406,-2.3852,-2.2608,-2.3549,-2.372,-2.2883,-1.9336,0.0,-1.7287,-1.2633,-1.0862,-1.0824,-1.2938,-1.3775,-1.4602,0.0,0.0,-2.0478,-2.0625,-2.1336,-2.2354,-2.3669,-2.2242,-2.1754,-2.4537,-2.419,-2.4178,-2.604,-2.753,-2.8313,-2.8113,-3.0106,-3.1337,-3.0898,-3.1572,-3.1738,-3.0927,-3.1387,-3.1544,-3.121,-3.2561,-3.3342,-3.3285,-3.6059,-3.7488,-3.7426,-3.8457,-3.8956,-3.8956,-3.8379,-3.7852,-3.7374,-3.7312,-3.6973,-3.642,-3.5943,-3.5692,-3.5562,-3.5518,-3.4899,-3.4084,-3.4983,-3.4525,-3.3379,-3.4414,-3.4782,-3.5005,0.0,0.0,0.0,0.0,0.0,0.0,0.0,0.0,0.0,0.0,0.0,0.0,0.0,0.0,0.0,0.0,0.0,0.0,0.0,0.0,0.0,0.0,0.0,0.0,0.0,0.0,0.0,0.0,0.0,0.0,0.0,0.0,0.0,0.0,0.0,0.0,0.0,0.0,0.0,0.0,0.0,0.0,-2.287,-2.2433,-2.1927,-2.137,-2.0898,-2.0075,0.0,0.0,-1.967,-1.9817,-2.1696,-2.1423,-2.0115,-1.8499,-1.7654,0.0,-1.5266,-1.4552,0.0,0.0,-1.7155,-1.8441,-1.9108,-2.0077,-2.0977,-2.1469,-2.1311,-2.1338,-2.2086,-2.157,-2.1347,0.0,-2.2541,-2.3082,-2.4462,-2.4968,-2.5828,-2.7204,-2.7915,-2.8728,-2.9697,-3.075,-3.1103,-3.0159,-3.0781,-3.1113,-3.0898,-3.1431,-3.2207,-3.3077,-3.4281,-3.5568,-3.7013,-3.7448,-3.7833,-3.8366,-3.7801,-3.7412,-3.7174,-3.686,-3.6584,-3.6332,-3.578,-3.5537,-3.5518,-3.5143,-3.4613,-3.3929,-3.4376,-3.3964,-3.3205,-3.3951,-3.4075,-3.3938,0.0,0.0,0.0,0.0,0.0,0.0,0.0,0.0,0.0,0.0,0.0,0.0,0.0,0.0,0.0,0.0,0.0,0.0,0.0,0.0,0.0,0.0,0.0,0.0,0.0,0.0,0.0,0.0,0.0,0.0,0.0,0.0,0.0,0.0,0.0,0.0,0.0,0.0,0.0,0.0,0.0,0.0,-2.2296,-2.1485,-2.0108,-1.8485,-1.762,-1.6659,0.0,0.0,-1.5767,-1.6563,-1.8451,-1.8342,-1.7401,-1.674,-1.5872,-1.5352,-1.5986,0.0,0.0,-1.7688,-1.9459,-2.0797,-2.0716,-2.0872,-2.1131,-2.1538,-2.0656,-1.9909,-2.0424,-2.0559,-2.0479,-2.0227,-2.1046,-2.1975,-2.274,-2.3061,-2.3635,-2.5291,-2.5511,-2.5959,-2.7107,-2.917,-3.0187,-3.0035,-3.0568,-3.0889,-3.0889,-3.0889,-3.1441,-3.2426,-3.2851,-3.3896,-3.5718,-3.5864,-3.6173,-3.6844,-3.6579,-3.6453,-3.644,-3.6438,-3.6358,-3.632,-3.5629,-3.5272,-3.5226,-3.473,-3.4155,-3.3637,-3.3708,-3.3345,-3.2895,-3.3081,-3.3056,-3.292,0.0,0.0,0.0,0.0,0.0,0.0,0.0,0.0,0.0,0.0,0.0,0.0,0.0,0.0,0.0,0.0,0.0,0.0,0.0,0.0,0.0,0.0,0.0,0.0,0.0,0.0,0.0,0.0,0.0,0.0,0.0,0.0,0.0,0.0,0.0,0.0,0.0,0.0,0.0,0.0,0.0,0.0,-2.1517,-2.0529,-1.8019,-1.5177,-1.6184,0.0,0.0,0.0,-1.3498,-1.3131,-1.3657,-1.4896,0.0,-1.4048,-1.2652,0.0,0.0,0.0,-1.3745,-1.76,-1.9248,-2.0139,-2.0875,-2.1769,-2.209,-2.1195,-2.0288,-1.9837,-2.0379,-1.9463,-1.8891,-2.0047,-2.0234,-2.0434,-2.1148,-2.2324,-2.2646,-2.1447,-2.2824,-2.3671,0.0,-2.6587,-2.9528,-3.078,-3.0889,-3.0889,-3.0889,-3.0889,-3.0889,-3.1005,-3.2311,-3.318,-3.317,-3.3669,-3.3937,-3.3904,-3.4275,-3.4507,-3.4507,-3.5775,-3.6358,-3.6307,-3.5215,-3.4738,-3.4675,-3.4135,-3.3608,-3.312,-3.3101,-3.2806,-3.2179,-3.1638,-3.1773,-3.2179,0.0,0.0,0.0,0.0,0.0,0.0,0.0,0.0,0.0,0.0,0.0,0.0,0.0,0.0,0.0,0.0,0.0,0.0,0.0,0.0,0.0,0.0,0.0,0.0,0.0,0.0,0.0,0.0,0.0,0.0,0.0,0.0,0.0,0.0,0.0,0.0,0.0,0.0,0.0,0.0,0.0,0.0,-2.0883,-1.737,-1.5189,-1.3635,0.0,0.0,0.0,0.0,-0.8867,-0.9174,-1.0908,0.0,0.0,-1.0106,-1.1423,-1.3153,-1.3576,0.0,-1.734,-1.8406,-1.9659,-2.063,-2.0377,-2.0222,-2.0032,-1.9413,-1.8335,-1.7392,-1.7399,-1.7007,-1.7108,-1.8283,-1.8644,-1.9239,-2.0678,-2.057,-2.0636,-2.1434,-2.227,0.0,0.0,0.0,0.0,-2.8667,-2.9811,-3.0577,-3.0889,-3.0889,-3.0889,-3.0889,-3.1325,-3.195,-3.2493,-3.2611,-3.29,-3.3317,-3.4,-3.4385,-3.4483,-3.5763,-3.6157,-3.578,-3.5039,-3.4512,-3.4135,-3.3583,-3.3066,-3.2512,-3.2471,-3.2198,-3.1589,-3.104,-3.1002,-3.1158,0.0,0.0,0.0,0.0,0.0,0.0,0.0,0.0,0.0,0.0,0.0,0.0,0.0,0.0,0.0,0.0,0.0,0.0,0.0,0.0,0.0,0.0,0.0,0.0,0.0,0.0,0.0,0.0,0.0,0.0,0.0,0.0,0.0,0.0,0.0,0.0,0.0,0.0,0.0,0.0,0.0,0.0,-1.7723,-1.3585,-1.1467,0.0,0.0,0.0,0.0,0.0,0.0,0.0,-0.7895,-0.7798,-0.7443,-0.8816,-1.0982,-1.3355,-1.4967,-1.7073,-1.8883,-1.9623,-2.0334,-2.0619,-1.9766,-1.9238,-1.8618,-1.8016,-1.6967,-1.5992,-1.5591,-1.5431,-1.5745,-1.6921,-1.7368,-1.817,-2.0138,-1.9686,-1.9623,-2.0767,-2.0904,0.0,0.0,0.0,0.0,-2.6986,-2.8907,-3.0081,-3.0185,-3.0332,-3.0566,-3.0879,-3.0889,-3.1186,-3.1758,-3.1421,-3.1563,-3.199,-3.2611,-3.3155,-3.3662,-3.4545,-3.4652,-3.417,-3.4023,-3.3702,-3.3282,-3.3131,-3.2902,-3.2475,-3.2059,-3.1665,-3.1293,-3.0585,-3.0316,-3.0341,0.0,0.0,0.0,0.0,0.0,0.0,0.0,0.0,0.0,0.0,0.0,0.0,0.0,0.0,0.0,0.0,0.0,0.0,0.0,0.0,0.0,0.0,0.0,0.0,0.0,0.0,0.0,0.0,0.0,0.0,0.0,0.0,0.0,0.0,0.0,0.0,0.0,0.0,0.0,0.0,0.0,0.0,-1.2344,-0.9379,0.0,0.0,0.0,0.0,0.0,0.0,0.0,0.0,0.0,-0.5347,-0.6671,-0.9968,-1.1272,-1.2562,-1.6693,-1.7823,-1.8396,-2.1022,-2.1011,-2.0103,-1.9052,-1.8688,-1.8043,-1.6898,-1.6106,-1.5484,0.0,0.0,-1.4743,-1.5979,-1.6505,-1.7338,-1.9455,-1.9809,-1.9673,0.0,0.0,0.0,0.0,0.0,0.0,-2.5807,0.0,-2.947,-2.9023,-2.9414,-3.001,-3.083,-3.0859,-3.0859,-3.0859,-3.0,-2.9779,-3.0255,-3.0328,-3.0916,-3.223,-3.2208,-3.2111,-3.1896,-3.2357,-3.2442,-3.2206,-3.2757,-3.3056,-3.2918,-3.1838,-3.1411,-3.1255,-3.0188,-2.9792,-2.9792,0.0,0.0,0.0,0.0,0.0,0.0,0.0,0.0,0.0,0.0,0.0,0.0,0.0,0.0,0.0,0.0,0.0,0.0,0.0,0.0,0.0,0.0,0.0,0.0,0.0,0.0,0.0,0.0,0.0,0.0,0.0,0.0,0.0,0.0,0.0,0.0,0.0,0.0,0.0,0.0,0.0,0.0,-0.9316,0.0,0.0,0.0,0.0,0.0,0.0,0.0,0.0,0.0,0.0,-0.7188,-0.8144,-0.933,-1.1622,-1.4096,-1.541,-1.7523,-1.9338,-1.9311,-1.9359,-1.8977,-1.7638,-1.7248,-1.6869,-1.6008,-1.459,-1.3392,0.0,0.0,0.0,-1.4629,-1.5555,0.0,-1.9208,-1.9456,0.0,-1.9633,0.0,-2.0971,-2.0166,-2.2907,0.0,0.0,-2.7545,-2.984,-3.0303,-3.0488,-3.0498,-3.0371,-3.0371,-3.0371,-3.0371,-2.9834,-2.9508,-2.9272,-2.9972,-3.0514,-3.0803,-3.1562,-3.1596,-3.116,-3.091,-3.111,-3.1484,-3.1629,-3.1994,-3.2378,-3.1685,-3.114,-3.0727,-3.0047,-2.9792,-2.9792,0.0,0.0,0.0,0.0,0.0,0.0,0.0,0.0,0.0,0.0,0.0,0.0,0.0,0.0,0.0,0.0,0.0,0.0,0.0,0.0,0.0,0.0,0.0,0.0,0.0,0.0,0.0,0.0,0.0,0.0,0.0,0.0,0.0,0.0,0.0,0.0,0.0,0.0,0.0,0.0,0.0,0.0,0.0,0.0,0.0,0.0,0.0,0.0,0.0,0.0,0.0,-0.5238,-0.6885,-0.7892,-0.8817,-1.0848,0.0,-1.5464,-1.6802,-1.8281,-1.9439,-1.91,-1.8615,-1.783,-1.6312,-1.5745,-1.5187,-1.3957,-1.2852,0.0,0.0,0.0,0.0,0.0,0.0,0.0,-1.8333,-1.8947,-1.9341,0.0,-2.0676,0.0,-2.0676,-2.2842,-2.4092,0.0,-2.6625,-2.8916,-2.9971,-3.0029,-3.0078,-3.0195,-3.0019,-2.9834,-2.9639,-2.9404,-2.9072,-2.8643,-2.9222,-2.9306,-2.9217,-2.9659,-2.9543,-2.8972,0.0,-2.9424,-2.9758,-3.0755,-3.1276,-3.1406,-3.1392,-3.1083,-3.0561,-2.998,-2.9792,-2.9792,0.0,0.0,0.0,0.0,0.0,0.0,0.0,0.0,0.0,0.0,0.0,0.0,0.0,0.0,0.0,0.0,0.0,0.0,0.0,0.0,0.0,0.0,0.0,0.0,0.0,0.0,0.0,0.0,0.0,0.0,0.0,0.0,0.0,0.0,0.0,0.0,0.0,0.0,0.0,0.0,0.0,0.0,0.0,0.0,0.0,0.0,0.0,0.0,0.0,0.0,-0.4314,-0.4845,-0.6999,-0.8071,-0.9222,-1.2746,-1.4545,-1.582,-1.8172,-1.8641,-1.857,-1.8984,-1.8123,-1.6834,-1.5404,-1.4536,-1.352,-1.18,0.0,-1.0949,-1.0269,0.0,-1.149,-1.3019,0.0,-1.5292,-1.722,-1.8297,-1.909,-1.9619,-1.9904,-2.0349,-2.1076,-2.2013,-2.2827,-2.3488,-2.5401,-2.7173,-2.8651,-2.8972,-2.9375,-3.001,-2.9678,-2.9277,-2.8838,-2.8887,-2.8711,-2.8291,-2.8291,-2.8066,-2.7666,-2.7607,-2.7202,-2.6547,0.0,0.0,-2.7822,-2.9912,-3.0537,-3.0288,-3.0891,-3.0797,-3.0347,-2.9961,-2.9792,-2.9792,0.0,0.0,0.0,0.0,0.0,0.0,0.0,0.0,0.0,0.0,0.6597,0.6766,0.0,0.0,0.0,0.0,0.0,0.0,0.0,0.0,0.0,0.0,0.0,0.0,0.0,0.0,0.0,0.0,0.0,0.0,0.0,0.0,0.0,0.0,0.0,0.0,0.0,0.0,0.0,0.0,0.0,0.0,0.0,0.0,0.0,0.0,0.0,0.0,0.0,0.0,-0.4265,-0.6028,-0.8045,-0.9365,-1.0264,-1.0766,-1.1621,-1.2533,-1.3128,-1.4669,-1.6043,-1.6325,-1.6957,-1.7188,-1.5959,-1.4663,0.0,0.0,0.0,-1.0037,-1.0234,-1.069,0.0,-1.3287,0.0,0.0,0.0,0.0,-1.8658,0.0,0.0,0.0,0.0,0.0,0.0,0.0,0.0,-2.4976,-2.7873,-2.9269,-2.9717,-2.916,-2.9072,-2.8828,-2.8408,-2.875,-2.8711,-2.8291,-2.8291,-2.8066,-2.7656,-2.7295,-2.6869,-2.6428,-2.6221,0.0,-2.7617,-2.8021,-2.8583,-2.9092,-2.9694,-2.9597,-2.9221,-2.9616,-2.9792,-2.9792,0.0,0.0,0.0,0.0,0.0,0.0,0.0,0.0,0.6748,0.7534,0.8375,0.8391,0.7029,0.7279,0.0,0.0,0.0,0.0,0.0,0.0,0.0,0.0,0.0,0.0,0.0,0.0,0.0,0.0,0.0,0.0,0.0,0.0,0.0,0.0,0.0,0.0,0.0,0.0,0.0,0.0,0.0,0.0,0.0,0.0,0.0,0.0,0.0,0.0,0.0,0.0,-0.2973,-0.4338,-0.6938,-0.8802,-0.9981,-0.9789,-1.092,-1.2228,-1.2209,-1.3346,-1.4707,-1.5482,-1.5743,-1.5557,-1.4295,0.0,0.0,0.0,0.0,-0.8633,-0.9003,0.0,0.0,0.0,0.0,0.0,0.0,0.0,0.0,0.0,0.0,0.0,0.0,0.0,0.0,0.0,0.0,-2.3957,-2.7391,-2.8842,-2.9248,-2.8613,-2.8594,-2.8496,-2.8291,-2.8496,-2.8496,-2.8291,-2.8291,-2.7949,-2.7324,-2.7109,-2.666,-2.6035,-2.583,0.0,-2.5737,-2.6816,-2.691,-2.6548,-2.8109,-2.8414,-2.8057,-2.8978,-2.9269,-2.9372,0.0,0.0,0.0,0.0,0.0,0.0,0.0,0.8643,0.8241,0.8273,0.8922,0.9022,0.8102,0.8085,0.8378,0.0,0.0,0.0,0.0,0.0,0.0,0.0,0.0,0.0,0.0,0.0,0.0,0.0,0.0,0.0,0.0,0.0,0.0,0.0,0.0,0.0,0.0,0.0,0.0,0.0,0.0,0.0,0.0,0.0,0.0,0.0,0.0,0.0,0.0,0.0,-0.1767,-0.242,-0.5165,-0.7206,-0.8658,-0.8637,-1.0058,-1.1756,-1.1718,-1.2474,-1.3601,-1.4505,-1.4456,-1.3693,-1.2418,-1.1327,0.0,0.0,-0.7395,-0.7602,-0.8036,0.0,0.0,0.0,0.0,0.0,0.0,0.0,0.0,0.0,0.0,0.0,0.0,0.0,0.0,0.0,0.0,0.0,-2.696,-2.7873,-2.8288,-2.8301,-2.8203,-2.8154,-2.8154,-2.8066,-2.8018,-2.8018,-2.8018,-2.7617,-2.6875,-2.6875,-2.6465,-2.5732,-2.5635,0.0,0.0,-2.5685,-2.5385,-2.404,-2.6455,-2.7077,-2.6721,-2.786,-2.8339,-2.8382,0.0,0.0,0.0,0.0,0.0,0.0,0.0,0.8077,0.9393,0.7794,0.7053,0.7403,0.9373,0.9761,0.9841,0.0,0.0,0.0,0.0,0.0,0.0,0.0,0.0,0.0,0.0,0.0,0.0,0.0,0.0,0.0,0.0,0.0,0.0,0.0,0.0,0.0,0.0,0.0,0.0,0.0,0.0,0.0,0.0,0.0,0.0,0.0,0.0,0.0,0.0,0.0,0.0,-0.2029,-0.3314,-0.4648,-0.586,-0.6229,0.0,0.0,-0.9054,-1.0677,-1.2091,-1.1901,-1.2517,-1.2824,-1.1826,0.0,0.0,-0.8417,-0.7883,-0.7768,-0.8571,-0.9225,0.0,0.0,0.0,0.0,0.0,0.0,0.0,0.0,0.0,0.0,0.0,0.0,0.0,0.0,0.0,0.0,-2.6574,-2.6545,-2.698,-2.8291,-2.792,-2.7725,-2.7725,-2.7334,-2.7129,-2.7129,-2.7129,-2.6894,-2.6445,-2.6445,-2.6182,-2.5713,-2.5303,0.0,0.0,-2.4392,-2.3807,-2.2871,-2.4822,-2.535,-2.5139,-2.6295,-2.667,-2.6865,0.0,0.0,0.0,0.0,0.0,0.0,0.0,0.6659,0.7764,0.7524,0.7566,0.7791,0.8194,0.9088,0.9674,0.0,0.0,0.0,0.0,0.0,0.0,0.0,0.0,0.0,0.0,0.0,0.0,0.0,0.0,0.0,0.0,0.0,0.0,0.0,0.0,0.0,0.0,0.0,0.0,0.0,0.0,0.0,0.0,0.0,0.0,0.0,0.0,0.0,0.0,0.0,0.0,0.0,-0.0808,-0.1857,0.0,0.0,-0.6251,-0.7365,-0.818,-0.9425,-1.0734,-1.136,-1.1389,-1.1053,-1.029,0.0,-0.8517,-0.7339,-0.7147,-0.7275,-0.753,-0.7776,0.0,0.0,0.0,0.0,0.0,0.0,0.0,0.0,0.0,0.0,0.0,0.0,0.0,0.0,0.0,0.0,-2.3229,-2.4014,-2.4607,-2.5023,-2.5724,-2.6078,-2.6078,-2.667,-2.7012,-2.7012,-2.7012,-2.6797,-2.6377,-2.6113,-2.5752,-2.5312,-2.4863,0.0,0.0,-2.3523,-2.2942,-2.1535,-2.3634,-2.4306,-2.431,-2.5422,-2.583,-2.5946,0.0,0.0,0.0,0.0,0.0,0.5106,0.5095,0.5855,0.6582,0.7027,0.7585,0.7783,0.7392,0.7652,0.8197,0.9018,0.0,0.0,0.0,0.0,0.0,0.0,0.0,0.0,0.0,0.0,0.0,0.0,0.0,0.0,0.0,0.0,0.0,0.0,0.0,0.0,0.0,0.0,0.0,0.0,0.0,0.0,0.0,0.0,0.0,0.0,0.0,0.0,0.0,0.0,0.0,0.0,0.0,0.0,0.0,0.0,-0.5166,-0.6609,-0.7347,-0.8501,-0.9603,-1.0451,-0.9902,-0.9015,0.0,0.0,-0.7284,-0.618,-0.6215,-0.6494,-0.6552,-0.6546,-0.7104,0.0,0.0,0.0,0.0,0.0,0.0,0.0,0.0,0.0,0.0,0.0,0.0,0.0,0.0,0.0,0.0,-2.1246,-2.2153,-2.2855,-2.3695,-2.4165,-2.4165,-2.5302,-2.5815,-2.5815,-2.6235,-2.6084,-2.5439,-2.5508,-2.5156,-2.4492,0.0,0.0,0.0,-2.3043,-2.2544,-2.1183,-2.2879,-2.3612,-2.372,-2.4445,-2.4702,-2.4918,0.0,0.0,0.0,0.0,0.0,0.0,0.0,0.6013,0.6551,0.6174,0.6412,0.6898,0.7616,0.5634,0.5301,0.7898,0.0,0.0,0.0,0.0,0.0,0.0,0.0,0.0,0.0,0.0,0.0,0.0,0.0,0.0,0.0,0.0,0.0,0.0,0.0,0.0,0.0,0.0,0.0,0.0,0.0,0.0,0.0,0.0,0.0,0.0,0.0,0.0,0.0,0.0,0.0,0.0,0.0,0.0,0.0,0.0,-0.3855,-0.5873,-0.6403,-0.7636,-0.891,-0.8754,-0.7926,-0.7125,0.0,0.0,-0.5348,-0.5311,-0.5308,-0.5444,-0.5942,-0.6024,-0.6447,-0.782,0.0,0.0,0.0,0.0,0.0,0.0,0.0,0.0,0.0,0.0,0.0,0.0,0.0,0.0,0.0,-1.8056,-1.9557,-2.2838,-2.2507,-2.2324,-2.2324,-2.2801,-2.3009,-2.3018,-2.4488,-2.4424,-2.3242,-2.4502,-2.4375,0.0,0.0,0.0,0.0,-2.2901,-2.2646,-2.1996,-2.2806,-2.3144,-2.3144,-2.3144,-2.3144,-2.3485,0.0,0.0,0.0,0.0,0.0,0.0,0.0,0.5287,0.5408,0.5243,0.5812,0.6067,0.5568,0.6437,0.6577,0.533,0.0,0.0,0.0,0.0,0.0,0.0,0.0,0.0,0.0,0.0,0.0,0.0,0.0,0.0,0.0,0.0,0.0,0.0,0.0,0.0,0.0,0.0,0.0,0.0,0.0,0.0,0.0,0.0,0.0,0.0,0.0,0.0,0.0,0.0,0.0,0.0,0.0,0.0,0.0,0.0,0.0,0.0,-0.4525,-0.5667,-0.6607,-0.6563,-0.6363,-0.6057,-0.5617,0.0,-0.5081,-0.4741,-0.5,-0.5262,-0.5134,-0.509,-0.576,-0.7788,-0.8375,0.0,0.0,0.0,0.0,0.0,0.0,0.0,0.0,0.0,0.0,0.0,0.0,0.0,0.0,-1.7849,-1.8181,-1.9204,-2.0045,-2.0395,-2.0163,-2.123,-2.1667,-2.1516,-2.2786,-2.2871,-2.1971,-2.3496,0.0,0.0,0.0,0.0,0.0,-2.2828,-2.2642,-2.1962,-2.2806,-2.3135,-2.3135,-2.3135,-2.3135,-2.3164,0.0,0.0,0.0,0.0,0.0,0.0,0.0,0.4987,0.4904,0.4818,0.5267,0.5267,0.4369,0.5975,0.6442,0.4796,0.0,0.0,0.0,0.0,0.0,0.0,0.0,0.0,0.0,0.0,0.0,0.0,0.0,0.0,0.0,0.0,0.0,0.0,0.0,0.0,0.0,0.0,0.0,0.0,0.0,0.0,0.4446,0.0,0.0,0.0,0.0,0.0,0.0,0.0,0.0,0.0,0.0,0.0,0.0,0.0,0.0,0.0,0.0,-0.4126,-0.4974,-0.4974,-0.4856,0.0,0.0,0.0,-0.4131,-0.3835,-0.4321,-0.4709,-0.4435,-0.4459,-0.5009,-0.6482,-0.7294,0.0,0.0,0.0,0.0,0.0,0.0,0.0,0.0,0.0,0.0,0.0,0.0,0.0,0.0,-1.7689,-1.7528,-1.7422,-1.8233,-1.8585,-1.8268,-1.9413,-1.9917,-1.9798,-2.1526,-2.1789,-2.0878,-2.2875,0.0,0.0,0.0,0.0,0.0,-2.2861,-2.2784,-2.2376,-2.2884,-2.3135,-2.3135,-2.3135,-2.3135,-2.3154,0.0,0.0,0.0,0.0,0.0,0.0,0.0,0.0,0.0,0.4818,0.476,0.4546,0.4047,0.4561,0.5184,0.5788,0.0,0.0,0.0,0.0,0.0,0.0,0.0,0.0,0.0,0.0,0.0,0.0,0.5293,0.6002,0.5271,0.0,0.0,0.0,0.0,0.0,0.0,0.0,0.0,0.0,0.0,0.0,0.0,0.0,0.0,0.0,0.0,0.0,0.0,0.0,0.0,0.0,0.0,0.0,0.0,0.0,0.0,0.0,0.0,0.0,0.0,0.0,0.0,0.0,0.0,0.0,0.0,-0.2695,-0.339,-0.3929,-0.3846,-0.4073,-0.4284,-0.4347,-0.5903,0.0,0.0,0.0,0.0,0.0,0.0,0.0,0.0,0.0,0.0,0.0,0.0,0.0,0.0,-1.7542,-1.7408,-1.7101,-1.7108,-1.6974,-1.6673,-1.7559,-1.7949,-1.7882,-2.0458,-2.0971,-1.9729,-2.2403,0.0,0.0,0.0,0.0,0.0,-2.3135,-2.3135,-2.3135,-2.3135,-2.3135,-2.3135,-2.3135,-2.3135,-2.3261,0.0,0.0,0.0,0.0,0.0,0.0,0.0,0.0,0.0,0.0,0.4407,0.4295,0.4774,0.4558,0.4621,0.0,0.0,0.0,0.0,0.0,0.0,0.0,0.0,0.0,0.0,0.0,0.0,0.4615,0.4794,0.504,0.5285,0.464,0.0,0.0,0.0,0.0,0.0,0.0,0.0,0.0,0.0,0.0,0.0,0.0,0.0,0.0,0.4716,0.428,0.0,0.0,0.0,0.0,0.0,0.0,0.0,0.0,0.1391,0.0956,-0.0187,0.0,-0.164,-0.164,-0.1835,0.0,0.0,0.0,0.0,0.0,0.0,-0.3488,-0.4022,-0.4385,-0.4905,-0.5889,-0.6639,0.0,0.0,0.0,0.0,0.0,0.0,0.0,0.0,0.0,0.0,0.0,0.0,0.0,0.0,-1.7128,-1.7014,-1.6493,-1.6693,-1.6673,-1.638,-1.6592,-1.6402,-1.572,-1.7742,-1.7948,-1.6719,-2.0228,0.0,0.0,0.0,0.0,-2.3135,-2.3135,-2.3135,-2.3135,-2.3135,-2.3135,-2.3135,-2.3135,-2.3135,-2.3144,0.0,0.0,0.0,0.0,0.0,0.0,0.0,0.0,0.0,0.0,0.0,0.0,0.0,0.0,0.0,0.0,0.0,0.0,0.0,0.0,0.0,0.0,0.0,0.0,0.0,0.0,0.0,0.0,0.0,0.4997,0.0,0.0,0.0,0.0,0.0,0.0,0.0,0.0,0.0,0.0,0.5451,0.0,0.0,0.0,0.0,0.0,0.5017,0.4538,0.0,0.376,0.3288,0.2801,0.0,0.0,0.0,0.0,0.1763,0.1588,0.0897,0.0134,-0.0465,-0.0482,-0.071,-0.0976,0.0,0.0,0.0,0.0,0.0,0.0,-0.391,-0.4009,0.0,-0.5514,-0.5835,0.0,0.0,0.0,0.0,0.0,0.0,0.0,0.0,0.0,0.0,0.0,0.0,0.0,0.0,-1.6854,-1.674,-1.6286,-1.6426,-1.6366,-1.6072,-1.6072,-1.5698,-1.506,-1.6834,-1.7146,-1.6182,-1.9154,-2.026,0.0,0.0,0.0,-2.2277,-2.2447,-2.2793,-2.3135,-2.3135,-2.3135,-2.3135,-2.3135,-2.3135,-2.3135,0.0,0.0,0.0,0.0,0.0,0.0,0.0,0.0,0.0,0.0,0.0,0.0,0.0,0.0,0.0,0.0,0.0,0.0,0.0,0.0,0.0,0.0,0.0,0.0,0.0,0.0,0.0,0.0,0.0,0.0,0.0,0.0,0.0,0.0,0.0,0.0,0.0,0.0,0.0,0.0,0.5277,0.0,0.0,0.0,0.0,0.0,0.0,0.0,0.0,0.4162,0.3638,0.2947,0.29,0.0,0.0,0.0,0.0,0.0,0.1696,0.0847,0.0096,0.0156,0.005,0.0,0.0,0.0,0.0,0.0,0.0,0.0,0.0,0.0,0.0,0.0,0.0,0.0,0.0,0.0,0.0,0.0,0.0,0.0,0.0,0.0,0.0,0.0,0.0,0.0,0.0,-1.6201,-1.6196,-1.5914,-1.6149,-1.6126,-1.5832,-1.5832,-1.5538,-1.506,-1.665,-1.7059,-1.6617,-1.8356,-1.919,0.0,0.0,0.0,-2.089,-2.1532,-2.209,-2.2689,-2.2999,-2.3038,-2.3028,-2.3047,-2.3135,-2.3135,0.0,0.0,0.0,0.0,0.0,0.0,0.0,0.0,0.0,0.0,0.0,0.0,0.0,0.0,0.0,0.0,0.0,0.0,0.0,0.0,0.0,0.0,0.0,0.0,0.0,0.0,0.0,0.0,0.0,0.0,0.5273,0.3782,0.2962,0.0,0.0,0.0,0.3704,0.4333,0.4634,0.473,0.5151,0.0,0.0,0.0,0.0,0.0,0.0,0.0,0.0,0.4127,0.3672,0.3198,0.2972,0.0,0.0,0.0,0.0,0.0,0.168,0.1089,0.0599,0.0749,0.0385,0.0,0.0,0.0,0.0,0.0,0.0,0.0,0.0,0.0,0.0,0.0,0.0,0.0,0.0,0.0,0.0,0.0,0.0,0.0,0.0,0.0,0.0,0.0,0.0,0.0,0.0,-1.3906,-1.46,-1.4238,-1.5544,-1.6126,-1.5832,-1.5832,-1.5538,-1.497,-1.5737,-1.5797,-1.5328,-1.711,-1.7789,0.0,0.0,-1.9112,-1.9109,-2.0449,-2.0851,-2.0798,-2.2496,-2.2911,-2.2669,-2.2931,-2.3135,-2.3135,0.0,0.0,0.0,0.0,0.0,0.0,0.0,0.0,0.0,0.0,0.0,0.0,0.0,0.0,0.0,0.0,0.0,0.0,0.0,0.0,0.0,0.0,0.0,0.0,0.0,0.0,0.0,0.0,0.0,0.3892,0.3868,0.3064,0.2699,0.2699,0.0,0.0,0.311,0.3677,0.4172,0.4628,0.0,0.0,0.0,0.0,0.0,0.0,0.0,0.0,0.0,0.0,0.4155,0.3732,0.3373,0.0,0.0,0.0,0.0,0.0,0.2327,0.1931,0.161,0.2,0.1046,0.0,0.0,0.0,0.0,0.0,0.0,0.0,0.0,0.0,0.0,0.0,0.0,0.0,0.0,0.0,0.0,0.0,0.0,0.0,0.0,0.0,0.0,0.0,0.0,0.0,0.0,0.0,-1.2927,-1.2818,-1.3511,-1.4201,-1.4758,-1.4603,-1.4711,-1.497,-1.5551,-1.5524,-1.5073,-1.6202,-1.6577,-1.6501,0.0,-1.7541,-1.7962,-1.9268,-1.9987,-2.0334,-2.209,-2.2639,-2.2562,-2.2931,-2.3135,-2.3135,0.0,0.0,0.0,0.0,0.0,0.0,0.0,0.0,0.0,0.0,0.0,0.0,0.0,0.0,0.0,0.0,0.0,0.0,0.0,0.0,0.0,0.0,0.0,0.0,0.0,0.0,0.0,0.2776,0.2737,0.2712,0.2688,0.2706,0.2712,0.0,0.0,0.0,0.2721,0.302,0.3547,0.4167,0.0,0.0,0.0,0.0,0.0,0.0,0.0,0.0,0.0,0.0,0.0,0.0,0.0,0.0,0.0,0.2978,0.2779,0.2713,0.2866,0.254,0.228,0.2785,0.0,0.0,0.0,0.0,0.0,0.0,0.0,0.0,0.0,0.0,0.0,0.0,0.0,0.0,0.0,0.0,0.0,0.0,0.0,0.0,0.0,0.0,0.0,0.0,0.0,0.0,0.0,0.0,-1.1434,-1.1385,-1.1676,-1.232,-1.3311,-1.331,-1.3903,-1.507,-1.5518,-1.5458,-1.4983,-1.5565,-1.5718,-1.5484,-1.5655,-1.5987,-1.6595,-1.7846,-1.8862,-1.9826,-2.1412,-2.2175,-2.2562,-2.2931,-2.3135,-2.3135,0.0,0.0,0.0,0.0,0.0,0.0,0.0,0.0,0.0,0.0,0.0,0.0,0.0,0.0,0.0,0.0,0.0,0.0,0.0,0.0,0.0,0.0,0.0,0.0,0.0,0.2641,0.2798,0.2983,0.2772,0.2707,0.2712,0.2712,0.2712,0.2712,0.0,0.0,0.2709,0.2721,0.278,0.2911,0.3719,0.0,0.0,0.0,0.0,0.0,0.0,0.0,0.0,0.0,0.0,0.0,0.0,0.0,0.3311,0.3266,0.3003,0.2713,0.2866,0.2474,0.2043,0.224,0.1888,0.0,0.0,0.0,0.0,0.0,0.0,0.0,0.0,0.0,0.0,0.0,0.0,0.0,0.0,0.0,0.0,0.0,0.0,0.0,0.0,0.0,0.0,0.0,0.0,0.0,0.0,0.0,0.0,-0.9931,-1.1067,-1.1718,-1.1686,-1.2694,-1.3908,-1.5364,-1.5404,-1.5264,-1.4983,-1.5565,-1.5384,-1.4623,-1.4925,-1.4818,-1.4443,-1.5893,-1.7191,-1.8271,-1.9787,-2.1278,-2.2562,-2.2931,-2.3135,-2.3135,0.0,0.0,0.0,0.0,0.0,0.0,0.0,0.0,0.0,0.0,0.0,0.0,0.0,0.0,0.0,0.0,0.0,0.0,0.0,0.0,0.0,0.0,0.0,0.2688,0.263,0.2685,0.2791,0.2985,0.2815,0.2703,0.2712,0.2712,0.0,0.0,0.0,0.0,0.2712,0.2706,0.2692,0.2747,0.3318,0.3621,0.0,0.0,0.0,0.0,0.0,0.0,0.0,0.0,0.5023,0.4953,0.0,0.4242,0.4043,0.3821,0.3429,0.3084,0.315,0.2925,0.279,0.3307,0.0,0.0,0.0,0.0,0.0,0.0,0.0,0.0,0.0,0.0,0.0,0.0,0.0,0.0,0.0,0.0,0.0,0.0,0.0,0.0,0.0,0.0,0.0,0.0,0.0,0.0,0.0,0.0,0.0,-0.8434,-0.8895,-0.9511,-1.0255,-1.0496,-1.1382,-1.2744,-1.4385,-1.507,-1.497,-1.519,-1.511,-1.4796,-1.4716,-1.4563,-1.4435,-1.5507,-1.6217,-1.6798,-1.8986,-2.0726,-2.2214,-2.2572,-2.2698,-2.2795,0.0,0.0,0.0,0.0,0.0,0.0,0.0,0.0,0.0,0.0,0.0,0.0,0.0,0.0,0.0,0.0,0.0,0.0,0.0,0.0,0.0,0.0,0.0,0.2703,0.2751,0.2706,0.2791,0.2982,0.2874,0.2798,0.2712,0.0,0.0,0.0,0.0,0.0,0.0,0.0,0.2709,0.2725,0.2995,0.3163,0.0,0.0,0.0,0.0,0.0,0.0,0.0,0.0,0.4896,0.4858,0.0,0.0,0.4377,0.4248,0.3751,0.329,0.329,0.3135,0.3141,0.0,0.0,0.0,0.0,0.0,0.0,0.0,0.0,0.0,0.0,0.0,0.0,0.0,0.0,0.0,0.0,0.0,0.0,0.0,0.0,0.0,0.0,0.0,0.0,0.0,0.0,0.0,0.0,0.0,0.0,0.0,-0.7411,-0.7836,-0.8631,-0.8868,-0.942,-1.0387,-1.2568,-1.3774,-1.4141,-1.4327,-1.4493,-1.4683,-1.4569,-1.4469,-1.4455,-1.4979,-1.5409,-1.5952,-1.8745,-2.0451,-2.1447,-2.222,-2.2571,-2.2698,0.0,0.0,0.0,0.0,0.0,0.0,0.0,0.0,0.0,0.0,0.0,0.0,0.0,0.0,0.0,0.0,0.0,0.0,0.0,0.0,0.0,0.0,0.0,0.2751,0.2903,0.2757,0.2754,0.2907,0.3018,0.2976,0.2712,0.2716,0.0,0.0,0.0,0.0,0.0,0.0,0.2693,0.2712,0.2712,0.2712,0.2746,0.0,0.0,0.0,0.0,0.0,0.0,0.0,0.3993,0.4058,0.4473,0.0,0.0,0.4479,0.3983,0.3327,0.3294,0.3006,0.2791,0.0,0.0,0.0,0.0,0.0,0.0,0.0,0.0,0.0,0.0,0.0,0.0,0.0,0.0,0.0,0.0,0.0,0.0,0.0,0.0,0.0,0.0,0.0,0.0,0.0,0.0,0.0,0.0,0.0,0.0,0.0,-0.7,-0.6926,-0.6926,-0.8102,-0.8687,-0.8692,-0.9986,-1.1209,-1.226,-1.2874,-1.356,-1.4102,-1.4389,-1.4355,-1.4088,-1.4088,-1.4754,-1.6002,-1.8998,-2.0173,-2.0353,-2.1927,-2.2757,-2.3047,0.0,0.0,0.0,0.0,0.0,0.0,0.0,0.0,0.0,0.0,0.0,0.0,0.0,0.0,0.0,0.0,0.0,0.0,0.0,0.0,0.0,0.0,0.0,0.0,0.0,0.0,0.189,0.227,0.2621,0.2771,0.0,0.0,0.0,0.2693,0.0,0.0,0.0,0.0,0.0,0.2693,0.2693,0.2693,0.2726,0.0,0.0,0.0,0.0,0.0,0.0,0.0,0.0,0.0,0.4473,0.0,0.0,0.4903,0.4759,0.4493,0.4151,0.3698,0.0,0.0,0.0,0.0,0.0,0.0,0.0,0.0,0.0,0.0,0.0,0.0,0.0,0.0,0.0,0.0,0.0,0.0,0.0,0.0,0.0,0.0,0.0,0.0,0.0,0.0,0.0,0.0,0.0,0.0,0.0,0.0,-0.679,-0.677,-0.677,-0.7097,-0.7261,-0.7261,-0.764,-0.8963,-1.1128,-1.214,-1.2653,-1.2857,-1.3822,-1.4168,-1.4088,-1.4088,-1.4769,-1.5801,-1.669,-1.7532,-1.8337,-1.9877,-2.072,-2.125,0.0,0.0,0.0,0.0,0.0,0.0,0.0,0.0,0.0,0.0,0.0,0.0,0.0,0.0,0.0,0.0,0.0,0.0,0.0,0.0,0.0,0.0,0.0,0.0,0.0,0.1302,0.1268,0.0,0.0,0.0,0.0,0.0,0.0,0.2359,0.0,0.2998,0.0,0.0,0.1641,0.1698,0.2399,0.2684,0.2647,0.0,0.0,0.0,0.0,0.0,0.0,0.0,0.0,0.0,0.3914,0.0,0.0,0.4648,0.4628,0.4515,0.4234,0.4092,0.0,0.0,0.0,0.0,0.0,0.0,0.0,0.0,0.0,0.0,0.0,0.0,0.0,0.0,0.0,0.0,0.0,0.0,0.0,0.0,0.0,0.0,0.0,0.0,0.0,0.0,0.0,0.0,0.0,0.0,0.0,0.0,-0.6215,-0.6403,-0.6525,-0.6525,-0.6556,-0.661,-0.6671,-0.7537,-0.9083,-1.0258,-1.1266,-1.2117,-1.3226,-1.3741,-1.3741,-1.3741,-1.4131,-1.4792,-1.5194,-1.5951,-1.6876,-1.8302,-1.9385,-2.0319,0.0,0.0,0.0,0.0,0.0,0.0,0.0,0.0,0.0,0.0,0.0,0.0,0.0,0.0,0.0,0.0,0.0,0.0,0.0,0.0,0.0,0.0,0.0,0.0,0.0,0.0,0.0,0.0,0.0,0.0,0.0,0.0,0.2628,0.182,0.0,0.4533,0.0,0.0,0.0,0.0144,0.1805,0.2465,0.2319,0.1225,0.0,0.0,0.0,0.0,0.0,0.0,0.0,0.0,0.2999,0.3506,0.3842,0.3996,0.3961,0.3884,0.3901,0.0,0.0,0.0,0.0,0.0,0.0,0.0,0.0,0.0,0.0,0.0,0.0,0.0,0.0,0.0,0.0,0.0,0.0,0.0,0.0,0.0,0.0,0.0,0.0,0.0,0.0,0.0,0.0,0.0,0.0,0.0,0.0,-0.4577,-0.5283,-0.5862,-0.6136,-0.622,-0.6291,0.0,-0.6573,-0.6647,-0.6743,-0.7902,-0.9624,-1.1748,-1.2638,-1.3127,-1.3213,-1.3213,-1.322,-1.326,-1.4247,-1.51,-1.576,-1.6907,-1.8431,-1.9933,0.0,0.0,0.0,0.0,0.0,0.0,0.0,0.0,0.0,0.0,0.0,0.0,0.0,0.0,0.0,0.0,0.0,0.0,0.0,0.0,0.0,0.0,0.0,0.0,0.0,0.0,0.0,0.0,0.0,0.0,0.0,0.0,0.0,0.1758,0.0,0.1061,0.0,0.0551,0.0,0.0034,0.041,0.0581,0.0547,0.0306,0.0271,0.0,0.0,0.0,0.0,0.0,0.0,0.0,0.2666,0.3273,0.3859,0.4223,0.4466,0.4661,0.4661,0.4411,0.0,0.0,0.0,0.0,0.0,0.0,0.0,0.0,0.0,0.0,0.0,0.0,0.0,0.0,0.0,0.0,0.0,0.0,0.0,0.0,0.0,0.0,0.0,0.0,0.0,0.0,0.0,0.0,0.0,0.0,0.0,-0.3441,-0.429,-0.4809,-0.4862,-0.553,-0.5976,0.0,-0.6159,-0.6237,-0.6441,-0.7789,-0.9624,-1.1742,-1.1908,-1.2473,-1.3213,-1.3213,-1.3214,-1.3246,-1.3413,-1.36,-1.3918,-1.5257,-1.6758,-1.8243,0.0,0.0,0.0,0.0,0.0,0.0,0.0,0.0,0.0,0.0,0.0,0.0,0.0,0.0,0.0,0.0,0.0,0.0,0.0,0.0,0.0,0.0,0.0,0.0,0.0,0.0,0.0,0.0,0.0,0.0,0.0,0.0,0.0,0.1266,0.0,0.0359,0.0,0.0,0.0,0.0,0.0,0.0,0.0,0.0,0.0,0.0067,0.0503,0.0,0.0,0.0,0.0,0.0,0.0,0.0,0.3243,0.35,0.3813,0.405,0.0,0.0,0.0,0.0,0.0,0.0,0.0,0.0,0.0,0.0,0.0,0.0,0.0,0.0,0.0,0.0,0.0,0.0,0.0,0.0,0.0,0.0,0.0,0.0,0.0,0.0,0.0,0.0,0.0,0.0,0.0,-0.2015,-0.2226,-0.2268,-0.3122,-0.3862,-0.4341,-0.4841,-0.5337,-0.5922,-0.5922,-0.5962,-0.6125,-0.7508,-0.8774,-0.9875,-1.0812,-1.1593,-1.2062,-1.2542,-1.2755,-1.2744,-1.2736,-1.2893,-1.3086,-1.3822,-1.5095,-1.6664,0.0,0.0,0.0,0.0,0.0,0.0,0.0,0.0,0.0,0.0,0.0,0.0,0.0,0.0,0.0,0.0,0.0,0.0,0.0,0.0,0.0,0.0,0.0,0.0,0.0,0.0,0.0,0.0,0.0,0.0,0.0,0.0,0.0,0.0713,0.0,0.0,0.0,0.0,0.0,0.0,0.0,0.0,0.0,0.0,0.0,0.0,0.0,0.0,0.0,0.0,0.0,0.0,0.0,0.0,0.2363,0.2611,0.2854,0.3043,0.0,0.0,0.0,0.0,0.0,0.0,0.0,0.0,0.0,0.0,0.0,0.0,0.0,0.0,0.0,0.0,0.0,0.0,0.0,0.0,0.0,0.0,0.0,0.0,0.0,0.0,0.0,0.0,0.0,0.0,0.0,-0.0654,-0.1047,-0.1088,-0.1958,-0.2871,-0.3689,-0.3844,-0.4461,-0.5509,-0.5704,-0.58,-0.581,-0.6951,-0.7534,-0.7836,-0.9505,-1.0341,-1.057,-1.155,-1.2024,-1.205,-1.2211,-1.243,-1.2689,-1.277,-1.3811,-1.5255,0.0,0.0,0.0,0.0,0.0,0.0,0.0,0.0,0.0,0.0,0.0,0.0,0.0,0.0,0.0,0.0,0.0,0.0,0.0,0.0,0.0,0.0,0.0,0.0,0.0,0.0,0.0,0.0,0.0,0.0,0.0,0.0,0.0,0.0702,0.0,0.0,0.0,0.0,0.0,0.0,0.0,0.0,0.0,0.0,0.0,0.0,0.0,0.0,0.0,0.0,0.0,0.0,0.0,0.0,0.1637,0.2444,0.2633,0.2733,0.0,0.0,0.0,0.0,0.0,0.0,0.0,0.0,0.0,0.0,0.0,0.0,0.0,0.0,0.0,0.0,0.0,0.0,0.0,0.0,0.0,0.0,0.0,0.0,0.0,0.0,0.0,0.0,0.0,0.0,0.0062,-0.0125,-0.0187,-0.0186,-0.1057,-0.156,-0.1691,-0.25,-0.342,-0.4403,-0.5323,-0.58,-0.5803,-0.5985,-0.6577,-0.7364,-0.775,-0.8484,-0.9369,-1.0315,-1.0767,-1.1064,-1.1717,-1.209,-1.2378,-1.2661,-1.351,-1.4554,0.0,0.0,0.0,0.0,0.0,0.0,0.0,0.0,0.0,0.0,0.0,0.0,0.0,0.0,0.0,0.0,0.0,0.0,0.0,0.0,0.0,0.0,0.0,0.0,0.0,0.0,0.0,0.0,0.0,0.0,0.0,0.2338,0.2121,0.0,0.0,0.0,0.0,0.0,0.0,0.0,0.0,0.0,0.0,0.0,0.0,0.0,0.0,0.0,0.0,0.0,0.0,0.0034,0.0235,0.0,0.0,0.0,0.2078,0.0,0.3795,0.0,0.0,0.0,0.0,0.0,0.0,0.0,0.0,0.0,0.0,0.0,0.0,0.0,0.0,0.0,0.0,0.0,0.0,0.0,0.0,0.0,0.0,0.0,0.0,0.0,0.0,0.0,0.0,0.0977,0.0661,0.0244,0.0,0.0,-0.0367,-0.0801,-0.1293,-0.1682,-0.2415,-0.3401,-0.4357,-0.4786,-0.4786,-0.5346,-0.5919,-0.6512,-0.7085,-0.7684,-0.8299,-0.9244,-1.0109,-1.0834,-1.1175,-1.1717,-1.2305,-1.2472,-1.297,-1.3637,0.0,0.0,0.0,0.0,0.0,0.0,0.0,0.0,0.0,0.0,0.0,0.0,0.0,0.0,0.0,0.0,0.0,0.0,0.0,0.0,0.0,0.0,0.0,0.0,0.0,0.0,0.0,0.0,0.0,0.0,0.0533,0.1997,0.1843,0.0,0.1854,0.0,0.0,0.0,0.0,0.0,0.0,0.0,0.0,0.0,0.0,0.0,0.0,0.0,0.0,0.0,0.0,0.0,0.0,0.0,0.0,0.0,0.0,0.0,0.0,0.0,0.0,0.0,0.0,0.0,0.0,0.0,0.0,0.0,0.0,0.0,0.0,0.0,0.0,0.0,0.0,0.0,0.0,0.0,0.0,0.0,0.0,0.0,0.0,0.0,0.0,0.0,0.0,0.1486,0.1103,0.0594,0.0179,0.0,0.0,-0.0301,-0.0962,-0.1212,-0.1666,-0.2348,-0.3243,-0.3816,-0.4038,-0.4704,-0.5309,-0.5761,-0.6499,-0.6944,-0.707,-0.8145,-0.9249,-1.025,-1.0536,-1.1272,-1.2218,-1.2298,-1.2466,-1.2815,0.0,0.0,0.0,0.0,0.0,0.0,0.0,0.0,0.0,0.0,0.0,0.0,0.0,0.0,0.0,0.0,0.0,0.0,0.0,0.0,0.0,0.0,0.0,0.0,0.0,0.0,0.0,0.0,0.0,0.0,0.0053,0.1761,0.218,0.1516,0.14,0.1823,0.2477,0.0,0.0,0.0,0.0,0.0624,0.0,0.0,0.0,0.0,0.0,0.0,0.0,0.0,0.0,0.0,0.0,0.0,0.0,0.0,0.0,0.0,0.0,0.0,0.0,0.0,0.0,0.0,0.0,0.0,0.0,0.0,0.0,0.0,0.0,0.0,0.0,0.0,0.0,0.0,0.0,0.0,0.0,0.0,0.0,0.0,0.0,0.0,0.0,0.0,0.0,0.2575,0.1176,0.1066,0.0731,0.0,0.0,0.0,-0.0056,-0.087,-0.1317,-0.1358,-0.2347,-0.3194,-0.3985,-0.4046,-0.4576,-0.5459,-0.5607,-0.5676,-0.5748,-0.6627,-0.7654,-0.8829,-0.9782,-1.0864,-1.197,-1.2218,-1.2305,-1.2305,0.0,0.0,0.0,0.0,0.0,0.0,0.0,0.0,0.0,0.0,0.0,0.0,0.0,0.0,0.0,0.0,0.0,0.0,0.0,0.0,0.0,0.0,0.0,0.0,0.0,0.0,0.0,0.0,0.0,0.0462,0.0,0.0929,0.133,0.1304,0.2515,0.2635,0.2023,0.2419,0.0,0.0,0.1462,0.1092,0.0,0.0,0.0,0.0,0.0,0.0,0.0,0.0,0.0,0.0,0.0,0.0,0.0,0.0,0.0,0.0,0.0,0.0,0.0,0.0,0.0,0.0,0.0,0.0,0.0,0.0,0.0,0.0,0.0,0.0,0.0,0.0,0.0,0.0,0.0,0.0,0.0,0.0,0.0,0.0,0.0,0.0,0.0,0.0,0.0,0.0,0.2558,0.1874,0.1495,0.1395,0.095,0.0504,0.0,-0.029,-0.0473,-0.0479,-0.1403,-0.1978,-0.231,-0.337,-0.4121,-0.4558,-0.498,-0.5325,-0.5658,-0.5928,-0.6716,-0.7863,-0.8764,-0.9955,-1.112,-1.1781,-1.217,-1.2305,0.0,0.0,0.0,0.0,0.0,0.0,0.0,0.0,0.0,0.0,0.0,0.0,0.0,0.0,0.0,0.0,0.0,0.0,0.0,0.0,0.0,0.0,0.0,0.0,0.0,0.0,0.0,0.0,0.0,0.0,0.0,0.0328,0.0748,0.1311,0.2516,0.2767,0.0,0.0,0.0,0.1405,0.0,0.1697,0.0862,0.0,0.0,0.0,0.0,0.0,0.0,0.0,0.0291,0.0,0.0,0.0,0.0,0.0,0.0,0.0,0.0,0.0,0.0,0.0,0.0,0.0,0.0,0.0,0.0,0.0,0.0,0.0,0.0,0.0,0.0,0.0,0.0,0.0,0.0,0.0,0.0,0.0,0.0,0.0,0.0,0.0,0.0,0.0,0.0,0.0,0.3337,0.2724,0.2289,0.2227,0.1507,0.0838,0.0392,0.0115,0.0,0.0,-0.0591,-0.102,-0.1333,-0.2481,-0.3197,-0.36,-0.4276,-0.4887,-0.5508,-0.5457,-0.6105,-0.7168,-0.7817,-0.8817,-0.9961,-1.095,-1.1378,-1.1566,0.0,0.0,0.0,0.0,0.0,0.0,0.0,0.0,0.0,0.0,0.0,0.0,0.0,0.0,0.0,0.0,0.0,0.0,0.0,0.0,0.0,0.0,0.0,0.0,0.0,0.0,0.0,0.0,0.0,0.0,0.0,0.0,0.0558,0.0,0.1253,0.2073,0.3721,0.0,0.3729,0.3783,0.0,0.2396,0.2511,0.0,0.0,0.0,0.2191,0.1889,0.0,0.0,0.0,0.0,0.0,0.0,0.0,0.0,0.0,0.0,0.0,0.0,0.0,0.0,0.0,0.0,0.0,0.0,0.0,0.0,0.0,0.0,0.0,0.0,0.0,0.0,0.0,0.0,0.0,0.0,0.0,0.0,0.0,0.0,0.0,0.0,0.0,0.0,0.0,0.4174,0.3456,0.3456,0.3065,0.2286,0.1563,0.1174,0.1118,0.0392,0.0056,0.0056,0.0,-0.0456,-0.129,-0.129,-0.179,-0.2701,-0.3435,-0.4373,-0.5338,-0.5189,-0.5724,-0.6654,-0.699,-0.763,-0.8517,-0.9676,-1.0083,-1.0245,0.0,0.0,0.0,0.0,0.0,0.0,0.0,0.0,0.0,0.0,0.0,0.0,0.0,0.0,0.0,0.0,0.0,0.0,0.0,0.0,0.0,0.0,0.0,0.0,0.0,0.0,0.0,0.0,0.0,0.0,0.0,0.0,0.0,0.0,0.1024,0.1485,0.1919,0.295,0.0,0.0,0.3224,0.2689,0.0,0.0,0.0,0.0,0.0,0.2105,0.1892,0.0,0.1603,0.0966,0.0,0.0,0.0,0.0,0.0,0.0,0.0168,0.0,0.0,0.0,0.0,0.0,0.0,0.0,0.0,0.0,0.0,0.0,0.0,0.0,0.0,0.0,0.0,0.0,0.0,0.0,0.0,0.0,0.0,0.0,0.0,0.0,0.0,0.0,0.4263,0.4131,0.4171,0.4184,0.3846,0.3067,0.2843,0.2454,0.1898,0.1174,0.0783,0.0783,0.028,-0.0113,-0.0398,-0.0907,-0.1327,-0.1723,-0.2376,-0.3271,-0.4287,-0.4851,-0.5279,-0.5649,-0.6494,-0.7087,-0.7678,-0.9203,-0.99,-1.0254,0.0,0.0,0.0,0.0,0.0,0.0,0.0,0.0,0.0,0.0,0.0,0.0,0.0,0.0,0.0,0.0,0.0,0.0,0.0,0.0,0.0,0.0,0.0,0.0,0.0,0.0,0.0,0.0,0.0,0.0,0.0,0.0,0.0,0.0,0.0,0.0,0.0,0.0,0.0,0.0,0.3107,0.0,0.0,0.3203,0.3003,0.0,0.0,0.0,0.281,0.3055,0.2425,0.0,0.0,0.0,0.0,0.0,0.0,0.0,0.0,0.0,0.0,0.0,0.0,0.0,0.1736,0.2687,0.0,0.0,0.0,0.0,0.0,0.0,0.0,0.0,0.0,0.0,0.0,0.0,0.0,0.0,0.0,0.0,0.0,0.0,0.0,0.5391,0.493,0.459,0.4508,0.4519,0.4294,0.3846,0.3511,0.3121,0.2676,0.1952,0.1396,0.1118,0.0671,0.028,0.0,-0.0448,-0.0679,-0.0806,-0.1465,-0.2281,-0.3198,-0.4091,-0.4674,-0.5057,-0.5773,-0.6155,-0.6457,-0.792,-0.877,-0.9366,0.0,0.0,0.0,0.0,0.0,0.0,0.0,0.0,0.0,0.0,0.0,0.0,0.0,0.0,0.0,0.0,0.0,0.0,0.0,0.0,0.0,0.0,0.0,0.0,0.0,0.0,0.0,0.0,0.0,0.0,0.0,0.0,0.0,0.0,0.0,0.0,0.0,0.0,0.0,0.3441,0.2685,0.3354,0.0,0.0,0.3616,0.0,0.4365,0.4213,0.3641,0.4191,0.3246,0.0,0.0,0.0,0.0,0.0,0.0,0.0,0.0,0.0,0.0,0.0,0.0,0.0,0.0708,0.2102,0.3431,0.0,0.0,0.0,0.0,0.0,0.0,0.0,0.0,0.0,0.0,0.0,0.0,0.0,0.0,0.0,0.0,0.7128,0.6696,0.6588,0.5923,0.5218,0.4519,0.4519,0.4519,0.4519,0.3846,0.3511,0.3456,0.2676,0.2009,0.134,0.1174,0.0783,0.0112,0.0056,0.0,-0.0056,-0.0671,-0.1396,-0.2125,-0.2994,-0.3921,-0.4908,-0.505,-0.5108,-0.5188,-0.6298,-0.7131,-0.796,0.0,0.0,0.0,0.0,0.0,0.0,0.0,0.0,0.0,0.0,0.0,0.0,0.0,0.0,0.0,0.0,0.0,0.0,0.0,0.0,0.0,0.0,0.0,0.0,0.0,0.0,0.0,0.0,0.0,0.0,0.0,0.0,0.0,0.0,0.0,0.0,0.0,0.0,0.0,0.1891,0.2923,0.0,0.3139,0.411,0.3661,0.2668,0.4053,0.4066,0.3445,0.0,0.3686,0.3444,0.0,0.0,0.0,0.0,0.0,0.0,0.0,0.0,0.0,0.0,0.0,0.0,0.0743,0.1079,0.1543,0.0,0.0,0.0,0.0,0.0,0.0,0.0,0.0,0.0,0.0,0.0,0.0,0.0,0.0,0.0,0.0,0.7563,0.7235,0.6642,0.5923,0.5218,0.4519,0.4519,0.4519,0.4519,0.4349,0.4294,0.4294,0.3456,0.301,0.2843,0.1675,0.1006,0.0838,0.028,0.0,0.0,-0.0168,-0.0615,-0.1341,-0.1519,-0.2815,-0.4752,-0.4901,-0.4958,-0.5037,-0.6061,-0.6528,-0.6805,0.0,0.0,0.0,0.0,0.0,0.0,0.0,0.0,0.0,0.0,0.0,0.0,0.0,0.0,0.0,0.0,0.0,0.0,0.0,0.0,0.0,0.0,0.0,0.0,0.0,0.0,0.0,0.0,0.0,0.0,0.0,0.0,0.0,0.0,0.0,0.0,0.0,0.0,0.0515,0.1398,0.2488,0.0,0.3169,0.4184,0.4072,0.3394,0.3755,0.3436,0.2803,0.2857,0.2861,0.0,0.0,0.1309,0.0944,0.0,0.0,0.0,0.0,0.0,0.0,0.0,0.0,0.0,0.0,0.0645,0.0967,0.0,0.0,0.0,0.0,0.0,0.0,0.0,0.0,0.0,0.0,0.0,0.0,0.0,0.0,0.0,0.0,0.8016,0.7937,0.7182,0.6475,0.5764,0.5058,0.468,0.4519,0.4519,0.4519,0.4519,0.4519,0.4125,0.368,0.3287,0.2565,0.1786,0.1062,0.0727,0.0336,0.0,0.0,-0.0392,-0.1118,-0.1118,-0.2254,-0.4074,-0.421,-0.4502,-0.4882,-0.5456,-0.5884,-0.6371,0.0,0.0,0.0,0.0,0.0,0.0,0.0,0.0,0.0,0.0,0.0,0.0,0.0,0.0,0.0,0.0,0.0,0.0,0.0,0.0,0.0,0.0,0.0,0.0,0.0,0.0,0.0,0.0,0.0,0.0,0.0,0.0,0.0,0.0,0.0,0.0,0.0,0.0,0.0,0.1324,0.0,0.273,0.3478,0.4094,0.419,0.3978,0.3337,0.273,0.2216,0.2395,0.0,0.1467,0.2376,0.1522,0.0,0.0,0.0,0.0,0.0,0.0,0.0,0.0,0.0,0.0,0.0,0.0,0.0,0.0748,0.0,0.0,0.0,0.0,0.0,0.0,0.0,0.0,0.0,0.0,0.0,0.0,0.0,0.0,0.0,0.8138,0.8365,0.7771,0.7128,0.6421,0.5542,0.5003,0.4625,0.4519,0.4519,0.4519,0.4519,0.4519,0.4181,0.3511,0.3398,0.2676,0.1507,0.1229,0.0783,0.0224,0.0056,-0.0336,-0.0895,-0.0895,-0.1786,-0.3186,-0.3447,-0.4007,-0.4667,-0.4819,-0.5266,-0.5889,-0.3581,-0.3581,0.0,0.0,0.0,0.0,0.0,0.0,0.0,0.0,0.0,0.0,0.0,0.0,0.0,0.0,0.0,0.0,0.0,0.0,0.0,0.0,0.0,0.0,0.0,0.0,0.0,0.0,0.0,0.0,0.0,0.0,0.0,0.0,0.0,0.0,0.0,0.0,0.1143,0.0,0.21,0.2519,0.0,0.3434,0.3203,0.246,0.2371,0.2286,0.221,0.0,0.2172,0.2004,0.0,0.1145,0.083,0.0,0.0,0.0,0.0,0.0,0.0,0.0,0.0,0.0,0.0,0.0,0.0101,0.0104,0.0,0.0,0.0,0.0,0.0,0.0,0.0,0.0,0.0,0.0,0.0,0.0,0.0,0.0,0.0,0.0,0.794,0.7688,0.7616,0.6961,0.5592,0.5433,0.5113,0.4515,0.4519,0.4519,0.4519,0.4519,0.446,0.4349,0.368,0.3289,0.301,0.1675,0.1062,0.095,0.028,-0.0056,-0.0112,-0.0112,-0.1006,-0.2399,-0.3079,-0.3814,-0.4563,-0.466,-0.4687,-0.4829,-0.3581,-0.3581,0.0,0.0,0.0,0.0,0.0,0.0,0.0,0.0,0.0,0.0,0.0,0.0,0.0,0.0,0.0,0.0,0.0,0.0,0.0,0.0,0.0,0.0,0.0,0.0,0.0,0.0,0.0,0.0,0.0,0.0,0.0,0.0,0.0,0.0,0.0039,0.0,0.0,0.0,0.0,0.0,0.0,0.2321,0.2294,0.1634,0.2071,0.1674,0.099,0.0,0.13,0.0,0.0,0.0,0.0,0.0,0.0,0.0,0.0,0.0,0.0,0.0,0.0,0.0,0.0,0.0,0.0,0.0,0.0,0.0,0.0,0.0,0.0,0.0,0.0,0.0,0.0,0.0,0.0,0.0,0.0,0.0,0.0,0.0,0.0,0.0,0.0,0.6345,0.5733,0.5214,0.4787,0.4519,0.4519,0.4519,0.4519,0.4519,0.4519,0.4519,0.4181,0.379,0.3345,0.2676,0.212,0.1675,0.095,0.0615,0.0615,0.0168,-0.0615,-0.1619,-0.2397,-0.34,-0.4525,-0.4591,-0.4573,-0.4591,-0.3548,0.0,0.0,0.0,0.0,0.0,0.0,0.0,0.0,0.0,0.0,0.0,0.0,0.0,0.0,0.0,0.0,0.0,0.0,0.0,0.0,0.0,0.0,0.0,0.0,0.0,0.0,0.0,0.0,0.0,0.0,0.0,0.0,0.0,0.0,0.0,0.0,0.0,0.0,0.0341,0.1029,0.0785,0.0105,0.1194,0.1274,0.0889,0.1427,0.1019,0.033,0.0679,0.06,0.0,0.005,0.0,0.0,0.0,0.0,0.0,0.0,0.0,0.0,0.0,0.0,0.0,0.0,0.0,0.0,0.0,0.0,0.0,0.0,0.0,0.0,0.0,0.0,0.0,0.0,0.0,0.0,0.0,0.0,0.0,0.0,0.0,0.0,0.7222,0.6418,0.5808,0.562,0.5084,0.4677,0.4519,0.4519,0.4519,0.4519,0.4519,0.4519,0.4519,0.4519,0.4239,0.368,0.34,0.301,0.2454,0.173,0.1284,0.1062,0.0504,-0.028,-0.1174,-0.1675,-0.2732,-0.3901,-0.4349,-0.4519,-0.4519,-0.3466,-0.3581,0.0,0.0,0.0,0.0,0.0,0.0,0.0,0.0,0.0,0.0,0.0,0.0,0.0,0.0,0.0,0.0,0.0,0.0,0.0,0.0,0.0,0.0,0.0,0.0,0.0,0.0,0.0,0.0,0.0,0.0,0.0,0.0,0.0,0.0,0.004,0.0899,0.1162,0.1067,0.1238,0.0804,0.0,0.0,0.0054,0.0056,0.0056,0.0,0.0,0.0258,0.0505,0.0,0.0,0.0,0.0,0.0,0.0,0.0,0.0,0.0,0.0,0.0,0.0,0.0,0.0,0.0,0.0,0.0,0.0,0.0,0.0,0.0,0.0,0.0,0.0,0.0,0.0,0.0,0.0,0.0,0.0,0.0,0.0,0.0,0.0,0.5744,0.5895,0.5753,0.5131,0.5339,0.5164,0.4515,0.4519,0.4519,0.4519,0.4519,0.4519,0.4519,0.4519,0.4463,0.4463,0.3677,0.3287,0.3231,0.2508,0.1786,0.1118,0.1062,0.0223,-0.1118,-0.1118,-0.1619,-0.2454,-0.3959,-0.4519,-0.4519,0.0,0.0,0.0,0.0,0.0,0.0,0.0,0.0,0.0,0.0,0.0,0.0,0.0,0.0,0.0,0.0,0.0,0.0,0.0,0.0,0.0,0.0,0.0,0.0,0.0,0.0,0.0,0.0,0.0,0.0,0.0,0.0,0.0,0.0,0.0,0.0,0.0,0.0,0.0,0.0,0.0,0.0274,0.0,0.0,0.0,0.0056,0.056,0.056,0.0,0.0672,0.0574,0.0322,0.0103,0.0,0.0,0.0,0.0,0.0,0.0,0.0,0.0,0.0,0.0,0.0,0.0,0.0,0.0,0.0,0.0,0.0,0.0,0.0,0.0,0.0,0.0,0.0,0.0,0.0,0.0,0.0,0.0,0.0,0.0,0.0,0.0,0.479,0.456,0.4331,0.0,0.4361,0.4422,0.4168,0.4358,0.4519,0.4519,0.4519,0.4519,0.4519,0.4519,0.4519,0.4519,0.4236,0.407,0.407,0.3287,0.2508,0.1786,0.1284,0.0503,-0.0448,-0.0895,-0.1229,-0.1675,-0.3176,-0.368,-0.379,-0.3361,0.0,0.0,0.0,0.0,0.0,0.0,0.0,0.0,0.0,0.0,0.0,0.0,0.0,0.0,0.0,0.0,0.0,0.0,0.0,0.0,0.0,0.0,0.0,0.0,0.0,0.0,0.0,0.0,0.0,0.0,0.0,0.0,0.0,0.0,0.0,0.0,0.0,0.0,0.0,0.0,0.0,0.0,0.0,0.0,0.0057,0.0,0.056,0.0445,0.0639,0.0594,0.0334,0.0107,0.0,0.0,0.0,0.0,0.0,0.0,0.0,0.0,0.0,0.0,0.0,0.0,0.0,0.0,0.0,0.0,0.0,0.0,0.0,0.0,0.0,0.0,0.0,0.0,0.021,0.0,0.0,0.0,0.0,0.0,0.0,0.303,0.3676,0.3436,0.3326,0.0,0.0,0.4409,0.4409,0.4937,0.5117,0.4838,0.4838,0.4732,0.4519,0.4519,0.4519,0.4519,0.4519,0.4519,0.446,0.3959,0.3287,0.251,0.1786,0.1062,0.0336,-0.0448,-0.0727,-0.0895,-0.2676,-0.3456,-0.379,0.0,0.0,0.0,0.0,-0.0821,0.0,0.0,0.0,0.0,0.0,0.0,0.0,-0.0091,0.0,0.0,0.0,0.0,0.0,0.0,0.0,0.0,0.0,0.0,0.0,0.0,0.0,0.0,0.0,0.0,0.0,0.0,0.0,0.0,0.0,0.0,0.0,0.0,0.0042,0.0045,0.0046,0.0,0.0,0.0,0.0,0.0,0.0,0.0,0.0448,0.095,0.0224,0.0448,0.0951,0.0224,0.0,0.0,0.0,0.0,0.0,0.0,0.0,0.0,0.0,0.0,0.0,0.0,0.0,0.0,0.0,0.0,0.0,0.0,0.0,0.0,0.0,0.0,0.0,0.0,0.0,0.0,0.0,0.0,0.0,0.0,0.2283,0.2481,0.2488,0.2603,0.0,0.0,0.0,0.5003,0.5042,0.5949,0.6108,0.5433,0.5412,0.5093,0.4519,0.4519,0.4519,0.4519,0.4519,0.4519,0.4519,0.4519,0.407,0.3231,0.2565,0.1786,0.1006,0.0336,0.0,-0.0336,-0.2454,-0.3735,-0.446,-0.3541,-0.2775,-0.1775,0.0,-0.09,-0.0505,0.0,0.0,0.0,0.0,-0.0519,-0.0272,-0.1122,-0.0474,0.0,0.0,0.0,0.0,0.0,0.0,0.0,0.0,0.0,0.0,0.0,0.0,0.0,0.0,0.0,0.0,0.0,0.0,0.0,0.0,0.0,0.0,0.0034,0.0583,0.0836,0.0782,0.0235,0.0,0.0,0.0,0.0,0.0,0.0,0.0112,0.028,0.0056,0.0112,0.0224,0.0056,0.0,0.0,0.0,0.0,0.0,0.0,0.0,0.0,0.0,0.0,0.0,0.0,0.0,0.0,0.0,0.0,0.0,0.0,0.0,0.0,0.0,0.0,0.0,0.0,0.0,0.0,0.1485,0.0,0.0,0.1862,0.1933,0.2026,0.2113,0.2266,0.2499,0.0,0.0,0.0,0.4249,0.4355,0.4508,0.4728,0.4501,0.44,0.4519,0.4519,0.4519,0.4519,0.4519,0.4519,0.4519,0.4519,0.407,0.3345,0.3121,0.2286,0.1062,0.0895,0.0168,-0.095,-0.2063,-0.2954,-0.3666,-0.3133,0.0,0.0,-0.0677,0.0,0.0,0.0064,0.0,0.0,-0.0839,-0.0355,0.0,-0.0855,-0.0388,0.0,0.0,0.0,0.0,0.0,0.0,0.0,0.0,0.0,0.0,0.0,0.0,0.0,0.0,0.0,0.0,0.0,0.0,0.0,0.0,0.0,0.0,0.0,0.079,0.1081,0.1106,0.1011,0.0,0.0,0.0617,0.048,0.0459,0.0113,0.0,0.0,0.0,0.0,0.0,0.0,0.0,0.0,0.0,0.0,0.0,0.0,0.0949,0.1623,0.0336,0.0489,0.0895,0.0726,0.0827,0.0873,0.0,0.0,0.0,0.0,0.0,0.0,0.0,0.0,0.0,0.0,0.0,0.0,0.0,0.1976,0.0,0.2008,0.192,0.197,0.2215,0.2283,0.2472,0.0,0.0,0.0,0.4103,0.4488,0.4669,0.4569,0.4386,0.4315,0.427,0.427,0.4338,0.4519,0.4519,0.4519,0.4519,0.4519,0.4239,0.3846,0.3121,0.2321,0.1526,0.086,-0.0053,-0.1124,-0.1815,-0.2587,-0.3312,0.0,0.0,0.0,0.0,0.0,0.0,0.0,0.0301,0.0,0.0,0.0,-0.0096,-0.0189,-0.0096,0.0,0.0,0.0,0.0,0.0,0.0,0.0,0.0,0.0,0.0,0.0,0.0,0.0,0.0,0.0,0.0,0.0,0.0,0.0,0.0,0.0,0.0,0.0,0.087,0.1209,0.0,0.1964,0.2193,0.2136,0.1511,0.1222,0.1174,0.0392,0.0056,0.0,0.0,0.0,0.0,0.0,0.0,0.0,0.0,0.0,0.0112,0.0501,0.2512,0.3869,0.1228,0.1562,0.2343,0.1728,0.1895,0.2009,0.1396,0.1229,0.1096,0.0,0.0,0.0,0.0,0.0,0.0,0.0,0.0,0.0,0.0,0.0,0.0,0.0,0.2114,0.2154,0.2462,0.2513,0.2568,0.0,0.0,0.0,0.4117,0.5222,0.0,0.4612,0.0,0.4383,0.4077,0.4036,0.4175,0.4519,0.4519,0.4519,0.4519,0.4519,0.446,0.4236,0.2885,0.2226,0.1888,0.0459,-0.0454,-0.1008,-0.1802,-0.2488,-0.3108,0.0,0.0,0.0,0.0,0.0,0.1056,0.2033,0.1902,0.1295,0.0179,0.0,-0.0371,-0.1179,-0.0554,0.0,0.0,0.0,0.0,0.0,0.0,0.0,0.0,0.0,0.0,0.0,0.0,0.0322,0.0,0.0,0.0,0.0,0.0,0.0,0.0,0.0,0.0,0.1789,0.1307,0.0,0.2968,0.2415,0.2181,0.2164,0.2049,0.1988,0.1898,0.1174,0.0504,0.0,0.0,0.0,0.0,0.0,0.0,0.0,0.0,0.0,0.0559,0.3021,0.4095,0.4379,0.386,0.3919,0.3755,0.2399,0.2119,0.2174,0.2009,0.2009,0.2,0.1922,0.0,0.0,0.0,0.0,0.0,0.0,0.0,0.0,0.0,0.0,0.0,0.0,0.0,0.0,0.0,0.0,0.0,0.0,0.0,0.0,0.0,0.3773,0.0,0.0,0.0,0.3992,0.4382,0.4138,0.4175,0.4519,0.4519,0.4519,0.4519,0.4519,0.4181,0.3561,0.3243,0.2409,0.1169,-0.0202,-0.0806,-0.1055,-0.2182,-0.2593,-0.2735,0.0,0.0,0.0,0.0,0.0,0.0,0.0,0.1906,0.0,0.018,0.0,-0.0184,-0.0719,-0.0272,0.0,0.0,0.0,0.0,0.0,0.0,0.0,0.0,0.0,0.0,0.0,0.0,0.0375,0.1231,0.0,0.0,0.0,0.0,0.0,0.0,0.0,0.1342,0.0,0.0,0.0,0.3332,0.3404,0.34,0.3358,0.2918,0.273,0.2508,0.1619,0.0727,0.0,0.0,0.0,0.0,0.0,0.0,0.0,0.0,0.0,0.0669,0.3685,0.448,0.4477,0.4473,0.4473,0.4307,0.3569,0.34,0.3289,0.2843,0.2788,0.2646,0.202,0.185,0.0,0.0,0.0,0.0,0.0,0.0,0.0,0.0,0.0,0.0,0.0,0.0,0.0,0.0,0.0,0.0,0.0,0.0,0.0,0.0,0.0,0.0,0.0,0.0,0.0,0.4229,0.409,0.4175,0.4519,0.4519,0.4294,0.3898,0.3938,0.3474,0.2756,0.2307,0.134,0.0,-0.067,-0.128,-0.1884,-0.2398,-0.2772,-0.3045,0.0,-0.0759,0.0,0.0,0.1616,0.0,0.115,0.1692,0.1722,0.0181,0.0,0.0,0.0,0.0,0.0,0.0,0.0,0.0,0.0,0.0,0.0,0.0,0.0,0.0,0.0,0.0182,0.0653,0.0,0.0,0.0,0.0,0.0,0.0,0.0,0.0,0.0,0.0,0.0,0.3402,0.3619,0.426,0.4519,0.4408,0.379,0.3453,0.3229,0.24,0.1619,0.0893,0.056,0.028,0.0,0.0,0.0,0.0,0.0,0.0445,0.1502,0.3846,0.4519,0.4519,0.4519,0.4519,0.4519,0.4519,0.4519,0.4294,0.368,0.3622,0.3343,0.2381,0.2839,0.0,0.0,0.0,0.0,0.0,0.0,0.0,0.0,0.0,0.0,0.0,0.0,0.0,0.0,0.0,0.0,0.0,0.0,0.0,0.0,0.0,0.3548,0.3581,0.0,0.3761,0.0,0.405,0.4175,0.4519,0.4349,0.3901,0.3282,0.3169,0.2624,0.17,0.0828,-0.0142,-0.1123,-0.1222,-0.1864,-0.2672,-0.2673,-0.2979,-0.3479,0.0,0.0,0.0,0.0,0.0,0.0,0.0,0.2319,0.0597,0.0092,0.0,0.0,0.0,0.0,0.0,0.0,0.0,0.0,0.0,0.0,0.0,0.0,0.0,0.0,0.0,0.0658,0.139,0.0,0.0,0.0,0.0,0.0,0.0,0.0,0.0,0.0,0.0,0.3301,0.3761,0.4368,0.445,0.4519,0.4519,0.4405,0.4349,0.4349,0.4249,0.4141,0.3858,0.2462,0.112,0.0,0.0,0.0,0.0,0.0,0.195,0.4138,0.4421,0.4525,0.4519,0.4519,0.4519,0.4519,0.4519,0.4519,0.4463,0.4405,0.4405,0.434,0.4255,0.3767,0.3118,0.0,0.0,0.0,0.0,0.0,0.0,0.0,0.0,0.0,0.0,0.0,0.0,0.0,0.0,0.0,0.0,0.0,0.0,0.3078,0.0,0.3396,0.3578,0.3581,0.3911,0.4474,0.4148,0.4175,0.446,0.379,0.3456,0.3282,0.2578,0.158,0.0287,-0.0998,-0.1626,-0.1751,-0.2322,-0.2529,-0.2571,-0.306,-0.3371,-0.3586,0.0,0.0,0.0,0.0,0.0,0.0,0.0,0.3556,0.3054,0.2716,0.1853,0.1376,0.1787,0.1833,0.1852,0.1757,0.1757,0.1697,0.1607,0.1594,0.1587,0.1485,0.1497,0.1466,0.1318,0.1594,0.2156,0.0,0.0,0.0,0.0,0.0,0.0,0.0,0.0,0.3468,0.373,0.3948,0.4247,0.4519,0.4519,0.4519,0.4519,0.4519,0.4519,0.4519,0.4484,0.449,0.4432,0.3814,0.2012,0.0,0.0,0.1232,0.2689,0.2685,0.3527,0.4487,0.4473,0.4522,0.4519,0.4519,0.4519,0.4519,0.4519,0.4519,0.4519,0.4519,0.4519,0.4519,0.4519,0.4236,0.3908,0.0,0.0,0.0,0.0,0.0,0.0,0.0,0.0,0.0,0.0,0.0,0.0,0.0,0.0,0.0,0.0,0.0,0.0,0.3514,0.0,0.3687,0.4158,0.3931,0.4053,0.4515,0.3851,0.3638,0.3735,0.301,0.24,0.1939,0.0808,0.0048,-0.055,-0.1419,-0.1992,-0.2361,-0.2583,-0.2871,-0.3215,-0.367,-0.3771,-0.3812,0.546,0.0,0.462,0.0,0.4498,0.4545,0.4663,0.5091,0.5419,0.5182,0.4091,0.317,0.283,0.301,0.3092,0.317,0.3023,0.2802,0.2675,0.2696,0.2604,0.2418,0.2452,0.0,0.2229,0.2438,0.283,0.3525,0.3225,0.0,0.0,0.0,0.0,0.0,0.4019,0.4151,0.4161,0.4375,0.4519,0.4519,0.4519,0.4519,0.4519,0.4519,0.4519,0.4519,0.448,0.4487,0.4487,0.4487,0.3067,0.1334,0.1341,0.2469,0.3884,0.4386,0.449,0.4484,0.4522,0.4519,0.4519,0.4519,0.4519,0.4519,0.4519,0.4519,0.4519,0.4519,0.4519,0.457,0.4732,0.4787,0.4628,0.421,0.0,0.0,0.0,0.0,0.0,0.0,0.3069,0.3184,0.3879,0.0,0.0,0.0,0.0,0.0,0.0,0.0,0.0,0.0,0.0,0.0,0.0,0.3916,0.3979,0.4125,0.3566,0.3231,0.2952,0.2208,0.1385,0.0452,-0.0677,-0.1253,-0.1474,-0.2097,-0.2588,-0.2943,-0.2943,-0.3253,-0.3687,-0.3975,-0.4052,-0.4153,0.7044,0.7041,0.695,0.6746,0.6692,0.6793,0.7011,0.7054,0.6947,0.6742,0.6451,0.5227,0.2449,0.2708,0.3317,0.3812,0.3302,0.2818,0.2539,0.2597,0.2547,0.0,0.0,0.2424,0.2229,0.2893,0.3289,0.3289,0.0,0.0,0.4016,0.0,0.4012,0.4026,0.4324,0.4512,0.4512,0.4515,0.4519,0.4519,0.4519,0.4519,0.4519,0.4519,0.4519,0.4519,0.4519,0.4519,0.4519,0.4519,0.446,0.4467,0.4432,0.3426,0.2529,0.4045,0.448,0.4519,0.4519,0.4519,0.4519,0.4519,0.4519,0.4519,0.4519,0.4519,0.4519,0.4519,0.4519,0.468,0.5378,0.5483,0.5259,0.4496,0.0,0.0,0.0,0.0,0.0,0.0,0.265,0.2853,0.3705,0.0,0.0,0.0,0.0,0.0,0.0,0.0,0.0,0.1827,0.196,0.0,0.2892,0.3381,0.3492,0.3289,0.3345,0.301,0.2173,0.1456,0.0364,-0.0906,-0.1546,-0.2131,-0.2719,-0.335,-0.3578,-0.3578,-0.3578,-0.3689,-0.3787,-0.3787,-0.4123,-0.4648,0.5924,0.6047,0.6304,0.5375,0.6016,0.6658,0.6817,0.6841,0.6732,0.6441,0.6403,0.6022,0.4852,0.4969,0.5092,0.0,0.4247,0.3982,0.0,0.3813,0.3626,0.3994,0.3769,0.3566,0.3439,0.366,0.3794,0.3794,0.0,0.0,0.0,0.4019,0.4128,0.4324,0.4474,0.4519,0.4519,0.4519,0.4519,0.4519,0.4519,0.4519,0.4519,0.4519,0.4519,0.4519,0.4519,0.4519,0.4519,0.4519,0.4519,0.4519,0.4525,0.4135,0.3858,0.4379,0.448,0.4519,0.4519,0.4519,0.4519,0.4519,0.4519,0.4519,0.4519,0.4519,0.4519,0.4519,0.4842,0.5273,0.5487,0.5928,0.6115,0.5686,0.5353,0.0,0.0,0.0,0.0,0.0,0.3514,0.354,0.0,0.3816,0.0,0.0,0.0,0.0,0.0,0.0,0.0,0.0,0.341,0.0,0.398,0.3903,0.3666,0.3287,0.2788,0.1929,0.0701,0.047,-0.0101,-0.0919,-0.153,-0.2121,-0.2763,-0.335,-0.3796,-0.4081,-0.3588,-0.3855,-0.4541,-0.439,-0.4526,-0.4888,0.699,0.6483,0.6335,0.6275,0.6799,0.7096,0.6606,0.6536,0.6471,0.6285,0.6237,0.6139,0.5925,0.5878,0.0,0.5525,0.5032,0.4849,0.5196,0.4648,0.4429,0.4745,0.4535,0.4341,0.4189,0.0,0.0,0.4185,0.4185,0.4185,0.4185,0.4185,0.4284,0.4519,0.4519,0.4625,0.4842,0.4611,0.4494,0.4597,0.5681,0.5458,0.4498,0.4498,0.4505,0.4519,0.4519,0.4519,0.4519,0.4519,0.4519,0.4519,0.4519,0.4519,0.4522,0.448,0.4473,0.4519,0.4519,0.4519,0.4519,0.4519,0.4519,0.4519,0.4519,0.4677,0.4897,0.4897,0.5437,0.5977,0.6249,0.6686,0.6977,0.6777,0.6264,0.5766,0.5289,0.0,0.0,0.0,0.0,0.0,0.0,0.4019,0.0,0.0,0.0,0.0,0.0,0.0,0.0,0.3428,0.3804,0.0,0.4044,0.4035,0.3749,0.3287,0.2286,0.116,0.0,0.0,-0.0449,-0.1259,-0.1647,-0.2275,-0.3078,-0.3656,-0.4057,-0.4235,-0.4003,-0.4315,-0.4898,-0.4745,-0.4969,-0.5364,0.9622,0.8067,0.0,0.0,0.8742,0.0,0.649,0.6416,0.6412,0.6338,0.6,0.5806,0.5793,0.5741,0.5662,0.5505,0.0,0.0,0.0,0.4951,0.483,0.4553,0.4585,0.4579,0.4488,0.4488,0.4494,0.4519,0.4519,0.4519,0.4519,0.4519,0.4519,0.4519,0.4574,0.4893,0.537,0.486,0.4616,0.4765,0.7643,0.7193,0.4801,0.4743,0.4652,0.457,0.4574,0.4519,0.4519,0.4519,0.4519,0.4519,0.4519,0.4519,0.4519,0.4519,0.4519,0.4519,0.4519,0.4519,0.4519,0.4519,0.4515,0.457,0.457,0.5109,0.5597,0.5597,0.6145,0.6912,0.7557,0.7723,0.7777,0.7777,0.7182,0.6411,0.5666,0.0,0.0,0.0,0.0,0.0,0.0,0.4186,0.4205,0.0,0.0,0.0,0.0,0.0,0.3627,0.2379,0.3456,0.3801,0.3398,0.3808,0.3767,0.3231,0.173,0.067,0.0,-0.0052,-0.0704,-0.1788,-0.1845,-0.2544,-0.3622,-0.4176,-0.429,-0.4135,-0.4681,-0.4925,-0.4993,-0.4923,-0.532,-0.5935,0.0,0.0,1.0323,0.8432,0.8606,0.8461,0.6567,0.7169,0.7472,0.6412,0.6064,0.5864,0.5711,0.6244,0.6527,0.6412,0.5133,0.4543,0.4857,0.4333,0.4166,0.4629,0.4341,0.4161,0.4124,0.4124,0.4236,0.4519,0.4519,0.4519,0.4519,0.4519,0.4519,0.4515,0.5058,0.5093,0.4801,0.5692,0.5504,0.4765,0.7643,0.8365,0.7715,0.7009,0.6105,0.5277,0.525,0.4919,0.4519,0.4519,0.4519,0.4519,0.4519,0.4519,0.4519,0.4519,0.4519,0.4519,0.4519,0.4519,0.4519,0.4519,0.4882,0.5245,0.5253,0.581,0.6367,0.6367,0.6907,0.7509,0.767,0.8156,0.8533,0.8533,0.7937,0.7103,0.6167,0.5345,0.0,0.0,0.4654,0.4996,0.5615,0.5873,0.5962,0.0,0.0,0.0,0.0,0.5844,0.5268,0.3971,0.4207,0.4331,0.4242,0.4318,0.3733,0.2454,0.095,0.0164,0.0,-0.0458,-0.1074,-0.1837,-0.2294,-0.2898,-0.3622,-0.4176,-0.4626,-0.498,-0.4769,-0.5184,-0.5812,-0.497,-0.519,-0.5935,0.9135,1.0814,1.1745,1.0096,0.9928,0.9691,0.8882,0.875,0.8444,0.769,0.7858,0.7803,0.6932,0.7153,0.7288,0.6989,0.5839,0.537,0.5988,0.478,0.4369,0.5024,0.4509,0.4222,0.4222,0.4222,0.43,0.4519,0.4519,0.4519,0.4519,0.4519,0.4519,0.4515,0.5218,0.5479,0.5521,0.6279,0.6538,0.663,0.8152,0.8824,0.8736,0.8249,0.722,0.5987,0.5995,0.5784,0.5436,0.5436,0.5436,0.5381,0.5089,0.4974,0.4916,0.4577,0.4519,0.4519,0.4519,0.4519,0.4574,0.486,0.5234,0.5597,0.5955,0.6568,0.7085,0.7074,0.767,0.8209,0.8209,0.8533,0.8804,0.8804,0.7783,0.6806,0.6293,0.5462,0.0,0.4886,0.53,0.5799,0.6355,0.6496,0.6592,0.6518,0.0,0.0,0.6455,0.6411,0.5934,0.4999,0.5277,0.5171,0.4519,0.4519,0.3901,0.2674,0.1815,0.1072,0.0465,-0.0199,-0.0957,-0.1835,-0.2426,-0.3164,-0.4008,-0.4565,-0.5071,-0.5495,-0.5577,-0.5864,-0.6166,-0.5644,-0.5898,-0.6482,1.2305,1.2305,1.2305,1.2305,1.162,1.1212,1.1708,1.0542,0.9577,0.9378,1.0043,1.0001,0.8425,0.8209,0.7985,0.7555,0.7059,0.6861,0.715,0.5843,0.5239,0.566,0.5113,0.4846,0.4846,0.4846,0.4791,0.4625,0.4625,0.4625,0.4519,0.4519,0.457,0.468,0.5382,0.6036,0.6745,0.6865,0.7676,0.8804,0.8804,0.8785,0.8778,0.8778,0.8045,0.6933,0.6947,0.6814,0.6598,0.6624,0.6614,0.6499,0.5859,0.5648,0.555,0.4974,0.4846,0.4776,0.457,0.4519,0.4688,0.5321,0.5593,0.5837,0.6602,0.7326,0.7848,0.7889,0.8374,0.8804,0.8804,0.8804,0.8778,0.858,0.733,0.6331,0.616,0.0,0.5052,0.5392,0.6026,0.6571,0.6876,0.6912,0.6912,0.6912,0.6728,0.6702,0.0,0.6723,0.6315,0.5766,0.6293,0.6046,0.4846,0.4622,0.411,0.3427,0.3118,0.2321,0.1198,0.039,-0.0613,-0.1687,-0.2398,-0.329,-0.4347,-0.4967,-0.5355,-0.5642,-0.6347,-0.6517,-0.629,-0.6371,-0.6691,-0.7148,1.2305,1.2305,1.2305,1.2305,1.215,1.2131,1.2218,1.1553,1.0921,1.04,1.0531,1.0123,0.8863,0.8964,0.8949,0.8577,0.84,0.7819,0.6769,0.6599,0.6534,0.6431,0.6312,0.6263,0.6263,0.6263,0.5982,0.5324,0.5324,0.5054,0.4519,0.4519,0.4787,0.5378,0.6095,0.674,0.7326,0.8137,0.858,0.8804,0.8804,0.8811,0.8824,0.8824,0.8645,0.847,0.8472,0.7632,0.6579,0.6587,0.6589,0.6584,0.6473,0.6416,0.6423,0.6308,0.6258,0.5998,0.4827,0.4519,0.4688,0.5321,0.5964,0.6637,0.7365,0.8119,0.8646,0.8646,0.8699,0.8804,0.8804,0.8804,0.8534,0.7683,0.7285,0.683,0.5903,0.0,0.6224,0.6877,0.7279,0.7741,0.8415,0.848,0.848,0.848,0.7847,0.7788,0.8421,0.7847,0.7366,0.7041,0.6759,0.648,0.6263,0.5039,0.4318,0.4039,0.2762,0.2007,0.1641,0.0524,-0.0371,-0.112,-0.223,-0.3075,-0.3785,-0.461,-0.4969,-0.5099,-0.5655,-0.6047,-0.6264,-0.6065,-0.6457,-0.7118,1.1991,1.2158,1.2238,1.2024,1.1991,1.1897,1.1637,1.159,1.1336,1.0648,1.0624,1.0305,0.9575,0.9625,0.9518,0.9078,0.8934,0.8577,0.7854,0.7116,0.6853,0.7187,0.6804,0.6588,0.6588,0.6588,0.6421,0.6091,0.6091,0.5932,0.5609,0.5609,0.5823,0.6145,0.6853,0.7343,0.7605,0.8427,0.8804,0.8804,0.8804,0.8804,0.8804,0.8804,0.8778,0.8811,0.8818,0.8353,0.7776,0.7782,0.7805,0.7688,0.7336,0.718,0.709,0.6735,0.6573,0.6372,0.5301,0.5321,0.5724,0.6013,0.6632,0.7395,0.81,0.8567,0.8804,0.8804,0.8804,0.8804,0.8804,0.8804,0.8665,0.8177,0.7671,0.0,0.0,0.669,0.6936,0.7277,0.7866,0.8427,0.8752,0.8804,0.8804,0.8804,0.848,0.8427,0.8804,0.8339,0.8037,0.7911,0.6748,0.6171,0.6171,0.5491,0.5136,0.5056,0.3969,0.3231,0.2832,0.12,0.0136,-0.0488,-0.2047,-0.3202,-0.4073,-0.4652,-0.5372,-0.6148,-0.6307,-0.6602,-0.6926,-0.6884,-0.7246,-0.7772,1.165,1.1891,1.2004,1.1703,1.165,1.1523,1.1149,1.1369,1.1356,1.0742,1.0584,1.0347,1.014,1.0053,0.9806,0.923,0.9183,0.9064,0.8824,0.7723,0.7343,0.7943,0.7396,0.7128,0.7128,0.7128,0.702,0.6858,0.6858,0.675,0.6588,0.6588,0.6696,0.6858,0.745,0.7777,0.7996,0.854,0.8804,0.8804,0.8804,0.8804,0.8804,0.8804,0.8804,0.8804,0.8804,0.8804,0.8804,0.8804,0.8804,0.8692,0.8153,0.7976,0.7864,0.7284,0.7111,0.6887,0.6009,0.616,0.6648,0.6838,0.7295,0.7917,0.8633,0.8804,0.8804,0.8804,0.891,0.9008,0.8804,0.891,0.8908,0.8514,0.0,0.0,0.0,0.7646,0.7793,0.7882,0.8707,0.9211,0.9061,0.9008,0.9008,0.9008,0.891,0.8804,0.8804,0.853,0.836,0.8219,0.697,0.6353,0.6492,0.6202,0.6079,0.616,0.5157,0.4415,0.3901,0.2113,0.0932,0.0133,-0.1554,-0.2953,-0.4124,-0.4573,-0.5527,-0.6682,-0.6677,-0.6965,-0.7418,-0.7614,-0.8004,-0.8477,1.145,1.147,1.1483,1.145,1.145,1.1436,1.1403,1.1269,1.1122,1.0982,1.0414,1.0047,1.0107,0.9873,0.9586,0.9216,0.9183,0.9064,0.8824,0.8699,0.8646,0.8699,0.8646,0.8646,0.8646,0.8646,0.8321,0.7616,0.7616,0.7289,0.6588,0.6588,0.6966,0.7616,0.767,0.8103,0.8699,0.8752,0.8804,0.8804,0.8804,0.8804,0.8804,0.8804,0.8804,0.8804,0.8804,0.8804,0.8804,0.8804,0.8804,0.8804,0.8745,0.8745,0.8692,0.8633,0.8646,0.8302,0.6903,0.6578,0.6738,0.7475,0.7647,0.7917,0.8633,0.8804,0.8804,0.8804,0.9309,0.951,0.891,0.9316,0.9205,0.7662,0.0,0.0,0.8212,0.8751,0.9266,0.9562,1.023,1.0415,0.9762,0.9718,0.9718,0.9718,0.9159,0.8804,0.8804,0.853,0.8165,0.7594,0.7696,0.7963,0.8461,0.7307,0.6889,0.7276,0.5545,0.4579,0.432,0.3114,0.1954,0.0754,-0.0487,-0.1862,-0.3248,-0.4091,-0.4692,-0.5132,-0.5727,-0.6413,-0.71,-0.753,-0.8135,-0.8805,1.1838,1.2146,1.2528,1.2838,1.2901,1.2775,1.2465,1.2332,1.1999,1.1257,1.0984,1.0505,0.9606,0.9472,0.9292,0.8998,0.8971,0.9078,0.942,0.9413,0.9211,0.8804,0.8804,0.8804,0.8804,0.8804,0.8646,0.8374,0.8374,0.8262,0.7943,0.7943,0.8103,0.8374,0.8374,0.8533,0.8804,0.8804,0.8804,0.8804,0.8804,0.8804,0.8804,0.8804,0.8804,0.8804,0.8804,0.8804,0.8871,0.9475,0.9288,0.8871,0.9288,0.9109,0.8804,0.8804,0.8804,0.8685,0.81,0.7984,0.7919,0.7764,0.8041,0.8455,0.8745,0.8804,0.8804,0.8804,0.9008,0.9113,0.8857,0.9008,0.9127,0.8875,0.0,0.9383,0.9813,1.0051,1.0303,1.0434,1.0669,1.0712,1.0415,1.0415,1.0415,1.0415,1.0167,0.9865,0.9465,0.86,0.8273,0.8612,0.815,0.7983,0.8201,0.7348,0.7201,0.7695,0.6314,0.5613,0.548,0.3898,0.275,0.1949,0.0355,-0.1083,-0.2362,-0.3161,-0.3929,-0.466,-0.5522,-0.6174,-0.6798,-0.7734,-0.8518,-0.915,1.1988,1.2454,1.2904,1.3314,1.3468,1.3425,1.307,1.3009,1.2728,1.1939,1.1654,1.1115,1.0176,0.985,0.9642,0.9427,0.9413,0.9614,1.0064,1.0115,0.9917,0.9465,0.9413,0.9413,0.9413,0.9211,0.9106,0.9106,0.891,0.8804,0.8811,0.9008,0.9008,0.8811,0.9008,0.9008,0.8804,0.8804,0.8804,0.8804,0.8804,0.8969,0.9232,0.891,0.8784,0.8817,0.8791,0.8778,0.8908,0.9561,0.9621,0.9504,0.9843,0.9715,0.9401,0.9166,0.912,0.9109,0.9109,0.9109,0.893,0.8218,0.8448,0.8804,0.8804,0.8988,0.9117,0.9138,0.9451,0.9666,0.9465,0.9614,0.9814,1.0064,1.0312,1.0568,1.1065,1.1325,1.1375,1.1166,1.1325,1.1375,1.1166,1.1116,1.1116,1.1116,1.0914,1.057,1.0012,0.8996,0.8731,0.9263,0.8532,0.8234,0.8398,0.7814,0.7814,0.8398,0.7259,0.6628,0.6422,0.5134,0.3963,0.2879,0.1633,0.0172,-0.1407,-0.2128,-0.3136,-0.4369,-0.5272,-0.6173,-0.7125,-0.8217,-0.9108,-0.9843,1.1719,1.2094,1.2414,1.2422,1.2769,1.3009,1.3009,1.3009,1.3009,1.3,1.2357,1.1886,1.1886,1.1242,1.0813,1.0813,1.0813,1.0813,1.0813,1.0813,1.0813,1.0813,1.0813,1.0813,1.0813,1.0167,0.9814,0.9814,0.9159,0.8804,0.8804,0.951,0.9458,0.8857,0.951,0.9465,0.8804,0.8804,0.8804,0.8804,0.8804,0.9389,1.0074,0.918,0.8797,0.882,0.8817,0.8815,0.8789,0.8841,0.9688,1.0746,1.0343,1.0461,1.0664,1.0028,0.9807,0.9782,0.9782,0.9782,0.9647,0.899,0.8804,0.8804,0.8804,0.9327,0.9809,0.9826,1.0881,1.1566,1.0914,1.1366,1.1566,1.0914,1.1366,1.1814,1.1814,1.2452,1.2618,1.1922,1.2452,1.2608,1.1873,1.1814,1.1814,1.1814,1.1216,1.0706,1.0454,0.9985,0.9575,0.9306,0.8907,0.8958,0.9518,0.8958,0.8958,0.9478,0.8334,0.7515,0.7029,0.6941,0.5657,0.3541,0.3537,0.2042,-0.0413,-0.1021,-0.2347,-0.4034,-0.487,-0.6377,-0.8174,-0.8985,-0.9957,-1.092,1.293,1.332,1.3691,1.4044,1.4427,1.4688,1.4688,1.4688,1.4308,1.323,1.289,1.2312,1.1245,1.0945,1.0813,1.0813,1.0813,1.1015,1.1466,1.199,1.2255,1.2255,1.1325,1.0813,1.0813,1.0618,1.0517,1.0517,1.0312,1.0218,1.0218,1.0415,1.0415,1.021,1.0415,1.0415,1.0218,1.0218,1.0218,1.0218,1.0218,1.0372,1.0584,1.032,1.001,0.9796,0.9775,0.9344,0.9105,1.1032,1.1931,1.2131,1.1379,1.0947,1.0748,1.0578,1.0514,1.0522,1.0483,1.0501,1.0451,1.0226,1.0174,1.0184,1.0184,1.0382,1.0489,1.0513,1.0814,1.1065,1.0864,1.0965,1.1166,1.1466,1.1665,1.1972,1.251,1.2774,1.2822,1.2608,1.2774,1.3007,1.3188,1.2832,1.2929,1.3784,1.2812,1.2377,1.275,1.0809,1.0052,1.0882,1.0171,0.9992,1.0552,0.9301,0.8958,0.9478,0.9107,0.8666,0.8211,0.8084,0.7257,0.5845,0.5434,0.4578,0.3327,0.1658,0.0625,-0.0173,-0.3433,-0.5062,-0.583,-0.7855,-0.8908,-0.9497,1.3213,1.3603,1.3975,1.4238,1.4766,1.5107,1.4932,1.5049,1.4743,1.3614,1.3336,1.2881,1.1968,1.1731,1.1633,1.1633,1.1633,1.1792,1.2187,1.2666,1.2881,1.2881,1.2098,1.1633,1.1633,1.1325,1.1216,1.1216,1.0914,1.0813,1.0813,1.1065,1.1065,1.0813,1.1065,1.1065,1.0813,1.0813,1.0813,1.0813,1.0813,1.0965,1.1166,1.0914,1.0788,1.0797,1.0738,1.0229,0.9934,1.2149,1.2878,1.282,1.2249,1.1877,1.1576,1.128,1.119,1.1192,1.1193,1.1204,1.125,1.1575,1.1215,1.0776,1.0795,1.1019,1.1195,1.1189,1.1621,1.2003,1.2003,1.2181,1.2473,1.287,1.2735,1.2754,1.319,1.3238,1.3238,1.3238,1.3478,1.3742,1.4097,1.3836,1.3931,1.4663,1.3971,1.3606,1.3768,1.2312,1.1669,1.2196,1.1511,1.1299,1.1637,1.0507,1.0079,1.0399,1.0369,1.0089,0.9591,0.9497,0.8884,0.7797,0.7277,0.654,0.5615,0.4104,0.2756,0.1341,-0.1408,-0.3761,-0.5798,-0.7761,-0.9081,-1.0082,1.3065,1.3362,1.3608,1.3608,1.4233,1.459,1.4199,1.4473,1.457,1.4141,1.375,1.3496,1.3457,1.3105,1.2881,1.2881,1.2881,1.2881,1.2881,1.2881,1.2881,1.2881,1.2881,1.2881,1.2881,1.2236,1.1913,1.1913,1.1266,1.0973,1.1015,1.1616,1.1566,1.1023,1.1616,1.1566,1.0973,1.0973,1.0973,1.0973,1.0973,1.1366,1.1823,1.1216,1.1366,1.1882,1.1663,1.1366,1.1178,1.2487,1.292,1.2881,1.2881,1.2881,1.2803,1.2164,1.1923,1.1926,1.1956,1.1922,1.2043,1.2723,1.1923,1.0982,1.098,1.1442,1.1893,1.1895,1.2967,1.3868,1.3826,1.4316,1.4754,1.4709,1.4236,1.3862,1.3862,1.3862,1.3862,1.3862,1.4376,1.4698,1.4789,1.4835,1.4835,1.4789,1.4789,1.456,1.4003,1.4105,1.3883,1.321,1.2999,1.2869,1.2803,1.241,1.2073,1.1811,1.1811,1.1483,1.0908,1.1035,1.0482,0.9444,0.9037,0.8193,0.7018,0.6385,0.4459,0.1819,0.0936,-0.2409,-0.6903,-0.8432,-1.0158,-1.19,1.4294,1.4243,1.4202,1.4202,1.422,1.4238,1.4097,1.4165,1.4121,1.3701,1.3564,1.3379,1.3047,1.2939,1.2881,1.2881,1.2881,1.2881,1.2881,1.2881,1.2881,1.2881,1.2881,1.2881,1.2881,1.2725,1.2666,1.2666,1.252,1.2461,1.2461,1.2618,1.2569,1.2461,1.2618,1.2569,1.2461,1.2461,1.2461,1.2461,1.2461,1.251,1.2666,1.251,1.251,1.2666,1.2588,1.251,1.2482,1.2793,1.29,1.2881,1.2881,1.2881,1.2949,1.3272,1.3008,1.2774,1.3264,1.3036,1.2693,1.2852,1.2677,1.2434,1.2423,1.2579,1.2638,1.2657,1.3587,1.4296,1.3889,1.4635,1.5193,1.4765,1.4606,1.4514,1.4514,1.4514,1.4514,1.4514,1.4606,1.488,1.5365,1.5832,1.592,1.5454,1.541,1.5365,1.5231,1.4869,1.4429,1.3883,1.4641,1.4826,1.441,1.5105,1.4239,1.1811,1.1811,1.1505,1.0998,1.1431,1.126,1.0664,1.0966,1.0673,0.9883,0.8437,0.7617,0.6797,0.2392,-0.0855,-0.3708,-0.9079,-1.1293,-1.1741,1.4698,1.462,1.4547,1.4547,1.4602,1.4592,1.4435,1.453,1.4408,1.3719,1.3619,1.3441,1.2949,1.2881,1.2881,1.2881,1.2881,1.2881,1.2881,1.2881,1.2881,1.2881,1.32,1.3334,1.3334,1.361,1.3478,1.2881,1.2881,1.2881,1.2881,1.2881,1.2881,1.2881,1.2881,1.2881,1.2881,1.2881,1.2881,1.2881,1.2881,1.2881,1.2881,1.2881,1.2881,1.2881,1.2881,1.2881,1.292,1.2918,1.2907,1.2887,1.2887,1.3142,1.3527,1.3862,1.3842,1.3814,1.4141,1.38,1.3387,1.37,1.3548,1.3256,1.2968,1.2881,1.2968,1.3286,1.4243,1.4945,1.4719,1.5614,1.623,1.565,1.5332,1.5152,1.5152,1.5152,1.5152,1.5152,1.5377,1.5688,1.6008,1.6324,1.638,1.6051,1.6287,1.6275,1.6003,1.6245,1.6109,1.5605,1.6139,1.6315,1.6066,1.6522,1.6047,1.4566,1.4419,1.3891,1.3157,1.356,1.3535,1.3144,1.2956,1.2626,1.2051,1.0689,0.9422,0.8005,0.4772,0.1674,-0.171,-0.7625,-1.1195,-1.3028,1.5017,1.4926,1.4835,1.4835,1.5023,1.5074,1.4765,1.4987,1.4909,1.4057,1.3862,1.36,1.3104,1.3065,1.3113,1.32,1.32,1.32,1.32,1.32,1.32,1.32,1.3695,1.3956,1.3956,1.4422,1.4201,1.32,1.3113,1.3065,1.3065,1.2978,1.2978,1.3065,1.3065,1.3104,1.32,1.32,1.32,1.32,1.32,1.32,1.32,1.32,1.32,1.32,1.32,1.3142,1.3092,1.2939,1.3046,1.3222,1.347,1.3862,1.4328,1.4328,1.4507,1.4713,1.4834,1.4406,1.4063,1.4575,1.4336,1.381,1.3324,1.32,1.3334,1.3873,1.4854,1.5659,1.5593,1.6606,1.7187,1.6609,1.6095,1.5764,1.5764,1.5764,1.5764,1.5764,1.6194,1.6522,1.6522,1.6522,1.6552,1.6637,1.7034,1.7162,1.6818,1.7773,1.8129,1.7585,1.7852,1.7956,1.7803,1.7831,1.7988,1.8217,1.8051,1.7242,1.5911,1.5965,1.5891,1.572,1.4834,1.427,1.3879,1.2856,1.108,0.8888,0.764,0.4774,0.0572,-0.5572,-1.0617,-1.4204,1.625,1.5832,1.5499,1.5499,1.5108,1.4776,1.472,1.4754,1.473,1.4617,1.4143,1.3768,1.3684,1.3684,1.3873,1.4433,1.4479,1.4479,1.4479,1.4479,1.4479,1.4479,1.4525,1.456,1.456,1.4663,1.4617,1.4479,1.392,1.3684,1.3684,1.3152,1.32,1.3684,1.3684,1.3967,1.4479,1.4479,1.4479,1.4479,1.4479,1.4479,1.4479,1.4479,1.4479,1.4479,1.4479,1.4218,1.3822,1.3119,1.3584,1.4643,1.5678,1.5603,1.5116,1.5116,1.492,1.4791,1.5325,1.5042,1.4626,1.4687,1.4654,1.456,1.4479,1.4479,1.4479,1.456,1.5499,1.616,1.5683,1.6606,1.7187,1.6609,1.6423,1.638,1.638,1.638,1.638,1.638,1.6466,1.6522,1.6522,1.6522,1.668,1.7146,1.7271,1.7639,1.8436,1.9067,1.9309,1.9118,2.03,2.056,1.9829,2.0544,2.0886,2.0797,2.1227,2.0111,1.7622,1.6734,1.6534,1.6839,1.6201,1.5849,1.5675,1.4658,1.4263,1.3942,1.0728,0.8306,0.5431,-0.4684,-1.0422,-1.3055,1.6522,1.6281,1.6095,1.6095,1.5876,1.57,1.57,1.57,1.5599,1.5231,1.4949,1.4687,1.4329,1.4283,1.4422,1.4663,1.4698,1.4698,1.4698,1.4698,1.4698,1.4698,1.5017,1.5186,1.5186,1.5511,1.57,1.57,1.4744,1.4283,1.4283,1.4025,1.4061,1.4283,1.4283,1.4468,1.4698,1.4698,1.4698,1.4698,1.4698,1.4698,1.4698,1.4698,1.4698,1.4698,1.4698,1.4709,1.4732,1.4361,1.4901,1.5796,1.6335,1.6262,1.5954,1.5954,1.5819,1.5752,1.6022,1.5664,1.5277,1.5636,1.5475,1.5276,1.5611,1.594,1.5971,1.532,1.5821,1.6356,1.6149,1.6796,1.7187,1.6609,1.6522,1.6522,1.6522,1.6522,1.6522,1.6522,1.6522,1.6522,1.6522,1.6522,1.671,1.7271,1.7826,1.8464,1.9229,1.9993,2.0335,2.0289,2.1083,2.1315,2.091,2.1827,2.232,2.2411,2.3079,2.1954,1.9321,1.9143,1.8796,1.8259,1.7992,1.7343,1.6482,1.6176,1.3835,1.0226,0.8023,0.5613,0.2654,-0.363,-0.7927,-1.0659]}]]